START-OF-LOG: 2.0
CREATED-BY: LogConv v1.73b by KA5WSS
ARRL-SECTION: 
CONTEST: CQ-WW-CW
CALLSIGN: LZ1ABC
CATEGORY: MULTI-ONE ALL LOW
CLAIMED-SCORE: 2455488 
OPERATORS: LZ1ABC LZ1AQ 
CLUB: 
NAME: Chavdar Levkov
ADDRESS: Hr. Stanchev 10
ADDRESS: Sofia, 1463
SOAPBOX: Low power with multi single was a great fun.
SOAPBOX: 100w IC756PRO & Alinco DX70
SOAPBOX: 160m-40m:  Horizontal delta loop 20m high length for 160m band
SOAPBOX: 20m-10m: 2ele Delta tribander 15m high; 10m-2ele monoband delta
QSO:  7000 CW 2002-11-23 0000 LZ1ABC        599 20     DL7ANR        599 14      
QSO:  7000 CW 2002-11-23 0002 LZ1ABC        599 20     RK3AZ         599 16      
QSO:  7000 CW 2002-11-23 0003 LZ1ABC        599 20     EA6/DL1GGT    599 14      
QSO:  7000 CW 2002-11-23 0004 LZ1ABC        599 20     RK4FF         599 16      
QSO:  7000 CW 2002-11-23 0005 LZ1ABC        599 20     M2A           599 14      
QSO:  7000 CW 2002-11-23 0005 LZ1ABC        599 20     NY4A          599 05      
QSO:  7000 CW 2002-11-23 0006 LZ1ABC        599 20     K4JA          599 05      
QSO:  7000 CW 2002-11-23 0007 LZ1ABC        599 20     K1AR          599 05      
QSO:  7000 CW 2002-11-23 0008 LZ1ABC        599 20     W3LPL         599 05      
QSO:  7000 CW 2002-11-23 0009 LZ1ABC        599 20     RK0AYB        599 18      
QSO:  7000 CW 2002-11-23 0010 LZ1ABC        599 20     LX5A          599 14      
QSO:  7000 CW 2002-11-23 0011 LZ1ABC        599 20     RK3AWA        599 16      
QSO:  7000 CW 2002-11-23 0012 LZ1ABC        599 20     P40Q          599 09      
QSO:  7000 CW 2002-11-23 0012 LZ1ABC        599 20     GW0GEI        599 14      
QSO:  7000 CW 2002-11-23 0013 LZ1ABC        599 20     K8AZ          599 04      
QSO:  7000 CW 2002-11-23 0014 LZ1ABC        599 20     OZ/DK5QN      599 14      
QSO:  7000 CW 2002-11-23 0014 LZ1ABC        599 20     KQ2M          599 05      
QSO:  7000 CW 2002-11-23 0015 LZ1ABC        599 20     W3RJ          599 05      
QSO:  7000 CW 2002-11-23 0016 LZ1ABC        599 20     W3BGN         599 05      
QSO:  7000 CW 2002-11-23 0021 LZ1ABC        599 20     HC8N          599 10      
QSO:  7000 CW 2002-11-23 0022 LZ1ABC        599 20     RU6L          599 16      
QSO:  7000 CW 2002-11-23 0022 LZ1ABC        599 20     N9RV          599 04      
QSO:  7000 CW 2002-11-23 0023 LZ1ABC        599 20     OM5M          599 15      
QSO:  7000 CW 2002-11-23 0023 LZ1ABC        599 20     W9RE          599 04      
QSO:  7000 CW 2002-11-23 0024 LZ1ABC        599 20     IQ4A          599 15      
QSO:  7000 CW 2002-11-23 0025 LZ1ABC        599 20     DK0MN         599 14      
QSO:  7000 CW 2002-11-23 0027 LZ1ABC        599 20     US2IR         599 16      
QSO:  7000 CW 2002-11-23 0028 LZ1ABC        599 20     S51RJ         599 15      
QSO:  7000 CW 2002-11-23 0030 LZ1ABC        599 20     P40E          599 09      
QSO:  7000 CW 2002-11-23 0031 LZ1ABC        599 20     R5CC          599 16      
QSO:  7000 CW 2002-11-23 0032 LZ1ABC        599 20     K2DM          599 05      
QSO:  7000 CW 2002-11-23 0033 LZ1ABC        599 20     KT1V          599 05      
QSO:  7000 CW 2002-11-23 0034 LZ1ABC        599 20     W2XL          599 05      
QSO:  7000 CW 2002-11-23 0035 LZ1ABC        599 20     SK3W          599 14      
QSO:  7000 CW 2002-11-23 0036 LZ1ABC        599 20     K2TE          599 05      
QSO:  7000 CW 2002-11-23 0037 LZ1ABC        599 20     N2AN          599 05      
QSO:  7000 CW 2002-11-23 0038 LZ1ABC        599 20     EA7RM         599 14      
QSO:  7000 CW 2002-11-23 0038 LZ1ABC        599 20     N2NU          599 05      
QSO:  7000 CW 2002-11-23 0040 LZ1ABC        599 20     OZ1AA         599 14      
QSO:  7000 CW 2002-11-23 0041 LZ1ABC        599 20     LA5UF         599 14      
QSO:  7000 CW 2002-11-23 0042 LZ1ABC        599 20     II1H          599 15      
QSO:  7000 CW 2002-11-23 0043 LZ1ABC        599 20     DF3CB         599 14      
QSO:  7000 CW 2002-11-23 0043 LZ1ABC        599 20     RK9CZO        599 17      
QSO:  7000 CW 2002-11-23 0044 LZ1ABC        599 20     A45XR         599 21      
QSO:  7000 CW 2002-11-23 0046 LZ1ABC        599 20     W4NF          599 05      
QSO:  7000 CW 2002-11-23 0047 LZ1ABC        599 20     6Y4A          599 08      
QSO:  7000 CW 2002-11-23 0048 LZ1ABC        599 20     HB9FAP        599 14      
QSO:  7000 CW 2002-11-23 0048 LZ1ABC        599 20     W4AN          599 05      
QSO:  7000 CW 2002-11-23 0051 LZ1ABC        599 20     S52ZW         599 15      
QSO:  7000 CW 2002-11-23 0052 LZ1ABC        599 20     TM2Y          599 14      
QSO:  7000 CW 2002-11-23 0053 LZ1ABC        599 20     W4RM          599 05      
QSO:  7000 CW 2002-11-23 0054 LZ1ABC        599 20     N4ZR          599 05      
QSO:  7000 CW 2002-11-23 0054 LZ1ABC        599 20     N3AD          599 05      
QSO:  7000 CW 2002-11-23 0055 LZ1ABC        599 20     S53EO         599 15      
QSO:  7000 CW 2002-11-23 0056 LZ1ABC        599 20     T48K          599 08      
QSO:  7000 CW 2002-11-23 0056 LZ1ABC        599 20     VY2TT         599 05      
QSO:  7000 CW 2002-11-23 0058 LZ1ABC        599 20     OH5CW         599 15      
QSO:  7000 CW 2002-11-23 0058 LZ1ABC        599 20     EA5FW         599 14      
QSO:  7000 CW 2002-11-23 0059 LZ1ABC        599 20     DL0KF         599 14      
QSO:  7000 CW 2002-11-23 0101 LZ1ABC        599 20     OZ5W          599 14      
QSO:  7000 CW 2002-11-23 0102 LZ1ABC        599 20     DL5RMH        599 14      
QSO:  7000 CW 2002-11-23 0105 LZ1ABC        599 20     UA0KCL/3      599 16      
QSO:  7000 CW 2002-11-23 0105 LZ1ABC        599 20     IK4VET        599 15      
QSO:  7000 CW 2002-11-23 0106 LZ1ABC        599 20     EA7JX         599 14      
QSO:  7000 CW 2002-11-23 0108 LZ1ABC        599 20     DK5PD         599 14      
QSO:  7000 CW 2002-11-23 0109 LZ1ABC        599 20     CT3EE         599 33      
QSO:  7000 CW 2002-11-23 0110 LZ1ABC        599 20     OH6NIO        599 15      
QSO:  7000 CW 2002-11-23 0110 LZ1ABC        599 20     K3KO          599 05      
QSO:  7000 CW 2002-11-23 0111 LZ1ABC        599 20     ED2JJ         599 14      
QSO:  7000 CW 2002-11-23 0112 LZ1ABC        599 20     UA4PI         599 16      
QSO:  7000 CW 2002-11-23 0113 LZ1ABC        599 20     UA9ZZ/9       599 18      
QSO:  7000 CW 2002-11-23 0115 LZ1ABC        599 20     SM6D          599 14      
QSO:  7000 CW 2002-11-23 0117 LZ1ABC        599 20     K8CC          599 04      
QSO:  7000 CW 2002-11-23 0117 LZ1ABC        599 20     DL2FDL        599 14      
QSO:  7000 CW 2002-11-23 0118 LZ1ABC        599 20     RP4ASB        599 16      
QSO:  7000 CW 2002-11-23 0119 LZ1ABC        599 20     IK2WXQ        599 15      
QSO:  7000 CW 2002-11-23 0119 LZ1ABC        599 20     DK8TU         599 14      
QSO:  7000 CW 2002-11-23 0121 LZ1ABC        599 20     RT9W          599 17      
QSO:  7000 CW 2002-11-23 0122 LZ1ABC        599 20     OH3WS         599 15      
QSO:  7000 CW 2002-11-23 0123 LZ1ABC        599 20     S51F          599 15      
QSO:  7000 CW 2002-11-23 0123 LZ1ABC        599 20     UR5MD         599 16      
QSO:  7000 CW 2002-11-23 0124 LZ1ABC        599 20     S54A          599 15      
QSO:  7000 CW 2002-11-23 0126 LZ1ABC        599 20     WD4K          599 04      
QSO:  7000 CW 2002-11-23 0127 LZ1ABC        599 20     EA4NP         599 14      
QSO:  7000 CW 2002-11-23 0130 LZ1ABC        599 20     8S2F          599 14      
QSO:  7000 CW 2002-11-23 0134 LZ1ABC        599 20     EA5HQ         599 14      
QSO:  7000 CW 2002-11-23 0138 LZ1ABC        599 20     RZ4FA         599 16      
QSO:  7000 CW 2002-11-23 0139 LZ1ABC        599 20     3V8BB         599 33      
QSO:  7000 CW 2002-11-23 0142 LZ1ABC        599 20     PT5A          599 11      
QSO:  7000 CW 2002-11-23 0144 LZ1ABC        599 20     ES6Q          599 15      
QSO:  7000 CW 2002-11-23 0145 LZ1ABC        599 20     ZF1A          599 08      
QSO:  7000 CW 2002-11-23 0146 LZ1ABC        599 20     W2RE          599 05      
QSO:  7000 CW 2002-11-23 0148 LZ1ABC        599 20     FM5BH         599 08      
QSO:  7000 CW 2002-11-23 0151 LZ1ABC        599 20     P3A           599 20      
QSO:  7000 CW 2002-11-23 0152 LZ1ABC        599 20     RN6BN         599 16      
QSO:  7000 CW 2002-11-23 0154 LZ1ABC        599 20     YW1D          599 09      
QSO:  7000 CW 2002-11-23 0158 LZ1ABC        599 20     K1KI          599 05      
QSO:  7000 CW 2002-11-23 0159 LZ1ABC        599 20     RK9TWA        599 17      
QSO:  7000 CW 2002-11-23 0201 LZ1ABC        599 20     EA8CN         599 33      
QSO:  7000 CW 2002-11-23 0202 LZ1ABC        599 20     GI5W          599 14      
QSO:  7000 CW 2002-11-23 0203 LZ1ABC        599 20     N2NT          599 05      
QSO:  7000 CW 2002-11-23 0204 LZ1ABC        599 20     T95A          599 15      
QSO:  3500 CW 2002-11-23 0207 LZ1ABC        599 20     UP6P          599 17      
QSO:  3500 CW 2002-11-23 0208 LZ1ABC        599 20     UX0FF         599 16      
QSO:  3500 CW 2002-11-23 0209 LZ1ABC        599 20     A61AJ         599 21      
QSO:  3500 CW 2002-11-23 0210 LZ1ABC        599 20     RT9W          599 17      
QSO:  3500 CW 2002-11-23 0211 LZ1ABC        599 20     OK2PP         599 15      
QSO:  3500 CW 2002-11-23 0212 LZ1ABC        599 20     OM8A          599 15      
QSO:  3500 CW 2002-11-23 0213 LZ1ABC        599 20     DJ9DZ         599 14      
QSO:  3500 CW 2002-11-23 0213 LZ1ABC        599 20     S50U          599 15      
QSO:  3500 CW 2002-11-23 0214 LZ1ABC        599 20     UN7CW         599 17      
QSO:  3500 CW 2002-11-23 0215 LZ1ABC        599 20     KT1V          599 05      
QSO:  3500 CW 2002-11-23 0215 LZ1ABC        599 20     SP2DNI        599 15      
QSO:  3500 CW 2002-11-23 0216 LZ1ABC        599 20     W3LPL         599 05      
QSO:  3500 CW 2002-11-23 0217 LZ1ABC        599 20     ZA1B          599 15      
QSO:  3500 CW 2002-11-23 0218 LZ1ABC        599 20     RX9SX         599 17      
QSO:  3500 CW 2002-11-23 0219 LZ1ABC        599 20     OZ0XX         599 14      
QSO:  3500 CW 2002-11-23 0220 LZ1ABC        599 20     HG1R          599 15      
QSO:  3500 CW 2002-11-23 0220 LZ1ABC        599 20     LY7A          599 15      
QSO:  3500 CW 2002-11-23 0220 LZ1ABC        599 20     UA9CLB        599 17      
QSO:  3500 CW 2002-11-23 0221 LZ1ABC        599 20     S52KA         599 15      
QSO:  3500 CW 2002-11-23 0222 LZ1ABC        599 20     OK1FDY        599 15      
QSO:  3500 CW 2002-11-23 0222 LZ1ABC        599 20     GI5W          599 14      
QSO:  3500 CW 2002-11-23 0223 LZ1ABC        599 20     EA5FID        599 14      
QSO:  3500 CW 2002-11-23 0223 LZ1ABC        599 20     RZ4FA         599 16      
QSO:  3500 CW 2002-11-23 0224 LZ1ABC        599 20     UA9SP         599 17      
QSO:  3500 CW 2002-11-23 0224 LZ1ABC        599 20     HG9M          599 15      
QSO:  3500 CW 2002-11-23 0225 LZ1ABC        599 20     S50C          599 15      
QSO:  3500 CW 2002-11-23 0225 LZ1ABC        599 20     SO2R          599 15      
QSO:  3500 CW 2002-11-23 0226 LZ1ABC        599 20     YU7AV         599 15      
QSO:  3500 CW 2002-11-23 0227 LZ1ABC        599 20     CT9L          599 33      
QSO:  3500 CW 2002-11-23 0228 LZ1ABC        599 20     OM3ZWA        599 15      
QSO:  3500 CW 2002-11-23 0228 LZ1ABC        599 20     RL3A          599 16      
QSO:  3500 CW 2002-11-23 0228 LZ1ABC        599 20     OK1EW         599 15      
QSO:  3500 CW 2002-11-23 0229 LZ1ABC        599 20     YU1KR         599 15      
QSO:  3500 CW 2002-11-23 0230 LZ1ABC        599 20     DL9SUB        599 14      
QSO:  3500 CW 2002-11-23 0230 LZ1ABC        599 20     RA9MA         599 17      
QSO:  3500 CW 2002-11-23 0231 LZ1ABC        599 20     EU1UN         599 16      
QSO:  3500 CW 2002-11-23 0233 LZ1ABC        599 20     DJ0MDR        599 14      
QSO:  3500 CW 2002-11-23 0234 LZ1ABC        599 20     DL1IAO        599 14      
QSO:  3500 CW 2002-11-23 0236 LZ1ABC        599 20     M7M           599 14      
QSO:  3500 CW 2002-11-23 0237 LZ1ABC        599 20     S51W          599 15      
QSO:  3500 CW 2002-11-23 0237 LZ1ABC        599 20     DL7ANR        599 14      
QSO:  3500 CW 2002-11-23 0240 LZ1ABC        599 20     KP3Z          599 08      
QSO:  3500 CW 2002-11-23 0241 LZ1ABC        599 20     OK1FOG        599 15      
QSO:  3500 CW 2002-11-23 0244 LZ1ABC        599 20     YT0T          599 15      
QSO:  3500 CW 2002-11-23 0245 LZ1ABC        599 20     S57AW         599 15      
QSO:  3500 CW 2002-11-23 0246 LZ1ABC        599 20     RK4WWA        599 16      
QSO:  3500 CW 2002-11-23 0247 LZ1ABC        599 20     LY2BW         599 15      
QSO:  3500 CW 2002-11-23 0247 LZ1ABC        599 20     DF0HQ         599 14      
QSO:  3500 CW 2002-11-23 0248 LZ1ABC        599 20     LX5A          599 14      
QSO:  3500 CW 2002-11-23 0249 LZ1ABC        599 20     SP4Z          599 15      
QSO:  3500 CW 2002-11-23 0250 LZ1ABC        599 20     ER3R          599 16      
QSO:  3500 CW 2002-11-23 0251 LZ1ABC        599 20     RK3WWA        599 16      
QSO:  3500 CW 2002-11-23 0252 LZ1ABC        599 20     OK1RR         599 15      
QSO:  3500 CW 2002-11-23 0252 LZ1ABC        599 20     DL7CX         599 14      
QSO:  3500 CW 2002-11-23 0253 LZ1ABC        599 20     OM3IAG        599 15      
QSO:  3500 CW 2002-11-23 0253 LZ1ABC        599 20     OH2BH         599 15      
QSO:  3500 CW 2002-11-23 0254 LZ1ABC        599 20     RW2F          599 15      
QSO:  3500 CW 2002-11-23 0254 LZ1ABC        599 20     DK0DO         599 14      
QSO:  3500 CW 2002-11-23 0255 LZ1ABC        599 20     RN6BN         599 16      
QSO:  3500 CW 2002-11-23 0256 LZ1ABC        599 20     UT1YW         599 16      
QSO:  3500 CW 2002-11-23 0257 LZ1ABC        599 20     RW9C          599 17      
QSO:  3500 CW 2002-11-23 0257 LZ1ABC        599 20     OZ5W          599 14      
QSO:  3500 CW 2002-11-23 0301 LZ1ABC        599 20     SQ6Z          599 15      
QSO:  3500 CW 2002-11-23 0301 LZ1ABC        599 20     OE2LCM        599 15      
QSO:  3500 CW 2002-11-23 0302 LZ1ABC        599 20     SN8F          599 15      
QSO:  3500 CW 2002-11-23 0303 LZ1ABC        599 20     SP3KEY        599 15      
QSO:  3500 CW 2002-11-23 0303 LZ1ABC        599 20     UT7L          599 16      
QSO:  3500 CW 2002-11-23 0305 LZ1ABC        599 20     7S2E          599 14      
QSO:  3500 CW 2002-11-23 0307 LZ1ABC        599 20     RA4UN         599 16      
QSO:  3500 CW 2002-11-23 0307 LZ1ABC        599 20     DL6FBL        599 14      
QSO:  3500 CW 2002-11-23 0308 LZ1ABC        599 20     HG6N          599 15      
QSO:  3500 CW 2002-11-23 0313 LZ1ABC        599 20     LA8PDA        599 14      
QSO:  3500 CW 2002-11-23 0314 LZ1ABC        599 20     9A1P          599 15      
QSO:  3500 CW 2002-11-23 0314 LZ1ABC        599 20     S59ABC        599 15      
QSO:  3500 CW 2002-11-23 0315 LZ1ABC        599 20     OH3XR         599 15      
QSO:  3500 CW 2002-11-23 0315 LZ1ABC        599 20     OM8FF         599 15      
QSO:  3500 CW 2002-11-23 0317 LZ1ABC        599 20     PI4DEC        599 14      
QSO:  3500 CW 2002-11-23 0317 LZ1ABC        599 20     UU9CW         599 16      
QSO:  3500 CW 2002-11-23 0318 LZ1ABC        599 20     GX6YB         599 14      
QSO:  3500 CW 2002-11-23 0319 LZ1ABC        599 20     S53EO         599 15      
QSO:  3500 CW 2002-11-23 0321 LZ1ABC        599 20     ED2JJ         599 14      
QSO:  3500 CW 2002-11-23 0321 LZ1ABC        599 20     9A1CCY        599 15      
QSO:  3500 CW 2002-11-23 0324 LZ1ABC        599 20     TA3DD         599 20      
QSO:  3500 CW 2002-11-23 0325 LZ1ABC        599 20     TM5C          599 14      
QSO:  3500 CW 2002-11-23 0326 LZ1ABC        599 20     T94OL         599 15      
QSO:  3500 CW 2002-11-23 0327 LZ1ABC        599 20     OK2PTS        599 15      
QSO:  3500 CW 2002-11-23 0327 LZ1ABC        599 20     RA9WW         599 17      
QSO:  3500 CW 2002-11-23 0328 LZ1ABC        599 20     YL5M          599 15      
QSO:  3500 CW 2002-11-23 0328 LZ1ABC        599 20     RN6BY         599 16      
QSO:  3500 CW 2002-11-23 0328 LZ1ABC        599 20     LY2DX         599 15      
QSO:  3500 CW 2002-11-23 0329 LZ1ABC        599 20     SP7JQQ        599 15      
QSO:  3500 CW 2002-11-23 0334 LZ1ABC        599 20     ZC4DW         599 20      
QSO:  3500 CW 2002-11-23 0334 LZ1ABC        599 20     UT4EW         599 16      
QSO:  3500 CW 2002-11-23 0336 LZ1ABC        599 20     II1H          599 15      
QSO:  3500 CW 2002-11-23 0337 LZ1ABC        599 20     LY5W          599 15      
QSO:  3500 CW 2002-11-23 0337 LZ1ABC        599 20     YL2GQT        599 15      
QSO:  3500 CW 2002-11-23 0337 LZ1ABC        599 20     US6UN         599 16      
QSO:  3500 CW 2002-11-23 0338 LZ1ABC        599 20     F5ICC         599 14      
QSO:  3500 CW 2002-11-23 0338 LZ1ABC        599 20     UT4NW         599 16      
QSO:  3500 CW 2002-11-23 0338 LZ1ABC        599 20     DL2OBF        599 14      
QSO:  3500 CW 2002-11-23 0339 LZ1ABC        599 20     DL6KO         599 14      
QSO:  3500 CW 2002-11-23 0339 LZ1ABC        599 20     UT4MF         599 16      
QSO:  3500 CW 2002-11-23 0339 LZ1ABC        599 20     OL0E          599 15      
QSO:  3500 CW 2002-11-23 0340 LZ1ABC        599 20     RA3FD         599 16      
QSO:  3500 CW 2002-11-23 0340 LZ1ABC        599 20     LZ9W          599 20      
QSO:  3500 CW 2002-11-23 0340 LZ1ABC        599 20     RG4A          599 16      
QSO:  3500 CW 2002-11-23 0341 LZ1ABC        599 20     EU1SA         599 16      
QSO:  3500 CW 2002-11-23 0342 LZ1ABC        599 20     DJ1YFK        599 14      
QSO:  3500 CW 2002-11-23 0343 LZ1ABC        599 20     SP9MRQ        599 15      
QSO:  3500 CW 2002-11-23 0344 LZ1ABC        599 20     UT2UB         599 16      
QSO:  3500 CW 2002-11-23 0345 LZ1ABC        599 20     YU1CC         599 15      
QSO:  3500 CW 2002-11-23 0345 LZ1ABC        599 20     OM6RM         599 15      
QSO:  3500 CW 2002-11-23 0345 LZ1ABC        599 20     RA6ATN        599 16      
QSO:  3500 CW 2002-11-23 0346 LZ1ABC        599 20     IK3DVY        599 15      
QSO:  3500 CW 2002-11-23 0347 LZ1ABC        599 20     UY1M          599 16      
QSO:  3500 CW 2002-11-23 0348 LZ1ABC        599 20     G3LZQ         599 14      
QSO:  3500 CW 2002-11-23 0348 LZ1ABC        599 20     P3A           599 20      
QSO:  3500 CW 2002-11-23 0349 LZ1ABC        599 20     YZ1SG         599 15      
QSO:  3500 CW 2002-11-23 0349 LZ1ABC        599 20     UW7F          599 16      
QSO:  3500 CW 2002-11-23 0351 LZ1ABC        599 20     OK3ZC         599 15      
QSO:  3500 CW 2002-11-23 0352 LZ1ABC        599 20     UA4LA         599 16      
QSO:  3500 CW 2002-11-23 0354 LZ1ABC        599 20     DL7UXG        599 14      
QSO:  3500 CW 2002-11-23 0354 LZ1ABC        599 20     RW6AH         599 16      
QSO:  3500 CW 2002-11-23 0355 LZ1ABC        599 20     LZ3NY         599 20      
QSO:  3500 CW 2002-11-23 0356 LZ1ABC        599 20     LZ9R          599 20      
QSO:  3500 CW 2002-11-23 0356 LZ1ABC        599 20     OH5UFO        599 15      
QSO:  3500 CW 2002-11-23 0356 LZ1ABC        599 20     RZ4AG         599 16      
QSO:  3500 CW 2002-11-23 0356 LZ1ABC        599 20     DL3KVR        599 14      
QSO:  3500 CW 2002-11-23 0358 LZ1ABC        599 20     YL2PP         599 15      
QSO:  3500 CW 2002-11-23 0359 LZ1ABC        599 20     LY2HN         599 15      
QSO:  3500 CW 2002-11-23 0400 LZ1ABC        599 20     UY5TE         599 16      
QSO:  3500 CW 2002-11-23 0402 LZ1ABC        599 20     RW3WM         599 16      
QSO:  3500 CW 2002-11-23 0403 LZ1ABC        599 20     YT6A          599 15      
QSO:  3500 CW 2002-11-23 0403 LZ1ABC        599 20     HG5Z          599 15      
QSO:  3500 CW 2002-11-23 0403 LZ1ABC        599 20     UA6NZ         599 16      
QSO:  3500 CW 2002-11-23 0404 LZ1ABC        599 20     UA4LY         599 16      
QSO:  3500 CW 2002-11-23 0404 LZ1ABC        599 20     RV4LC         599 16      
QSO:  3500 CW 2002-11-23 0404 LZ1ABC        599 20     RN6CF         599 16      
QSO:  3500 CW 2002-11-23 0405 LZ1ABC        599 20     RD3R          599 16      
QSO:  3500 CW 2002-11-23 0406 LZ1ABC        599 20     RW4WY         599 16      
QSO:  3500 CW 2002-11-23 0406 LZ1ABC        599 20     OK1FTW        599 15      
QSO:  3500 CW 2002-11-23 0406 LZ1ABC        599 20     9A7P          599 15      
QSO:  3500 CW 2002-11-23 0406 LZ1ABC        599 20     UT5UIA        599 16      
QSO:  3500 CW 2002-11-23 0407 LZ1ABC        599 20     S58MU         599 15      
QSO:  3500 CW 2002-11-23 0409 LZ1ABC        599 20     YU1HD         599 15      
QSO:  3500 CW 2002-11-23 0410 LZ1ABC        599 20     UY0ZG         599 16      
QSO:  3500 CW 2002-11-23 0411 LZ1ABC        599 20     LY2KM         599 15      
QSO:  3500 CW 2002-11-23 0411 LZ1ABC        599 20     EA7RM         599 14      
QSO:  3500 CW 2002-11-23 0412 LZ1ABC        599 20     RK3FY         599 16      
QSO:  3500 CW 2002-11-23 0413 LZ1ABC        599 20     OK1JOC        599 15      
QSO:  3500 CW 2002-11-23 0413 LZ1ABC        599 20     DL6NEE        599 14      
QSO:  3500 CW 2002-11-23 0414 LZ1ABC        599 20     OM3YCA        599 15      
QSO:  3500 CW 2002-11-23 0414 LZ1ABC        599 20     OH5CW         599 15      
QSO:  3500 CW 2002-11-23 0415 LZ1ABC        599 20     EA8BIE        599 33      
QSO:  3500 CW 2002-11-23 0416 LZ1ABC        599 20     UA3PW         599 16      
QSO:  3500 CW 2002-11-23 0416 LZ1ABC        599 20     EW8OU         599 16      
QSO:  3500 CW 2002-11-23 0416 LZ1ABC        599 20     UA3ICV        599 16      
QSO:  3500 CW 2002-11-23 0417 LZ1ABC        599 20     OM7AG         599 15      
QSO:  3500 CW 2002-11-23 0418 LZ1ABC        599 20     RU6YY         599 16      
QSO:  3500 CW 2002-11-23 0419 LZ1ABC        599 20     4Z5LO         599 20      
QSO:  3500 CW 2002-11-23 0420 LZ1ABC        599 20     UA3LBE        599 16      
QSO:  3500 CW 2002-11-23 0421 LZ1ABC        599 20     G5LP          599 14      
QSO:  3500 CW 2002-11-23 0421 LZ1ABC        599 20     EA2BNU        599 14      
QSO:  3500 CW 2002-11-23 0421 LZ1ABC        599 20     EA2AOI        599 14      
QSO:  3500 CW 2002-11-23 0422 LZ1ABC        599 20     OM4TX         599 15      
QSO:  3500 CW 2002-11-23 0423 LZ1ABC        599 20     YT1AT         599 15      
QSO:  3500 CW 2002-11-23 0423 LZ1ABC        599 20     F5VBU         599 14      
QSO:  3500 CW 2002-11-23 0423 LZ1ABC        599 20     YO8MI         599 20      
QSO:  3500 CW 2002-11-23 0424 LZ1ABC        599 20     UR5FAI        599 16      
QSO:  3500 CW 2002-11-23 0424 LZ1ABC        599 20     UR4MWU        599 16      
QSO:  3500 CW 2002-11-23 0425 LZ1ABC        599 20     DF3AX         599 14      
QSO:  3500 CW 2002-11-23 0425 LZ1ABC        599 20     OM3KHO        599 15      
QSO:  3500 CW 2002-11-23 0426 LZ1ABC        599 20     UA3LIZ        599 16      
QSO:  3500 CW 2002-11-23 0428 LZ1ABC        599 20     DL7JV         599 14      
QSO:  3500 CW 2002-11-23 0429 LZ1ABC        599 20     RA4HA         599 16      
QSO:  3500 CW 2002-11-23 0430 LZ1ABC        599 20     DL1CW         599 14      
QSO:  3500 CW 2002-11-23 0430 LZ1ABC        599 20     S52U          599 15      
QSO:  3500 CW 2002-11-23 0431 LZ1ABC        599 20     DL1JF         599 14      
QSO:  3500 CW 2002-11-23 0432 LZ1ABC        599 20     9A5I          599 15      
QSO:  3500 CW 2002-11-23 0434 LZ1ABC        599 20     ES4MUF        599 15      
QSO:  3500 CW 2002-11-23 0435 LZ1ABC        599 20     LU2O          599 13      
QSO:  3500 CW 2002-11-23 0435 LZ1ABC        599 20     IK2AHB        599 15      
QSO:  3500 CW 2002-11-23 0436 LZ1ABC        599 20     SP9DNO        599 15      
QSO:  3500 CW 2002-11-23 0436 LZ1ABC        599 20     UT5UGR        599 16      
QSO:  3500 CW 2002-11-23 0436 LZ1ABC        599 20     DL1XX         599 14      
QSO:  3500 CW 2002-11-23 0437 LZ1ABC        599 20     OH4R          599 15      
QSO:  3500 CW 2002-11-23 0438 LZ1ABC        599 20     4X6PO         599 20      
QSO:  3500 CW 2002-11-23 0439 LZ1ABC        599 20     SP7BDS        599 15      
QSO:  3500 CW 2002-11-23 0440 LZ1ABC        599 20     YU1EQ         599 15      
QSO:  3500 CW 2002-11-23 0442 LZ1ABC        599 20     HA7VP         599 15      
QSO:  3500 CW 2002-11-23 0444 LZ1ABC        599 20     EA8ZS         599 33      
QSO:  3500 CW 2002-11-23 0449 LZ1ABC        599 20     XT2DX         599 35      
QSO:  3500 CW 2002-11-23 0450 LZ1ABC        599 20     W1MK          599 05      
QSO:  7000 CW 2002-11-23 0453 LZ1ABC        599 20     LZ9W          599 20      
QSO:  7000 CW 2002-11-23 0455 LZ1ABC        599 20     N4TO          599 05      
QSO:  7000 CW 2002-11-23 0456 LZ1ABC        599 20     DF0HQ         599 14      
QSO:  7000 CW 2002-11-23 0457 LZ1ABC        599 20     KC1XX         599 05      
QSO:  7000 CW 2002-11-23 0458 LZ1ABC        599 20     W3TX          599 05      
QSO:  7000 CW 2002-11-23 0459 LZ1ABC        599 20     K1IR          599 05      
QSO:  7000 CW 2002-11-23 0500 LZ1ABC        599 20     LA7MFA        599 14      
QSO:  7000 CW 2002-11-23 0502 LZ1ABC        599 20     OL7R          599 15      
QSO:  7000 CW 2002-11-23 0504 LZ1ABC        599 20     RX6LDK        599 16      
QSO:  7000 CW 2002-11-23 0504 LZ1ABC        599 20     OK2PP         599 15      
QSO:  7000 CW 2002-11-23 0505 LZ1ABC        599 20     UA3UJE        599 16      
QSO:  7000 CW 2002-11-23 0506 LZ1ABC        599 20     OK1DCF        599 15      
QSO:  7000 CW 2002-11-23 0507 LZ1ABC        599 20     OK2BOB        599 15      
QSO:  7000 CW 2002-11-23 0508 LZ1ABC        599 20     EA1CXH        599 14      
QSO:  7000 CW 2002-11-23 0508 LZ1ABC        599 20     RV3FF         599 16      
QSO:  7000 CW 2002-11-23 0509 LZ1ABC        599 20     EU1AZ         599 16      
QSO: 14174 CW 2002-11-23 0512 LZ1ABC        599 20     UA9CLB        599 17      
QSO: 14174 CW 2002-11-23 0513 LZ1ABC        599 20     A61AJ         599 21      
QSO: 14174 CW 2002-11-23 0517 LZ1ABC        599 20     JY9QJ         599 20      
QSO: 14174 CW 2002-11-23 0518 LZ1ABC        599 20     5B/G3PMR      599 20      
QSO: 14174 CW 2002-11-23 0519 LZ1ABC        599 20     ER6A          599 16      
QSO: 14174 CW 2002-11-23 0519 LZ1ABC        599 20     RU1A          599 16      
QSO: 14174 CW 2002-11-23 0520 LZ1ABC        599 20     UA3AMZ        599 16      
QSO: 14174 CW 2002-11-23 0520 LZ1ABC        599 20     RX9SX         599 17      
QSO: 14174 CW 2002-11-23 0521 LZ1ABC        599 20     YU7CF         599 15      
QSO: 14174 CW 2002-11-23 0522 LZ1ABC        599 20     YO8KGA        599 20      
QSO: 14000 CW 2002-11-23 0523 LZ1ABC        599 20     RV9MM         599 17      
QSO: 14174 CW 2002-11-23 0524 LZ1ABC        599 20     JT1FHD        599 23      
QSO: 14174 CW 2002-11-23 0524 LZ1ABC        599 20     RA9DZ         599 17      
QSO: 14174 CW 2002-11-23 0526 LZ1ABC        599 20     RG4A          599 16      
QSO: 14174 CW 2002-11-23 0527 LZ1ABC        599 20     RZ9SWP        599 17      
QSO: 14000 CW 2002-11-23 0528 LZ1ABC        599 20     UA9FGJ        599 17      
QSO: 14174 CW 2002-11-23 0528 LZ1ABC        599 20     RU0AAB        599 18      
QSO: 14174 CW 2002-11-23 0529 LZ1ABC        599 20     RT9W          599 17      
QSO: 14174 CW 2002-11-23 0529 LZ1ABC        599 20     RV3LO         599 16      
QSO: 14174 CW 2002-11-23 0530 LZ1ABC        599 20     RL3A          599 16      
QSO: 14174 CW 2002-11-23 0530 LZ1ABC        599 20     YT7AW         599 15      
QSO: 14174 CW 2002-11-23 0531 LZ1ABC        599 20     RU6AN         599 16      
QSO: 14000 CW 2002-11-23 0531 LZ1ABC        599 20     RN6FA         599 16      
QSO: 14174 CW 2002-11-23 0532 LZ1ABC        599 20     UA9CCL        599 17      
QSO: 14174 CW 2002-11-23 0533 LZ1ABC        599 20     RU4HH         599 16      
QSO: 14174 CW 2002-11-23 0533 LZ1ABC        599 20     UA0SAD        599 18      
QSO: 14174 CW 2002-11-23 0533 LZ1ABC        599 20     LZ3UA         599 20      
QSO: 14174 CW 2002-11-23 0534 LZ1ABC        599 20     RZ3ZZ         599 16      
QSO: 14174 CW 2002-11-23 0534 LZ1ABC        599 20     LY2MM         599 15      
QSO: 14174 CW 2002-11-23 0535 LZ1ABC        599 20     RW3XZ         599 16      
QSO: 14000 CW 2002-11-23 0537 LZ1ABC        599 20     UA9JLL        599 17      
QSO: 14000 CW 2002-11-23 0537 LZ1ABC        599 20     RN9RZ         599 17      
QSO: 14174 CW 2002-11-23 0539 LZ1ABC        599 20     RW3GU         599 16      
QSO: 14174 CW 2002-11-23 0540 LZ1ABC        599 20     UA0AZ         599 18      
QSO: 14174 CW 2002-11-23 0541 LZ1ABC        599 20     RW3XB         599 16      
QSO: 14174 CW 2002-11-23 0543 LZ1ABC        599 20     RV4LA         599 16      
QSO: 14174 CW 2002-11-23 0543 LZ1ABC        599 20     DL6RAI        599 14      
QSO: 14174 CW 2002-11-23 0543 LZ1ABC        599 20     RZ9AE         599 17      
QSO: 14174 CW 2002-11-23 0544 LZ1ABC        599 20     UX9IO         599 16      
QSO: 14174 CW 2002-11-23 0544 LZ1ABC        599 20     UX7QD         599 16      
QSO: 14174 CW 2002-11-23 0545 LZ1ABC        599 20     RK1NWA        599 16      
QSO: 14000 CW 2002-11-23 0545 LZ1ABC        599 20     RA3TT         599 16      
QSO: 14174 CW 2002-11-23 0547 LZ1ABC        599 20     RK9CR         599 17      
QSO: 14174 CW 2002-11-23 0547 LZ1ABC        599 20     RW4WY         599 16      
QSO: 14174 CW 2002-11-23 0548 LZ1ABC        599 20     RV6YB         599 16      
QSO: 14174 CW 2002-11-23 0549 LZ1ABC        599 20     SP7VCA        599 15      
QSO: 14174 CW 2002-11-23 0550 LZ1ABC        599 20     UY5WA         599 16      
QSO: 14174 CW 2002-11-23 0552 LZ1ABC        599 20     UT2AU         599 16      
QSO: 14174 CW 2002-11-23 0552 LZ1ABC        599 20     UA1ONG        599 16      
QSO: 14174 CW 2002-11-23 0553 LZ1ABC        599 20     UN4PD         599 17      
QSO: 14174 CW 2002-11-23 0554 LZ1ABC        599 20     UY5YA         599 16      
QSO: 14174 CW 2002-11-23 0555 LZ1ABC        599 20     UA9BS         599 17      
QSO: 14174 CW 2002-11-23 0555 LZ1ABC        599 20     LY2DW         599 15      
QSO: 14000 CW 2002-11-23 0557 LZ1ABC        599 20     DL7UXG        599 14      
QSO: 14174 CW 2002-11-23 0600 LZ1ABC        599 20     HB9DCL        599 14      
QSO: 14174 CW 2002-11-23 0601 LZ1ABC        599 20     IK2QPR        599 15      
QSO: 14174 CW 2002-11-23 0601 LZ1ABC        599 20     RA3FD         599 16      
QSO: 14174 CW 2002-11-23 0602 LZ1ABC        599 20     UR5GFO        599 16      
QSO: 14174 CW 2002-11-23 0602 LZ1ABC        599 20     SP3FZN        599 15      
QSO: 14174 CW 2002-11-23 0603 LZ1ABC        599 20     UA9JKA        599 17      
QSO: 14174 CW 2002-11-23 0603 LZ1ABC        599 20     SM3C          599 14      
QSO: 14174 CW 2002-11-23 0603 LZ1ABC        599 20     UA1OMZ        599 16      
QSO: 14174 CW 2002-11-23 0603 LZ1ABC        599 20     UR6QA         599 16      
QSO: 14174 CW 2002-11-23 0604 LZ1ABC        599 20     EA2BNU        599 14      
QSO: 14000 CW 2002-11-23 0604 LZ1ABC        599 20     F5LMP         599 14      
QSO: 14174 CW 2002-11-23 0607 LZ1ABC        599 20     OL4M          599 15      
QSO: 14174 CW 2002-11-23 0607 LZ1ABC        599 20     N2AN          599 05      
QSO: 14174 CW 2002-11-23 0608 LZ1ABC        599 20     UA9KJ         599 17      
QSO: 14174 CW 2002-11-23 0608 LZ1ABC        599 20     G0IVG         599 14      
QSO: 14174 CW 2002-11-23 0610 LZ1ABC        599 20     RK0AYB        599 18      
QSO: 14174 CW 2002-11-23 0610 LZ1ABC        599 20     LY3BX         599 15      
QSO: 14174 CW 2002-11-23 0610 LZ1ABC        599 20     SP3DOF        599 15      
QSO: 14174 CW 2002-11-23 0611 LZ1ABC        599 20     OK1IF         599 15      
QSO: 14174 CW 2002-11-23 0612 LZ1ABC        599 20     SP2FWC        599 15      
QSO: 14174 CW 2002-11-23 0612 LZ1ABC        599 20     RA9KM         599 17      
QSO: 14174 CW 2002-11-23 0613 LZ1ABC        599 20     RA9AC         599 17      
QSO: 14174 CW 2002-11-23 0613 LZ1ABC        599 20     OZ1BMA        599 14      
QSO: 14174 CW 2002-11-23 0614 LZ1ABC        599 20     DL5YYM        599 14      
QSO: 14174 CW 2002-11-23 0614 LZ1ABC        599 20     ES6Q          599 15      
QSO: 14174 CW 2002-11-23 0614 LZ1ABC        599 20     UR4IZA        599 16      
QSO: 14174 CW 2002-11-23 0614 LZ1ABC        599 20     DJ4XD         599 14      
QSO: 14174 CW 2002-11-23 0615 LZ1ABC        599 20     IU2X          599 15      
QSO: 14174 CW 2002-11-23 0616 LZ1ABC        599 20     RA3UT         599 16      
QSO: 14000 CW 2002-11-23 0616 LZ1ABC        599 20     RV9JR         599 17      
QSO: 14174 CW 2002-11-23 0617 LZ1ABC        599 20     OZ0XX         599 14      
QSO: 14174 CW 2002-11-23 0618 LZ1ABC        599 20     OK7K          599 15      
QSO: 14174 CW 2002-11-23 0618 LZ1ABC        599 20     RU0AW         599 18      
QSO: 14174 CW 2002-11-23 0619 LZ1ABC        599 20     RK3WB/3       599 16      
QSO: 14174 CW 2002-11-23 0620 LZ1ABC        599 20     SP9KRT        599 15      
QSO: 14174 CW 2002-11-23 0620 LZ1ABC        599 20     UA3AMY        599 16      
QSO: 14174 CW 2002-11-23 0621 LZ1ABC        599 20     OZ6XR/QRP     599 14      
QSO: 14174 CW 2002-11-23 0623 LZ1ABC        599 20     TM5SIA        599 14      
QSO: 14174 CW 2002-11-23 0623 LZ1ABC        599 20     LA3BO         599 14      
QSO: 14174 CW 2002-11-23 0624 LZ1ABC        599 20     UY5ZI         599 16      
QSO: 14174 CW 2002-11-23 0624 LZ1ABC        599 20     UT8LO         599 16      
QSO: 28000 CW 2002-11-23 0625 LZ1ABC        599 20     JF3BFS        599 25      
QSO: 28000 CW 2002-11-23 0630 LZ1ABC        599 20     LZ9X          599 20      
QSO: 14000 CW 2002-11-23 0630 LZ1ABC        599 20     LU1YK         599 13      
QSO: 28000 CW 2002-11-23 0632 LZ1ABC        599 20     RA9FLW        599 17      
QSO: 28000 CW 2002-11-23 0632 LZ1ABC        599 20     RW9DX         599 17      
QSO: 28000 CW 2002-11-23 0634 LZ1ABC        599 20     JI1RXQ        599 25      
QSO: 28000 CW 2002-11-23 0635 LZ1ABC        599 20     BD5WW         599 24      
QSO: 14174 CW 2002-11-23 0635 LZ1ABC        599 20     HC8N          599 10      
QSO: 28000 CW 2002-11-23 0638 LZ1ABC        599 20     BV7FF         599 24      
QSO: 28000 CW 2002-11-23 0638 LZ1ABC        599 20     UA9OA         599 18      
QSO: 28000 CW 2002-11-23 0639 LZ1ABC        599 20     SP3DGN        599 15      
QSO: 14174 CW 2002-11-23 0639 LZ1ABC        599 20     IG9A          599 33      
QSO: 28000 CW 2002-11-23 0639 LZ1ABC        599 20     UA0AGI        599 18      
QSO: 14174 CW 2002-11-23 0640 LZ1ABC        599 20     EW8EW         599 16      
QSO: 14000 CW 2002-11-23 0640 LZ1ABC        599 20     OH0Z          599 15      
QSO: 28000 CW 2002-11-23 0640 LZ1ABC        599 20     EW2AA         599 16      
QSO: 28000 CW 2002-11-23 0641 LZ1ABC        599 20     7J1AAI        599 25      
QSO: 28000 CW 2002-11-23 0641 LZ1ABC        599 20     JH6WHN        599 25      
QSO: 14174 CW 2002-11-23 0642 LZ1ABC        599 20     LX5A          599 14      
QSO: 28000 CW 2002-11-23 0642 LZ1ABC        599 20     JH9KVF        599 25      
QSO: 28000 CW 2002-11-23 0643 LZ1ABC        599 20     IR4T          599 15      
QSO: 14174 CW 2002-11-23 0643 LZ1ABC        599 20     EA8ZS         599 33      
QSO: 28000 CW 2002-11-23 0644 LZ1ABC        599 20     RW9OWD        599 18      
QSO: 28000 CW 2002-11-23 0644 LZ1ABC        599 20     RK4WWA        599 16      
QSO: 28000 CW 2002-11-23 0645 LZ1ABC        599 20     JF2ION        599 25      
QSO: 28000 CW 2002-11-23 0646 LZ1ABC        599 20     JH1UAJ        599 25      
QSO: 28000 CW 2002-11-23 0647 LZ1ABC        599 20     JH9VSF        599 25      
QSO: 14174 CW 2002-11-23 0647 LZ1ABC        599 20     Z37A          599 15      
QSO: 28000 CW 2002-11-23 0648 LZ1ABC        599 20     JH0FUW        599 25      
QSO: 28000 CW 2002-11-23 0648 LZ1ABC        599 20     BV4YI         599 24      
QSO: 28000 CW 2002-11-23 0649 LZ1ABC        599 20     JF2IWW        599 25      
QSO: 28000 CW 2002-11-23 0650 LZ1ABC        599 20     JH4UYB        599 25      
QSO: 28000 CW 2002-11-23 0650 LZ1ABC        599 20     JR3RWB        599 25      
QSO: 14174 CW 2002-11-23 0650 LZ1ABC        599 20     OH8L          599 15      
QSO: 14174 CW 2002-11-23 0652 LZ1ABC        599 20     PT5A          599 11      
QSO: 28000 CW 2002-11-23 0654 LZ1ABC        599 20     JA1VVH        599 25      
QSO: 28000 CW 2002-11-23 0655 LZ1ABC        599 20     7K4GUR        599 25      
QSO: 28000 CW 2002-11-23 0657 LZ1ABC        599 20     JA3YBK        599 25      
QSO: 14174 CW 2002-11-23 0700 LZ1ABC        599 20     OE2BZL        599 15      
QSO: 28000 CW 2002-11-23 0700 LZ1ABC        599 20     9M2TO         599 28      
QSO: 28000 CW 2002-11-23 0701 LZ1ABC        599 20     UN7QF         599 17      
QSO: 28000 CW 2002-11-23 0702 LZ1ABC        599 20     JM1LPN        599 25      
QSO: 28000 CW 2002-11-23 0703 LZ1ABC        599 20     UP0L          599 17      
QSO: 14174 CW 2002-11-23 0705 LZ1ABC        599 20     WP2Z          599 08      
QSO: 28000 CW 2002-11-23 0706 LZ1ABC        599 20     Z36W          599 15      
QSO: 14174 CW 2002-11-23 0706 LZ1ABC        599 20     ON4APU        599 14      
QSO: 28000 CW 2002-11-23 0707 LZ1ABC        599 20     HG5C          599 15      
QSO: 14174 CW 2002-11-23 0709 LZ1ABC        599 20     JA5BJC        599 25      
QSO: 14174 CW 2002-11-23 0710 LZ1ABC        599 20     S57DX         599 15      
QSO: 14174 CW 2002-11-23 0712 LZ1ABC        599 20     9A7P          599 15      
QSO: 28000 CW 2002-11-23 0713 LZ1ABC        599 20     JE1CKA        599 25      
QSO: 28000 CW 2002-11-23 0714 LZ1ABC        599 20     JF7PHE        599 25      
QSO: 14174 CW 2002-11-23 0715 LZ1ABC        599 20     CT3EE         599 33      
QSO: 28000 CW 2002-11-23 0715 LZ1ABC        599 20     JA2IU         599 25      
QSO: 14174 CW 2002-11-23 0717 LZ1ABC        599 20     GW8K          599 14      
QSO: 28000 CW 2002-11-23 0717 LZ1ABC        599 20     JH1HGF        599 25      
QSO: 28000 CW 2002-11-23 0717 LZ1ABC        599 20     RZ4FA         599 16      
QSO: 14174 CW 2002-11-23 0720 LZ1ABC        599 20     4U1ITU        599 14      
QSO: 28000 CW 2002-11-23 0722 LZ1ABC        599 20     RO4M          599 16      
QSO: 28000 CW 2002-11-23 0723 LZ1ABC        599 20     LA6YEA        599 14      
QSO: 28000 CW 2002-11-23 0724 LZ1ABC        599 20     JI7OED        599 25      
QSO: 14174 CW 2002-11-23 0726 LZ1ABC        599 20     GM7V          599 14      
QSO: 28000 CW 2002-11-23 0727 LZ1ABC        599 20     VU2WAP        599 22      
QSO: 28000 CW 2002-11-23 0728 LZ1ABC        599 20     JA1BNW        599 25      
QSO: 28000 CW 2002-11-23 0730 LZ1ABC        599 20     RK9TWA        599 17      
QSO: 28000 CW 2002-11-23 0731 LZ1ABC        599 20     RK9CWW        599 17      
QSO: 28000 CW 2002-11-23 0731 LZ1ABC        599 20     OM5M          599 15      
QSO: 14174 CW 2002-11-23 0732 LZ1ABC        599 20     3V8BB         599 33      
QSO: 28000 CW 2002-11-23 0732 LZ1ABC        599 20     JA7YAA        599 25      
QSO: 28000 CW 2002-11-23 0733 LZ1ABC        599 20     JA1NUT        599 25      
QSO: 28000 CW 2002-11-23 0733 LZ1ABC        599 20     JA0QWO        599 25      
QSO: 28000 CW 2002-11-23 0739 LZ1ABC        599 20     JA8RWU        599 25      
QSO: 28000 CW 2002-11-23 0742 LZ1ABC        599 20     XT2DX         599 35      
QSO: 28000 CW 2002-11-23 0744 LZ1ABC        599 20     ZS4TX         599 38      
QSO: 28000 CW 2002-11-23 0745 LZ1ABC        599 20     4L8A          599 21      
QSO: 28000 CW 2002-11-23 0745 LZ1ABC        599 20     RK0AYB        599 18      
QSO: 28000 CW 2002-11-23 0746 LZ1ABC        599 20     UN4PG         599 17      
QSO: 28000 CW 2002-11-23 0747 LZ1ABC        599 20     UN5J          599 17      
QSO: 28000 CW 2002-11-23 0749 LZ1ABC        599 20     JA5DQH        599 25      
QSO: 28000 CW 2002-11-23 0753 LZ1ABC        599 20     DF0WA         599 14      
QSO: 28000 CW 2002-11-23 0803 LZ1ABC        599 20     RW4WN         599 16      
QSO: 28000 CW 2002-11-23 0803 LZ1ABC        599 20     OL5T          599 15      
QSO: 28000 CW 2002-11-23 0805 LZ1ABC        599 20     RM3C          599 16      
QSO: 28000 CW 2002-11-23 0806 LZ1ABC        599 20     HA0HW         599 15      
QSO: 28000 CW 2002-11-23 0808 LZ1ABC        599 20     RW9C          599 17      
QSO: 28000 CW 2002-11-23 0809 LZ1ABC        599 20     F5UKL         599 14      
QSO: 28000 CW 2002-11-23 0811 LZ1ABC        599 20     4X6FR         599 20      
QSO: 28000 CW 2002-11-23 0812 LZ1ABC        599 20     9H1ZA         599 15      
QSO: 28000 CW 2002-11-23 0813 LZ1ABC        599 20     EY8MM         599 17      
QSO: 28000 CW 2002-11-23 0816 LZ1ABC        599 20     A45XR         599 21      
QSO: 28000 CW 2002-11-23 0817 LZ1ABC        599 20     JA5BJC        599 25      
QSO: 28000 CW 2002-11-23 0819 LZ1ABC        599 20     SM2KAL        599 14      
QSO: 28000 CW 2002-11-23 0820 LZ1ABC        599 20     JH5FXP        599 25      
QSO: 28000 CW 2002-11-23 0821 LZ1ABC        599 20     JA3YUA        599 25      
QSO: 28000 CW 2002-11-23 0822 LZ1ABC        599 20     VU2PAI        599 22      
QSO: 28000 CW 2002-11-23 0824 LZ1ABC        599 20     OK1DOL        599 15      
QSO: 28000 CW 2002-11-23 0827 LZ1ABC        599 20     UN7EG         599 17      
QSO: 28000 CW 2002-11-23 0828 LZ1ABC        599 20     RW9IM         599 17      
QSO: 28000 CW 2002-11-23 0828 LZ1ABC        599 20     XW1IC         599 26      
QSO: 28000 CW 2002-11-23 0830 LZ1ABC        599 20     JR4GPA        599 25      
QSO: 28000 CW 2002-11-23 0830 LZ1ABC        599 20     RZ9IB         599 18      
QSO: 28000 CW 2002-11-23 0832 LZ1ABC        599 20     JV5C          599 23      
QSO: 28000 CW 2002-11-23 0833 LZ1ABC        599 20     UA9OJG        599 18      
QSO: 28000 CW 2002-11-23 0835 LZ1ABC        599 20     GI0KVQ        599 14      
QSO: 28000 CW 2002-11-23 0837 LZ1ABC        599 20     RW9SW         599 17      
QSO: 28000 CW 2002-11-23 0838 LZ1ABC        599 20     Z32XX         599 15      
QSO: 28000 CW 2002-11-23 0841 LZ1ABC        599 20     RA9XF         599 17      
QSO: 28000 CW 2002-11-23 0842 LZ1ABC        599 20     UA4CC         599 16      
QSO: 28000 CW 2002-11-23 0843 LZ1ABC        599 20     4K7Z          599 21      
QSO: 28000 CW 2002-11-23 0844 LZ1ABC        599 20     VE3YDX/R4     599 16      
QSO: 28000 CW 2002-11-23 0845 LZ1ABC        599 20     LZ9W          599 20      
QSO: 28000 CW 2002-11-23 0850 LZ1ABC        599 20     RA9SO         599 17      
QSO: 28000 CW 2002-11-23 0851 LZ1ABC        599 20     DL4NAC        599 14      
QSO: 28000 CW 2002-11-23 0852 LZ1ABC        599 20     DK0DO         599 14      
QSO: 28000 CW 2002-11-23 0853 LZ1ABC        599 20     UN7QX         599 17      
QSO: 28000 CW 2002-11-23 0854 LZ1ABC        599 20     VU3JDI        599 22      
QSO: 28000 CW 2002-11-23 0854 LZ1ABC        599 20     EA4TX         599 14      
QSO: 28000 CW 2002-11-23 0856 LZ1ABC        599 20     EA8ZS         599 33      
QSO: 28000 CW 2002-11-23 0857 LZ1ABC        599 20     S07PM         599 33      
QSO: 28000 CW 2002-11-23 0858 LZ1ABC        599 20     S57AL         599 15      
QSO: 28000 CW 2002-11-23 0858 LZ1ABC        599 20     EX2A          599 17      
QSO: 28000 CW 2002-11-23 0900 LZ1ABC        599 20     MD6V          599 14      
QSO: 28000 CW 2002-11-23 0901 LZ1ABC        599 20     UA0ACG        599 18      
QSO: 28000 CW 2002-11-23 0903 LZ1ABC        599 20     RX9SX         599 17      
QSO: 28000 CW 2002-11-23 0903 LZ1ABC        599 20     RU1A          599 16      
QSO: 28000 CW 2002-11-23 0904 LZ1ABC        599 20     OH6NJ         599 15      
QSO: 28000 CW 2002-11-23 0912 LZ1ABC        599 20     RX3DTN        599 16      
QSO: 28000 CW 2002-11-23 0914 LZ1ABC        599 20     S9WU          599 36      
QSO: 28000 CW 2002-11-23 0916 LZ1ABC        599 20     UA4FER        599 16      
QSO: 28000 CW 2002-11-23 0917 LZ1ABC        599 20     UA0ABK        599 18      
QSO: 28000 CW 2002-11-23 0918 LZ1ABC        599 20     CT1GPQ        599 14      
QSO: 28000 CW 2002-11-23 0920 LZ1ABC        599 20     RK3BX         599 16      
QSO: 28000 CW 2002-11-23 0922 LZ1ABC        599 20     OE2S          599 15      
QSO: 28000 CW 2002-11-23 0924 LZ1ABC        599 20     JT1CO         599 23      
QSO: 28000 CW 2002-11-23 0925 LZ1ABC        599 20     F5TGR         599 14      
QSO: 28000 CW 2002-11-23 0926 LZ1ABC        599 20     RK4FF         599 16      
QSO: 28000 CW 2002-11-23 0929 LZ1ABC        599 20     SK0X          599 14      
QSO: 28000 CW 2002-11-23 0931 LZ1ABC        599 20     EA2CAR        599 14      
QSO: 28000 CW 2002-11-23 0932 LZ1ABC        599 20     RK9AT         599 17      
QSO: 28000 CW 2002-11-23 0933 LZ1ABC        599 20     S9MX          599 36      
QSO: 28000 CW 2002-11-23 0934 LZ1ABC        599 20     OH6BG         599 15      
QSO: 28000 CW 2002-11-23 0938 LZ1ABC        599 20     LA7MFA        599 14      
QSO: 28000 CW 2002-11-23 0944 LZ1ABC        599 20     ZD8A          599 36      
QSO: 28000 CW 2002-11-23 0945 LZ1ABC        599 20     MU5X          599 14      
QSO: 28000 CW 2002-11-23 0946 LZ1ABC        599 20     OZ0XX         599 14      
QSO: 21000 CW 2002-11-23 0949 LZ1ABC        599 20     RW4FX         599 16      
QSO: 21000 CW 2002-11-23 0949 LZ1ABC        599 20     UX9IO         599 16      
QSO: 21000 CW 2002-11-23 0950 LZ1ABC        599 20     UN7JJ         599 17      
QSO: 21000 CW 2002-11-23 0951 LZ1ABC        599 20     YL5M          599 15      
QSO: 21000 CW 2002-11-23 0952 LZ1ABC        599 20     PI4ZLD        599 14      
QSO: 21000 CW 2002-11-23 0952 LZ1ABC        599 20     PA3AAV        599 14      
QSO: 21000 CW 2002-11-23 0952 LZ1ABC        599 20     RZ1ZZZ        599 16      
QSO: 21000 CW 2002-11-23 0953 LZ1ABC        599 20     RK4WWA        599 16      
QSO: 21000 CW 2002-11-23 0954 LZ1ABC        599 20     RZ9AE         599 17      
QSO: 21000 CW 2002-11-23 0955 LZ1ABC        599 20     DK0FFO        599 14      
QSO: 21000 CW 2002-11-23 0956 LZ1ABC        599 20     SP4GFG        599 15      
QSO: 21000 CW 2002-11-23 0957 LZ1ABC        599 20     US5MTJ        599 16      
QSO: 21000 CW 2002-11-23 0958 LZ1ABC        599 20     OK1TRM        599 15      
QSO: 21000 CW 2002-11-23 0959 LZ1ABC        599 20     UA3UNP        599 16      
QSO: 21000 CW 2002-11-23 0959 LZ1ABC        599 20     UA3DEE        599 16      
QSO: 21000 CW 2002-11-23 0959 LZ1ABC        599 20     ON6CW         599 14      
QSO: 21000 CW 2002-11-23 1002 LZ1ABC        599 20     OE8CIQ        599 15      
QSO: 21000 CW 2002-11-23 1003 LZ1ABC        599 20     EU1DX         599 16      
QSO: 21000 CW 2002-11-23 1003 LZ1ABC        599 20     UN4PG         599 17      
QSO: 21000 CW 2002-11-23 1004 LZ1ABC        599 20     TF3IRA        599 40      
QSO: 21000 CW 2002-11-23 1005 LZ1ABC        599 20     HB0/DK3KD     599 14      
QSO: 21000 CW 2002-11-23 1005 LZ1ABC        599 20     EA2URD        599 14      
QSO: 21000 CW 2002-11-23 1006 LZ1ABC        599 20     JA5DQH        599 25      
QSO: 21000 CW 2002-11-23 1007 LZ1ABC        599 20     EA9EU         599 33      
QSO: 21000 CW 2002-11-23 1007 LZ1ABC        599 20     DL5YM         599 14      
QSO: 21000 CW 2002-11-23 1008 LZ1ABC        599 20     RK4FF         599 16      
QSO: 21000 CW 2002-11-23 1009 LZ1ABC        599 20     UA9AMF        599 17      
QSO: 21000 CW 2002-11-23 1009 LZ1ABC        599 20     R5CC          599 16      
QSO: 21000 CW 2002-11-23 1010 LZ1ABC        599 20     DJ7YT         599 14      
QSO: 21000 CW 2002-11-23 1011 LZ1ABC        599 20     RW4FZ         599 16      
QSO: 21000 CW 2002-11-23 1011 LZ1ABC        599 20     EW6MM         599 16      
QSO: 21000 CW 2002-11-23 1012 LZ1ABC        599 20     YT6A          599 15      
QSO: 21000 CW 2002-11-23 1013 LZ1ABC        599 20     OL4M          599 15      
QSO: 21000 CW 2002-11-23 1013 LZ1ABC        599 20     JH3AIU        599 25      
QSO: 21000 CW 2002-11-23 1013 LZ1ABC        599 20     G3RSD         599 14      
QSO: 21000 CW 2002-11-23 1013 LZ1ABC        599 20     RU6AN         599 16      
QSO: 21000 CW 2002-11-23 1014 LZ1ABC        599 20     SP2JLR        599 15      
QSO: 21000 CW 2002-11-23 1014 LZ1ABC        599 20     SM5GNS        599 14      
QSO: 21000 CW 2002-11-23 1015 LZ1ABC        599 20     JA3YBK        599 25      
QSO: 21000 CW 2002-11-23 1018 LZ1ABC        599 20     EA8FT         599 33      
QSO: 21000 CW 2002-11-23 1018 LZ1ABC        599 20     RF3A          599 16      
QSO: 21000 CW 2002-11-23 1019 LZ1ABC        599 20     UA1AJ         599 16      
QSO: 21000 CW 2002-11-23 1020 LZ1ABC        599 20     GM4AGG        599 14      
QSO: 21000 CW 2002-11-23 1021 LZ1ABC        599 20     ES1TM         599 15      
QSO: 21000 CW 2002-11-23 1022 LZ1ABC        599 20     F5KIN         599 14      
QSO: 21000 CW 2002-11-23 1022 LZ1ABC        599 20     LY2TE         599 15      
QSO: 21000 CW 2002-11-23 1023 LZ1ABC        599 20     JK6SEW        599 25      
QSO: 21000 CW 2002-11-23 1024 LZ1ABC        599 20     IU2X          599 15      
QSO: 21000 CW 2002-11-23 1024 LZ1ABC        599 20     EA1CS         599 14      
QSO: 21000 CW 2002-11-23 1025 LZ1ABC        599 20     S53EO         599 15      
QSO: 21000 CW 2002-11-23 1026 LZ1ABC        599 20     JA3YUA        599 25      
QSO: 21000 CW 2002-11-23 1026 LZ1ABC        599 20     SQ6Z          599 15      
QSO: 21000 CW 2002-11-23 1027 LZ1ABC        599 20     YL2SM         599 15      
QSO: 21000 CW 2002-11-23 1027 LZ1ABC        599 20     RK9CWW        599 17      
QSO: 21000 CW 2002-11-23 1028 LZ1ABC        599 20     IK2UCK        599 15      
QSO: 21000 CW 2002-11-23 1029 LZ1ABC        599 20     KH0/JF3VAX    599 27      
QSO: 21000 CW 2002-11-23 1030 LZ1ABC        599 20     EA2AZ         599 14      
QSO: 21000 CW 2002-11-23 1031 LZ1ABC        599 20     EA5HQ         599 14      
QSO: 21000 CW 2002-11-23 1032 LZ1ABC        599 20     OH7M          599 15      
QSO: 21000 CW 2002-11-23 1034 LZ1ABC        599 20     3V8BB         599 33      
QSO: 21000 CW 2002-11-23 1034 LZ1ABC        599 20     UT2IY         599 16      
QSO: 21000 CW 2002-11-23 1035 LZ1ABC        599 20     RN3AY         599 16      
QSO: 21000 CW 2002-11-23 1037 LZ1ABC        599 20     4J6ZZ         599 21      
QSO: 21000 CW 2002-11-23 1037 LZ1ABC        599 20     OY1CT         599 14      
QSO: 21000 CW 2002-11-23 1039 LZ1ABC        599 20     DL4NAC        599 14      
QSO: 21000 CW 2002-11-23 1040 LZ1ABC        599 20     OZ1AA         599 14      
QSO: 21000 CW 2002-11-23 1041 LZ1ABC        599 20     A61AJ         599 21      
QSO: 21000 CW 2002-11-23 1042 LZ1ABC        599 20     LT1F          599 13      
QSO: 21000 CW 2002-11-23 1043 LZ1ABC        599 20     II1H          599 15      
QSO: 21000 CW 2002-11-23 1043 LZ1ABC        599 20     OZ5W          599 14      
QSO: 21000 CW 2002-11-23 1043 LZ1ABC        599 20     YT9X          599 15      
QSO: 21000 CW 2002-11-23 1044 LZ1ABC        599 20     LZ2L          599 20      
QSO: 21000 CW 2002-11-23 1044 LZ1ABC        599 20     9K9X          599 21      
QSO: 21000 CW 2002-11-23 1047 LZ1ABC        599 20     YI9OM         599 21      
QSO: 21000 CW 2002-11-23 1051 LZ1ABC        599 20     KP3Z          599 08      
QSO: 21000 CW 2002-11-23 1052 LZ1ABC        599 20     OK1EW         599 15      
QSO: 21000 CW 2002-11-23 1052 LZ1ABC        599 20     DL7CX         599 14      
QSO: 21000 CW 2002-11-23 1053 LZ1ABC        599 20     CT9L          599 33      
QSO: 21000 CW 2002-11-23 1053 LZ1ABC        599 20     DJ9DZ         599 14      
QSO: 21000 CW 2002-11-23 1054 LZ1ABC        599 20     EA6/DL1GGT    599 14      
QSO: 21000 CW 2002-11-23 1055 LZ1ABC        599 20     EA8ZS         599 33      
QSO: 21000 CW 2002-11-23 1055 LZ1ABC        599 20     UT7UJ         599 16      
QSO: 21000 CW 2002-11-23 1056 LZ1ABC        599 20     RK6HWM        599 16      
QSO: 21000 CW 2002-11-23 1057 LZ1ABC        599 20     LY9A          599 15      
QSO: 21000 CW 2002-11-23 1058 LZ1ABC        599 20     OK2PP         599 15      
QSO: 21000 CW 2002-11-23 1100 LZ1ABC        599 20     FY5UY         599 09      
QSO: 21000 CW 2002-11-23 1100 LZ1ABC        599 20     RZ9SWP        599 17      
QSO: 21000 CW 2002-11-23 1101 LZ1ABC        599 20     DF9ZP         599 14      
QSO: 21000 CW 2002-11-23 1101 LZ1ABC        599 20     RU9AZ         599 17      
QSO: 21000 CW 2002-11-23 1102 LZ1ABC        599 20     GW0GEI        599 14      
QSO: 21000 CW 2002-11-23 1102 LZ1ABC        599 20     SN4L          599 15      
QSO: 21000 CW 2002-11-23 1103 LZ1ABC        599 20     SM2KAL        599 14      
QSO: 21000 CW 2002-11-23 1108 LZ1ABC        599 20     OK1EP         599 15      
QSO: 21000 CW 2002-11-23 1110 LZ1ABC        599 20     EA4ML         599 14      
QSO: 21000 CW 2002-11-23 1111 LZ1ABC        599 20     EA8/OH2NC     599 33      
QSO: 21000 CW 2002-11-23 1112 LZ1ABC        599 20     SM6BSK        599 14      
QSO: 21000 CW 2002-11-23 1113 LZ1ABC        599 20     SP6GNO        599 15      
QSO: 21000 CW 2002-11-23 1114 LZ1ABC        599 20     RU4SS         599 16      
QSO: 21000 CW 2002-11-23 1114 LZ1ABC        599 20     RW4WY         599 16      
QSO: 21000 CW 2002-11-23 1115 LZ1ABC        599 20     UA9BS         599 17      
QSO: 21000 CW 2002-11-23 1115 LZ1ABC        599 20     UY1M          599 16      
QSO: 21000 CW 2002-11-23 1116 LZ1ABC        599 20     DL7UXG        599 14      
QSO: 21000 CW 2002-11-23 1116 LZ1ABC        599 20     RN6FA         599 16      
QSO: 21000 CW 2002-11-23 1118 LZ1ABC        599 20     UA3ICK        599 16      
QSO: 21000 CW 2002-11-23 1119 LZ1ABC        599 20     ES2DJ         599 15      
QSO: 21000 CW 2002-11-23 1121 LZ1ABC        599 20     EA7AJR        599 14      
QSO: 21000 CW 2002-11-23 1122 LZ1ABC        599 20     SP6AZT        599 15      
QSO: 21000 CW 2002-11-23 1123 LZ1ABC        599 20     EY8AB         599 17      
QSO: 21000 CW 2002-11-23 1124 LZ1ABC        599 20     UN7JX         599 17      
QSO: 21000 CW 2002-11-23 1125 LZ1ABC        599 20     OH0V          599 15      
QSO: 21000 CW 2002-11-23 1125 LZ1ABC        599 20     RV1AT         599 16      
QSO: 21000 CW 2002-11-23 1127 LZ1ABC        599 20     VK4EMM        599 30      
QSO: 21000 CW 2002-11-23 1129 LZ1ABC        599 20     EA1AK/7       599 14      
QSO: 21000 CW 2002-11-23 1130 LZ1ABC        599 20     VY2TT         599 05      
QSO: 21000 CW 2002-11-23 1135 LZ1ABC        599 20     YV6AZC        599 09      
QSO: 21000 CW 2002-11-23 1140 LZ1ABC        599 20     AA1K          599 05      
QSO: 21000 CW 2002-11-23 1141 LZ1ABC        599 20     RX9SX         599 17      
QSO: 21000 CW 2002-11-23 1142 LZ1ABC        599 20     KQ2M          599 05      
QSO: 21000 CW 2002-11-23 1145 LZ1ABC        599 20     RW2F          599 15      
QSO: 21000 CW 2002-11-23 1146 LZ1ABC        599 20     N1IX          599 05      
QSO: 21000 CW 2002-11-23 1146 LZ1ABC        599 20     DK7KU         599 14      
QSO: 21000 CW 2002-11-23 1147 LZ1ABC        599 20     IZ2AVK        599 15      
QSO: 21000 CW 2002-11-23 1148 LZ1ABC        599 20     HA8IH         599 15      
QSO: 21000 CW 2002-11-23 1149 LZ1ABC        599 20     W3LPL         599 05      
QSO: 21000 CW 2002-11-23 1149 LZ1ABC        599 20     LX5A          599 14      
QSO: 28000 CW 2002-11-23 1150 LZ1ABC        599 20     P40W          599 09      
QSO: 21000 CW 2002-11-23 1150 LZ1ABC        599 20     RK0AYB        599 18      
QSO: 21000 CW 2002-11-23 1150 LZ1ABC        599 20     N2RM          599 05      
QSO: 21000 CW 2002-11-23 1151 LZ1ABC        599 20     KQ3F          599 05      
QSO: 21000 CW 2002-11-23 1152 LZ1ABC        599 20     N4RS          599 05      
QSO: 28000 CW 2002-11-23 1153 LZ1ABC        599 20     CT3EE         599 33      
QSO: 21000 CW 2002-11-23 1153 LZ1ABC        599 20     YL2KO         599 15      
QSO: 21000 CW 2002-11-23 1154 LZ1ABC        599 20     K4ZW          599 05      
QSO: 28000 CW 2002-11-23 1154 LZ1ABC        599 20     EI5DI         599 14      
QSO: 21000 CW 2002-11-23 1155 LZ1ABC        599 20     HC8N          599 10      
QSO: 21000 CW 2002-11-23 1155 LZ1ABC        599 20     N2LT          599 05      
QSO: 21000 CW 2002-11-23 1156 LZ1ABC        599 20     OZ0XX         599 14      
QSO: 21000 CW 2002-11-23 1201 LZ1ABC        599 20     J3A           599 08      
QSO: 21000 CW 2002-11-23 1202 LZ1ABC        599 20     LZ9W          599 20      
QSO: 21000 CW 2002-11-23 1203 LZ1ABC        599 20     LA7MFA        599 14      
QSO: 28000 CW 2002-11-23 1203 LZ1ABC        599 20     GX6YB         599 14      
QSO: 21000 CW 2002-11-23 1204 LZ1ABC        599 20     ZD8A          599 36      
QSO: 21000 CW 2002-11-23 1205 LZ1ABC        599 20     CT1BQH        599 14      
QSO: 21000 CW 2002-11-23 1205 LZ1ABC        599 20     A45XR         599 21      
QSO: 21000 CW 2002-11-23 1207 LZ1ABC        599 20     VE1OP         599 05      
QSO: 21000 CW 2002-11-23 1208 LZ1ABC        599 20     US7IGF        599 16      
QSO: 21000 CW 2002-11-23 1209 LZ1ABC        599 20     K4RV          599 05      
QSO: 28000 CW 2002-11-23 1210 LZ1ABC        599 20     CX5BW         599 13      
QSO: 21000 CW 2002-11-23 1211 LZ1ABC        599 20     M5FUN         599 14      
QSO: 21000 CW 2002-11-23 1211 LZ1ABC        599 20     VR2BG         599 24      
QSO: 21000 CW 2002-11-23 1212 LZ1ABC        599 20     RX3RZ         599 16      
QSO: 28000 CW 2002-11-23 1214 LZ1ABC        599 20     9A1A          599 15      
QSO: 21000 CW 2002-11-23 1214 LZ1ABC        599 20     UT4IZL        599 16      
QSO: 21000 CW 2002-11-23 1215 LZ1ABC        599 20     DL3BZZ        599 14      
QSO: 21000 CW 2002-11-23 1215 LZ1ABC        599 20     VE2IM         599 02      
QSO: 21000 CW 2002-11-23 1216 LZ1ABC        599 20     RA3AUM        599 16      
QSO: 21000 CW 2002-11-23 1217 LZ1ABC        599 20     RA9JR         599 17      
QSO: 28000 CW 2002-11-23 1218 LZ1ABC        599 20     CN2R          599 33      
QSO: 21000 CW 2002-11-23 1218 LZ1ABC        599 20     4U1ITU        599 14      
QSO: 28000 CW 2002-11-23 1220 LZ1ABC        599 20     EA6IB         599 14      
QSO: 28000 CW 2002-11-23 1221 LZ1ABC        599 20     PX2W          599 11      
QSO: 28000 CW 2002-11-23 1222 LZ1ABC        599 20     A61AJ         599 21      
QSO: 21000 CW 2002-11-23 1222 LZ1ABC        599 20     HP1XVH        599 07      
QSO: 21000 CW 2002-11-23 1223 LZ1ABC        599 20     OH1F          599 15      
QSO: 21000 CW 2002-11-23 1227 LZ1ABC        599 20     9A1A          599 15      
QSO: 21000 CW 2002-11-23 1227 LZ1ABC        599 20     OM0M          599 15      
QSO: 21000 CW 2002-11-23 1228 LZ1ABC        599 20     N9RV          599 04      
QSO: 21000 CW 2002-11-23 1229 LZ1ABC        599 20     W2XL          599 05      
QSO: 21000 CW 2002-11-23 1230 LZ1ABC        599 20     W1EQ          599 05      
QSO: 21000 CW 2002-11-23 1231 LZ1ABC        599 20     W3OV          599 05      
QSO: 21000 CW 2002-11-23 1233 LZ1ABC        599 20     LY7A          599 15      
QSO: 21000 CW 2002-11-23 1233 LZ1ABC        599 20     OT2A          599 14      
QSO: 21000 CW 2002-11-23 1234 LZ1ABC        599 20     DJ7TO         599 14      
QSO: 21000 CW 2002-11-23 1237 LZ1ABC        599 20     C53M          599 35      
QSO: 21000 CW 2002-11-23 1237 LZ1ABC        599 20     PI4DEC        599 14      
QSO: 21000 CW 2002-11-23 1239 LZ1ABC        599 20     MD4K          599 14      
QSO: 21000 CW 2002-11-23 1240 LZ1ABC        599 20     K5ZD          599 05      
QSO: 21000 CW 2002-11-23 1241 LZ1ABC        599 20     K8CC          599 04      
QSO: 21000 CW 2002-11-23 1241 LZ1ABC        599 20     N2NT          599 05      
QSO: 21000 CW 2002-11-23 1242 LZ1ABC        599 20     LY7Z          599 15      
QSO: 28000 CW 2002-11-23 1242 LZ1ABC        599 20     D44TD         599 35      
QSO: 21000 CW 2002-11-23 1244 LZ1ABC        599 20     HQ3J          599 07      
QSO: 21000 CW 2002-11-23 1245 LZ1ABC        599 20     W2RE          599 05      
QSO: 28000 CW 2002-11-23 1246 LZ1ABC        599 20     HC8N          599 10      
QSO: 21000 CW 2002-11-23 1246 LZ1ABC        599 20     W4AN          599 05      
QSO: 21000 CW 2002-11-23 1246 LZ1ABC        599 20     K4OGG         599 05      
QSO: 21000 CW 2002-11-23 1247 LZ1ABC        599 20     MW5A          599 14      
QSO: 21000 CW 2002-11-23 1248 LZ1ABC        599 20     N4IR          599 05      
QSO: 21000 CW 2002-11-23 1248 LZ1ABC        599 20     HB9CRV        599 14      
QSO: 21000 CW 2002-11-23 1249 LZ1ABC        599 20     KP2/OK1TN     599 08      
QSO: 21000 CW 2002-11-23 1250 LZ1ABC        599 20     PA1CC         599 14      
QSO: 21000 CW 2002-11-23 1251 LZ1ABC        599 20     K3ZM          599 05      
QSO: 21000 CW 2002-11-23 1251 LZ1ABC        599 20     K8LX          599 04      
QSO: 21000 CW 2002-11-23 1252 LZ1ABC        599 20     CT3KU         599 33      
QSO: 21000 CW 2002-11-23 1254 LZ1ABC        599 20     W2YC          599 05      
QSO: 21000 CW 2002-11-23 1256 LZ1ABC        599 20     IK2WXQ        599 15      
QSO: 21000 CW 2002-11-23 1257 LZ1ABC        599 20     UN9LY         599 17      
QSO: 28000 CW 2002-11-23 1257 LZ1ABC        599 20     YU1LA         599 15      
QSO: 21000 CW 2002-11-23 1257 LZ1ABC        599 20     K1HT          599 05      
QSO: 21000 CW 2002-11-23 1258 LZ1ABC        599 20     H2E           599 20      
QSO: 21000 CW 2002-11-23 1258 LZ1ABC        599 20     VE3DC         599 04      
QSO: 28000 CW 2002-11-23 1302 LZ1ABC        599 20     6V6U          599 35      
QSO: 28000 CW 2002-11-23 1305 LZ1ABC        599 20     N2NU          599 05      
QSO: 21000 CW 2002-11-23 1305 LZ1ABC        599 20     DA0FF         599 14      
QSO: 21000 CW 2002-11-23 1306 LZ1ABC        599 20     NY4A          599 05      
QSO: 21000 CW 2002-11-23 1306 LZ1ABC        599 20     W2FU          599 05      
QSO: 21000 CW 2002-11-23 1307 LZ1ABC        599 20     G5X           599 14      
QSO: 21000 CW 2002-11-23 1308 LZ1ABC        599 20     TM2Y          599 14      
QSO: 21000 CW 2002-11-23 1308 LZ1ABC        599 20     K3CR          599 05      
QSO: 28000 CW 2002-11-23 1309 LZ1ABC        599 20     PJ4W          599 09      
QSO: 21000 CW 2002-11-23 1310 LZ1ABC        599 20     KC1XX         599 05      
QSO: 21000 CW 2002-11-23 1311 LZ1ABC        599 20     K3ZO          599 05      
QSO: 21000 CW 2002-11-23 1312 LZ1ABC        599 20     K4JA          599 05      
QSO: 21000 CW 2002-11-23 1312 LZ1ABC        599 20     W9RE          599 04      
QSO: 21000 CW 2002-11-23 1313 LZ1ABC        599 20     K9NS          599 04      
QSO: 21000 CW 2002-11-23 1315 LZ1ABC        599 20     T96Q          599 15      
QSO: 21000 CW 2002-11-23 1315 LZ1ABC        599 20     YZ1AU         599 15      
QSO: 21000 CW 2002-11-23 1316 LZ1ABC        599 20     J75A          599 08      
QSO: 21000 CW 2002-11-23 1317 LZ1ABC        599 20     WW3S          599 05      
QSO: 21000 CW 2002-11-23 1319 LZ1ABC        599 20     WD4K          599 04      
QSO: 21000 CW 2002-11-23 1321 LZ1ABC        599 20     EC8ABC        599 33      
QSO: 21000 CW 2002-11-23 1323 LZ1ABC        599 20     SN8F          599 15      
QSO: 21000 CW 2002-11-23 1323 LZ1ABC        599 20     WE2F          599 05      
QSO: 21000 CW 2002-11-23 1324 LZ1ABC        599 20     NN3Q          599 05      
QSO: 28000 CW 2002-11-23 1324 LZ1ABC        599 20     SV1ENG        599 20      
QSO: 21000 CW 2002-11-23 1324 LZ1ABC        599 20     VE3ANX        599 04      
QSO: 21000 CW 2002-11-23 1325 LZ1ABC        599 20     RA9DZ         599 17      
QSO: 21000 CW 2002-11-23 1326 LZ1ABC        599 20     W4NF          599 05      
QSO: 21000 CW 2002-11-23 1327 LZ1ABC        599 20     UT1AA         599 16      
QSO: 21000 CW 2002-11-23 1327 LZ1ABC        599 20     ON4ADZ        599 14      
QSO: 28000 CW 2002-11-23 1329 LZ1ABC        599 20     GM7V          599 14      
QSO: 21000 CW 2002-11-23 1329 LZ1ABC        599 20     DF2PN         599 14      
QSO: 21000 CW 2002-11-23 1332 LZ1ABC        599 20     OH2BAH        599 15      
QSO: 28000 CW 2002-11-23 1332 LZ1ABC        599 20     ZF1A          599 08      
QSO: 21000 CW 2002-11-23 1332 LZ1ABC        599 20     VE1JF         599 05      
QSO: 28000 CW 2002-11-23 1333 LZ1ABC        599 20     EN7Z          599 16      
QSO: 21000 CW 2002-11-23 1333 LZ1ABC        599 20     W1UK          599 05      
QSO: 21000 CW 2002-11-23 1336 LZ1ABC        599 20     PJ2T          599 09      
QSO: 28000 CW 2002-11-23 1336 LZ1ABC        599 20     VP5V          599 08      
QSO: 21000 CW 2002-11-23 1337 LZ1ABC        599 20     K2ONP         599 05      
QSO: 28000 CW 2002-11-23 1340 LZ1ABC        599 20     T94DU         599 15      
QSO: 21000 CW 2002-11-23 1341 LZ1ABC        599 20     ON4AAM        599 14      
QSO: 21000 CW 2002-11-23 1342 LZ1ABC        599 20     OM7M          599 15      
QSO: 28000 CW 2002-11-23 1344 LZ1ABC        599 20     FS/KM3T       599 08      
QSO: 21000 CW 2002-11-23 1344 LZ1ABC        599 20     HB9ARF        599 14      
QSO: 28000 CW 2002-11-23 1345 LZ1ABC        599 20     VE3AT         599 04      
QSO: 21000 CW 2002-11-23 1345 LZ1ABC        599 20     NO4S          599 04      
QSO: 21000 CW 2002-11-23 1346 LZ1ABC        599 20     S57O          599 15      
QSO: 21000 CW 2002-11-23 1346 LZ1ABC        599 20     LX7I          599 14      
QSO: 28000 CW 2002-11-23 1348 LZ1ABC        599 20     K3WU          599 05      
QSO: 28000 CW 2002-11-23 1349 LZ1ABC        599 20     N1EU          599 05      
QSO: 28000 CW 2002-11-23 1349 LZ1ABC        599 20     NR3X          599 05      
QSO: 28000 CW 2002-11-23 1350 LZ1ABC        599 20     KS1J          599 05      
QSO: 28000 CW 2002-11-23 1351 LZ1ABC        599 20     N9AG          599 04      
QSO: 28000 CW 2002-11-23 1352 LZ1ABC        599 20     W2RE          599 05      
QSO: 28000 CW 2002-11-23 1353 LZ1ABC        599 20     W3GG          599 05      
QSO: 28000 CW 2002-11-23 1358 LZ1ABC        599 20     EU3AR         599 16      
QSO: 21000 CW 2002-11-23 1400 LZ1ABC        599 20     S07PM         599 33      
QSO: 28000 CW 2002-11-23 1402 LZ1ABC        599 20     W4ZV          599 05      
QSO: 28000 CW 2002-11-23 1402 LZ1ABC        599 20     KB1H          599 05      
QSO: 28000 CW 2002-11-23 1403 LZ1ABC        599 20     P40A          599 09      
QSO: 28000 CW 2002-11-23 1404 LZ1ABC        599 20     W1KM          599 05      
QSO: 28000 CW 2002-11-23 1406 LZ1ABC        599 20     K4WX          599 04      
QSO: 28000 CW 2002-11-23 1406 LZ1ABC        599 20     KT8X          599 04      
QSO: 28000 CW 2002-11-23 1407 LZ1ABC        599 20     F6KSV         599 14      
QSO: 21000 CW 2002-11-23 1407 LZ1ABC        599 20     YO4ATW        599 20      
QSO: 28000 CW 2002-11-23 1408 LZ1ABC        599 20     KT1V          599 05      
QSO: 28000 CW 2002-11-23 1409 LZ1ABC        599 20     AA4NU         599 04      
QSO: 21000 CW 2002-11-23 1410 LZ1ABC        599 20     GI4SNC        599 14      
QSO: 28000 CW 2002-11-23 1410 LZ1ABC        599 20     K1IR          599 05      
QSO: 28000 CW 2002-11-23 1411 LZ1ABC        599 20     MW5A          599 14      
QSO: 28000 CW 2002-11-23 1412 LZ1ABC        599 20     EI4BZ         599 14      
QSO: 28000 CW 2002-11-23 1412 LZ1ABC        599 20     K1KI          599 05      
QSO: 28000 CW 2002-11-23 1413 LZ1ABC        599 20     K5ZD          599 05      
QSO: 14174 CW 2002-11-23 1413 LZ1ABC        599 20     XT2DX         599 35      
QSO: 28000 CW 2002-11-23 1414 LZ1ABC        599 20     W3BGN         599 05      
QSO: 28000 CW 2002-11-23 1414 LZ1ABC        599 20     K2UA          599 05      
QSO: 14174 CW 2002-11-23 1416 LZ1ABC        599 20     VK4DX         599 30      
QSO: 28000 CW 2002-11-23 1416 LZ1ABC        599 20     IU9S          599 15      
QSO: 28000 CW 2002-11-23 1416 LZ1ABC        599 20     VA3UA         599 04      
QSO: 28000 CW 2002-11-23 1417 LZ1ABC        599 20     K4JA          599 05      
QSO: 28000 CW 2002-11-23 1417 LZ1ABC        599 20     K1AR          599 05      
QSO: 28000 CW 2002-11-23 1417 LZ1ABC        599 20     N3RS          599 05      
QSO: 28000 CW 2002-11-23 1418 LZ1ABC        599 20     YI9OM         599 21      
QSO: 28000 CW 2002-11-23 1419 LZ1ABC        599 20     AA1K          599 05      
QSO: 28000 CW 2002-11-23 1423 LZ1ABC        599 20     WP2Z          599 08      
QSO: 28000 CW 2002-11-23 1424 LZ1ABC        599 20     VE3DC         599 04      
QSO: 28000 CW 2002-11-23 1425 LZ1ABC        599 20     N2CU          599 05      
QSO: 28000 CW 2002-11-23 1427 LZ1ABC        599 20     W2YE          599 05      
QSO: 28000 CW 2002-11-23 1427 LZ1ABC        599 20     K2PS          599 05      
QSO: 28000 CW 2002-11-23 1427 LZ1ABC        599 20     K8AZ          599 04      
QSO: 28000 CW 2002-11-23 1428 LZ1ABC        599 20     LO7H          599 13      
QSO: 28000 CW 2002-11-23 1429 LZ1ABC        599 20     PT5A          599 11      
QSO: 14174 CW 2002-11-23 1429 LZ1ABC        599 20     PI4ZLD        599 14      
QSO: 28000 CW 2002-11-23 1429 LZ1ABC        599 20     K1RV          599 05      
QSO: 28000 CW 2002-11-23 1430 LZ1ABC        599 20     K5GO          599 04      
QSO: 28000 CW 2002-11-23 1431 LZ1ABC        599 20     VE2IM         599 02      
QSO: 28000 CW 2002-11-23 1431 LZ1ABC        599 20     WB4TDH        599 05      
QSO: 14174 CW 2002-11-23 1432 LZ1ABC        599 20     XW1IC         599 26      
QSO: 28000 CW 2002-11-23 1432 LZ1ABC        599 20     VE3ANX        599 04      
QSO: 14000 CW 2002-11-23 1433 LZ1ABC        599 20     HA7A          599 15      
QSO: 28000 CW 2002-11-23 1434 LZ1ABC        599 20     K1NU          599 05      
QSO: 28000 CW 2002-11-23 1434 LZ1ABC        599 20     W4RM          599 05      
QSO: 28000 CW 2002-11-23 1435 LZ1ABC        599 20     K1TTT         599 05      
QSO: 28000 CW 2002-11-23 1435 LZ1ABC        599 20     G3TXF         599 14      
QSO: 28000 CW 2002-11-23 1436 LZ1ABC        599 20     LT1F          599 13      
QSO: 14000 CW 2002-11-23 1436 LZ1ABC        599 20     SV5RDS        599 20      
QSO: 28000 CW 2002-11-23 1438 LZ1ABC        599 20     N4GN          599 05      
QSO: 28000 CW 2002-11-23 1438 LZ1ABC        599 20     K9NS          599 04      
QSO: 14174 CW 2002-11-23 1439 LZ1ABC        599 20     OM3NA         599 15      
QSO: 28000 CW 2002-11-23 1440 LZ1ABC        599 20     TM7XX         599 14      
QSO: 28000 CW 2002-11-23 1440 LZ1ABC        599 20     WE2F          599 05      
QSO: 28000 CW 2002-11-23 1442 LZ1ABC        599 20     N2RM          599 05      
QSO: 28000 CW 2002-11-23 1443 LZ1ABC        599 20     KQ3F          599 05      
QSO: 28000 CW 2002-11-23 1443 LZ1ABC        599 20     KP3Z          599 08      
QSO: 14174 CW 2002-11-23 1444 LZ1ABC        599 20     EI6FR         599 14      
QSO: 28000 CW 2002-11-23 1444 LZ1ABC        599 20     GM4SID        599 14      
QSO: 28000 CW 2002-11-23 1445 LZ1ABC        599 20     K5MA          599 05      
QSO: 28000 CW 2002-11-23 1446 LZ1ABC        599 20     WN9O          599 04      
QSO: 28000 CW 2002-11-23 1447 LZ1ABC        599 20     G4IIY         599 14      
QSO: 28000 CW 2002-11-23 1447 LZ1ABC        599 20     G3TBK         599 14      
QSO: 28000 CW 2002-11-23 1448 LZ1ABC        599 20     N4WW          599 05      
QSO: 28000 CW 2002-11-23 1448 LZ1ABC        599 20     K2LE          599 05      
QSO: 28000 CW 2002-11-23 1449 LZ1ABC        599 20     N2LT          599 05      
QSO: 28000 CW 2002-11-23 1450 LZ1ABC        599 20     N4TO          599 05      
QSO:  7000 CW 2002-11-23 1452 LZ1ABC        599 20     OH0NL         599 15      
QSO: 28000 CW 2002-11-23 1452 LZ1ABC        599 20     W4AN          599 05      
QSO:  7000 CW 2002-11-23 1453 LZ1ABC        599 20     HA8SU         599 15      
QSO: 28000 CW 2002-11-23 1453 LZ1ABC        599 20     W9RE          599 04      
QSO: 28000 CW 2002-11-23 1454 LZ1ABC        599 20     M2A           599 14      
QSO: 28000 CW 2002-11-23 1455 LZ1ABC        599 20     N2AN          599 05      
QSO: 28000 CW 2002-11-23 1455 LZ1ABC        599 20     K5GN          599 04      
QSO: 28000 CW 2002-11-23 1456 LZ1ABC        599 20     N4ZR          599 05      
QSO: 28000 CW 2002-11-23 1456 LZ1ABC        599 20     G3WUX         599 14      
QSO: 28000 CW 2002-11-23 1457 LZ1ABC        599 20     G0ORH         599 14      
QSO:  7000 CW 2002-11-23 1458 LZ1ABC        599 20     PI4ZLD        599 14      
QSO: 28000 CW 2002-11-23 1458 LZ1ABC        599 20     NY4A          599 05      
QSO: 28000 CW 2002-11-23 1500 LZ1ABC        599 20     K8CC          599 04      
QSO:  7000 CW 2002-11-23 1501 LZ1ABC        599 20     SP9W          599 15      
QSO: 28000 CW 2002-11-23 1501 LZ1ABC        599 20     K2NG          599 05      
QSO: 28000 CW 2002-11-23 1501 LZ1ABC        599 20     K3WW          599 05      
QSO:  7000 CW 2002-11-23 1502 LZ1ABC        599 20     9A1A          599 15      
QSO: 28000 CW 2002-11-23 1502 LZ1ABC        599 20     K3CR          599 05      
QSO: 28000 CW 2002-11-23 1502 LZ1ABC        599 20     N2MM          599 05      
QSO: 28000 CW 2002-11-23 1504 LZ1ABC        599 20     GJ2A          599 14      
QSO: 28000 CW 2002-11-23 1506 LZ1ABC        599 20     K5NZ          599 04      
QSO: 28000 CW 2002-11-23 1506 LZ1ABC        599 20     W1GD          599 05      
QSO: 28000 CW 2002-11-23 1509 LZ1ABC        599 20     HT9T          599 07      
QSO: 28000 CW 2002-11-23 1509 LZ1ABC        599 20     W3IUU         599 05      
QSO: 28000 CW 2002-11-23 1511 LZ1ABC        599 20     K3MD          599 05      
QSO: 28000 CW 2002-11-23 1512 LZ1ABC        599 20     J75A          599 08      
QSO: 28000 CW 2002-11-23 1515 LZ1ABC        599 20     NE3F          599 05      
QSO: 28000 CW 2002-11-23 1515 LZ1ABC        599 20     K4ZW          599 05      
QSO: 28000 CW 2002-11-23 1518 LZ1ABC        599 20     EA4DRV        599 14      
QSO: 28000 CW 2002-11-23 1518 LZ1ABC        599 20     K4AMC         599 04      
QSO: 28000 CW 2002-11-23 1519 LZ1ABC        599 20     K5RX          599 04      
QSO: 28000 CW 2002-11-23 1520 LZ1ABC        599 20     N2NT          599 05      
QSO: 28000 CW 2002-11-23 1521 LZ1ABC        599 20     W1ECT         599 05      
QSO: 21000 CW 2002-11-23 1522 LZ1ABC        599 20     7S2E          599 14      
QSO: 21000 CW 2002-11-23 1523 LZ1ABC        599 20     EN7Z          599 16      
QSO: 21000 CW 2002-11-23 1523 LZ1ABC        599 20     K4EA          599 05      
QSO: 21000 CW 2002-11-23 1524 LZ1ABC        599 20     ER6A          599 16      
QSO: 21000 CW 2002-11-23 1524 LZ1ABC        599 20     N3AD          599 05      
QSO: 21000 CW 2002-11-23 1526 LZ1ABC        599 20     VO1TA         599 05      
QSO: 21000 CW 2002-11-23 1527 LZ1ABC        599 20     F8AAN         599 14      
QSO: 21000 CW 2002-11-23 1529 LZ1ABC        599 20     K2PS          599 05      
QSO: 21000 CW 2002-11-23 1531 LZ1ABC        599 20     N4WW          599 05      
QSO: 21000 CW 2002-11-23 1532 LZ1ABC        599 20     KB1H          599 05      
QSO: 21000 CW 2002-11-23 1533 LZ1ABC        599 20     WP2Z          599 08      
QSO: 21000 CW 2002-11-23 1534 LZ1ABC        599 20     YO9WF         599 20      
QSO: 21000 CW 2002-11-23 1535 LZ1ABC        599 20     CN8YR         599 33      
QSO: 21000 CW 2002-11-23 1536 LZ1ABC        599 20     W1WAI         599 05      
QSO: 21000 CW 2002-11-23 1537 LZ1ABC        599 20     N0FW          599 04      
QSO: 21000 CW 2002-11-23 1537 LZ1ABC        599 20     KZ5D          599 04      
QSO: 21000 CW 2002-11-23 1540 LZ1ABC        599 20     N6RO          599 03      
QSO: 21000 CW 2002-11-23 1541 LZ1ABC        599 20     KV0Q          599 04      
QSO: 28000 CW 2002-11-23 1542 LZ1ABC        599 20     ZP6T          599 11      
QSO: 21000 CW 2002-11-23 1542 LZ1ABC        599 20     KT0R          599 04      
QSO: 21000 CW 2002-11-23 1543 LZ1ABC        599 20     W6YA          599 03      
QSO: 21000 CW 2002-11-23 1544 LZ1ABC        599 20     K4LTA         599 05      
QSO: 21000 CW 2002-11-23 1546 LZ1ABC        599 20     W8AV          599 04      
QSO: 21000 CW 2002-11-23 1547 LZ1ABC        599 20     K9MA          599 04      
QSO: 21000 CW 2002-11-23 1548 LZ1ABC        599 20     W0SD          599 04      
QSO: 21000 CW 2002-11-23 1549 LZ1ABC        599 20     N2AN          599 05      
QSO: 21000 CW 2002-11-23 1549 LZ1ABC        599 20     K5YA          599 04      
QSO: 21000 CW 2002-11-23 1550 LZ1ABC        599 20     K7KU          599 04      
QSO: 28000 CW 2002-11-23 1551 LZ1ABC        599 20     C56JHF        599 35      
QSO: 21000 CW 2002-11-23 1551 LZ1ABC        599 20     W4NZ          599 04      
QSO: 21000 CW 2002-11-23 1553 LZ1ABC        599 20     W0ZA          599 04      
QSO: 21000 CW 2002-11-23 1555 LZ1ABC        599 20     W4MYA         599 05      
QSO: 28000 CW 2002-11-23 1556 LZ1ABC        599 20     H2G           599 20      
QSO: 21000 CW 2002-11-23 1556 LZ1ABC        599 20     G4KIV         599 14      
QSO: 21000 CW 2002-11-23 1557 LZ1ABC        599 20     W6EEN         599 03      
QSO: 21000 CW 2002-11-23 1557 LZ1ABC        599 20     K0RF          599 04      
QSO: 14174 CW 2002-11-23 1600 LZ1ABC        599 20     DF0HQ         599 14      
QSO: 14174 CW 2002-11-23 1602 LZ1ABC        599 20     RU9WZ         599 17      
QSO: 21000 CW 2002-11-23 1604 LZ1ABC        599 20     P40W          599 09      
QSO: 14174 CW 2002-11-23 1606 LZ1ABC        599 20     RA9WW         599 17      
QSO: 14174 CW 2002-11-23 1610 LZ1ABC        599 20     PJ2T          599 09      
QSO: 14174 CW 2002-11-23 1610 LZ1ABC        599 20     JY9NX         599 20      
QSO: 14174 CW 2002-11-23 1614 LZ1ABC        599 20     RK9CWW        599 17      
QSO: 14174 CW 2002-11-23 1615 LZ1ABC        599 20     II2ARI        599 15      
QSO: 21000 CW 2002-11-23 1615 LZ1ABC        599 20     PT5A          599 11      
QSO: 14174 CW 2002-11-23 1617 LZ1ABC        599 20     J3A           599 08      
QSO: 14174 CW 2002-11-23 1618 LZ1ABC        599 20     SL2ZA         599 14      
QSO: 14174 CW 2002-11-23 1619 LZ1ABC        599 20     UN9LN         599 17      
QSO: 14174 CW 2002-11-23 1624 LZ1ABC        599 20     N6XI          599 03      
QSO: 14174 CW 2002-11-23 1625 LZ1ABC        599 20     A45XR         599 21      
QSO: 14174 CW 2002-11-23 1627 LZ1ABC        599 20     8S5A          599 14      
QSO: 14174 CW 2002-11-23 1629 LZ1ABC        599 20     K9NS          599 04      
QSO: 14174 CW 2002-11-23 1632 LZ1ABC        599 20     W0AIH         599 04      
QSO: 21000 CW 2002-11-23 1634 LZ1ABC        599 20     W3AP          599 05      
QSO: 21000 CW 2002-11-23 1635 LZ1ABC        599 20     K1IR          599 05      
QSO: 21000 CW 2002-11-23 1636 LZ1ABC        599 20     K8AZ          599 04      
QSO: 21000 CW 2002-11-23 1638 LZ1ABC        599 20     K2UA          599 05      
QSO: 21000 CW 2002-11-23 1639 LZ1ABC        599 20     GM7V          599 14      
QSO: 21000 CW 2002-11-23 1640 LZ1ABC        599 20     K1KD          599 05      
QSO: 21000 CW 2002-11-23 1640 LZ1ABC        599 20     GX6YB         599 14      
QSO: 21000 CW 2002-11-23 1642 LZ1ABC        599 20     N6AR          599 05      
QSO: 21000 CW 2002-11-23 1644 LZ1ABC        599 20     W3PP          599 05      
QSO: 21000 CW 2002-11-23 1645 LZ1ABC        599 20     W4RM          599 05      
QSO: 21000 CW 2002-11-23 1646 LZ1ABC        599 20     K1NU          599 05      
QSO: 21000 CW 2002-11-23 1647 LZ1ABC        599 20     W9WI          599 04      
QSO: 21000 CW 2002-11-23 1648 LZ1ABC        599 20     SP5WA         599 15      
QSO: 21000 CW 2002-11-23 1649 LZ1ABC        599 20     KC1F          599 05      
QSO: 21000 CW 2002-11-23 1650 LZ1ABC        599 20     K2YWE         599 05      
QSO: 21000 CW 2002-11-23 1651 LZ1ABC        599 20     N1UR          599 05      
QSO: 21000 CW 2002-11-23 1652 LZ1ABC        599 20     VO1MP         599 05      
QSO: 21000 CW 2002-11-23 1653 LZ1ABC        599 20     W1WEF         599 05      
QSO: 21000 CW 2002-11-23 1654 LZ1ABC        599 20     W2/UR5DEM     599 05      
QSO: 21000 CW 2002-11-23 1656 LZ1ABC        599 20     K4WX          599 04      
QSO: 21000 CW 2002-11-23 1701 LZ1ABC        599 20     MU5X          599 14      
QSO: 21000 CW 2002-11-23 1702 LZ1ABC        599 20     F6KHM         599 14      
QSO: 21000 CW 2002-11-23 1704 LZ1ABC        599 20     KX2P          599 05      
QSO: 21000 CW 2002-11-23 1705 LZ1ABC        599 20     K3WW          599 05      
QSO: 21000 CW 2002-11-23 1707 LZ1ABC        599 20     KT1V          599 05      
QSO: 14174 CW 2002-11-23 1713 LZ1ABC        599 20     W3PP          599 05      
QSO: 14174 CW 2002-11-23 1714 LZ1ABC        599 20     SN8F          599 15      
QSO: 14174 CW 2002-11-23 1716 LZ1ABC        599 20     GW3JXN        599 14      
QSO: 14174 CW 2002-11-23 1719 LZ1ABC        599 20     VE7UF         599 03      
QSO: 14174 CW 2002-11-23 1720 LZ1ABC        599 20     N3AD          599 05      
QSO: 14174 CW 2002-11-23 1720 LZ1ABC        599 20     M7Z           599 14      
QSO: 14174 CW 2002-11-23 1721 LZ1ABC        599 20     SQ6Z          599 15      
QSO: 14174 CW 2002-11-23 1722 LZ1ABC        599 20     N2MF          599 05      
QSO: 14174 CW 2002-11-23 1724 LZ1ABC        599 20     VE7XR         599 03      
QSO: 14174 CW 2002-11-23 1725 LZ1ABC        599 20     EA8CN         599 33      
QSO: 14174 CW 2002-11-23 1726 LZ1ABC        599 20     N2RM          599 05      
QSO: 14174 CW 2002-11-23 1730 LZ1ABC        599 20     W3GG          599 05      
QSO: 14174 CW 2002-11-23 1733 LZ1ABC        599 20     W0SD          599 04      
QSO: 14174 CW 2002-11-23 1735 LZ1ABC        599 20     MU0FAL        599 14      
QSO: 14174 CW 2002-11-23 1736 LZ1ABC        599 20     KB1H          599 05      
QSO: 14174 CW 2002-11-23 1737 LZ1ABC        599 20     NY4A          599 05      
QSO: 14174 CW 2002-11-23 1739 LZ1ABC        599 20     K1TTT         599 05      
QSO: 14174 CW 2002-11-23 1740 LZ1ABC        599 20     K1IR          599 05      
QSO: 14174 CW 2002-11-23 1741 LZ1ABC        599 20     W2YK          599 05      
QSO: 14174 CW 2002-11-23 1742 LZ1ABC        599 20     N4ZR          599 05      
QSO: 14174 CW 2002-11-23 1742 LZ1ABC        599 20     K4JA          599 05      
QSO: 14174 CW 2002-11-23 1743 LZ1ABC        599 20     W3LPL         599 05      
QSO: 14174 CW 2002-11-23 1746 LZ1ABC        599 20     K3ZO          599 05      
QSO: 14174 CW 2002-11-23 1749 LZ1ABC        599 20     K2XR          599 05      
QSO: 14174 CW 2002-11-23 1750 LZ1ABC        599 20     KC1F          599 05      
QSO: 14174 CW 2002-11-23 1753 LZ1ABC        599 20     G0IVZ         599 14      
QSO:  7000 CW 2002-11-23 1759 LZ1ABC        599 20     4X0X          599 20      
QSO:  7000 CW 2002-11-23 1800 LZ1ABC        599 20     RL3A          599 16      
QSO:  7000 CW 2002-11-23 1802 LZ1ABC        599 20     RW2F          599 15      
QSO:  7000 CW 2002-11-23 1803 LZ1ABC        599 20     DK5IM         599 14      
QSO:  7000 CW 2002-11-23 1807 LZ1ABC        599 20     JA3YBK        599 25      
QSO:  7000 CW 2002-11-23 1808 LZ1ABC        599 20     LY7Z          599 15      
QSO:  7000 CW 2002-11-23 1809 LZ1ABC        599 20     JA7YAA        599 25      
QSO:  7000 CW 2002-11-23 1809 LZ1ABC        599 20     RK9AWC        599 17      
QSO:  7000 CW 2002-11-23 1810 LZ1ABC        599 20     UA9CLB        599 17      
QSO:  7000 CW 2002-11-23 1815 LZ1ABC        599 20     JE1CKA        599 25      
QSO:  7000 CW 2002-11-23 1815 LZ1ABC        599 20     SQ6Z          599 15      
QSO:  7000 CW 2002-11-23 1817 LZ1ABC        599 20     OK1EW         599 15      
QSO:  7000 CW 2002-11-23 1818 LZ1ABC        599 20     4J6ZZ         599 21      
QSO:  7000 CW 2002-11-23 1819 LZ1ABC        599 20     JA8RWU        599 25      
QSO:  7000 CW 2002-11-23 1820 LZ1ABC        599 20     JA1YPA        599 25      
QSO:  7000 CW 2002-11-23 1820 LZ1ABC        599 20     DL3KVR        599 14      
QSO:  7000 CW 2002-11-23 1822 LZ1ABC        599 20     JJ3YBB        599 25      
QSO:  7000 CW 2002-11-23 1823 LZ1ABC        599 20     JA5BJC        599 25      
QSO:  7000 CW 2002-11-23 1826 LZ1ABC        599 20     YI9OM         599 21      
QSO:  7000 CW 2002-11-23 1826 LZ1ABC        599 20     EA8ZS         599 33      
QSO:  7000 CW 2002-11-23 1827 LZ1ABC        599 20     A61AJ         599 21      
QSO:  7000 CW 2002-11-23 1828 LZ1ABC        599 20     DL4NAC        599 14      
QSO:  7000 CW 2002-11-23 1835 LZ1ABC        599 20     9K9X          599 21      
QSO:  7000 CW 2002-11-23 1837 LZ1ABC        599 20     4K7Z          599 21      
QSO:  7000 CW 2002-11-23 1839 LZ1ABC        599 20     DL4CF         599 14      
QSO:  7000 CW 2002-11-23 1839 LZ1ABC        599 20     DJ7TO         599 14      
QSO:  7000 CW 2002-11-23 1840 LZ1ABC        599 20     PA5WT         599 14      
QSO:  7000 CW 2002-11-23 1843 LZ1ABC        599 20     EW1CQ         599 16      
QSO:  7000 CW 2002-11-23 1844 LZ1ABC        599 20     RW6CF         599 16      
QSO:  7000 CW 2002-11-23 1848 LZ1ABC        599 20     RA0CG         599 19      
QSO:  7000 CW 2002-11-23 1850 LZ1ABC        599 20     JY9QJ         599 20      
QSO:  7000 CW 2002-11-23 1854 LZ1ABC        599 20     DK8ZB         599 14      
QSO:  7000 CW 2002-11-23 1855 LZ1ABC        599 20     DK1NO         599 14      
QSO:  7000 CW 2002-11-23 1856 LZ1ABC        599 20     RU6LWZ        599 16      
QSO:  7000 CW 2002-11-23 1858 LZ1ABC        599 20     HG6N          599 15      
QSO:  7000 CW 2002-11-23 1859 LZ1ABC        599 20     OM7M          599 15      
QSO:  7000 CW 2002-11-23 1900 LZ1ABC        599 20     SQ3HMD        599 15      
QSO:  7000 CW 2002-11-23 1902 LZ1ABC        599 20     PA3BFH        599 14      
QSO:  7000 CW 2002-11-23 1902 LZ1ABC        599 20     JA2FSM        599 25      
QSO:  7000 CW 2002-11-23 1902 LZ1ABC        599 20     RK3DK         599 16      
QSO:  7000 CW 2002-11-23 1903 LZ1ABC        599 20     DJ4XD         599 14      
QSO:  7000 CW 2002-11-23 1903 LZ1ABC        599 20     DL3BRA        599 14      
QSO:  7000 CW 2002-11-23 1904 LZ1ABC        599 20     7M4CDX        599 25      
QSO:  7000 CW 2002-11-23 1904 LZ1ABC        599 20     F5PHW         599 14      
QSO:  7000 CW 2002-11-23 1905 LZ1ABC        599 20     SK5CV         599 14      
QSO:  7000 CW 2002-11-23 1905 LZ1ABC        599 20     OK2BLD        599 15      
QSO:  7000 CW 2002-11-23 1906 LZ1ABC        599 20     OM4TX         599 15      
QSO:  7000 CW 2002-11-23 1907 LZ1ABC        599 20     UR5RZ         599 16      
QSO:  7000 CW 2002-11-23 1908 LZ1ABC        599 20     UA3RAW        599 16      
QSO:  7000 CW 2002-11-23 1908 LZ1ABC        599 20     DL3HAA        599 14      
QSO:  7000 CW 2002-11-23 1910 LZ1ABC        599 20     DL7UXG        599 14      
QSO:  7000 CW 2002-11-23 1910 LZ1ABC        599 20     DL1TH         599 14      
QSO:  7000 CW 2002-11-23 1911 LZ1ABC        599 20     7S7V          599 14      
QSO:  7000 CW 2002-11-23 1911 LZ1ABC        599 20     JA3YFA        599 25      
QSO:  7000 CW 2002-11-23 1912 LZ1ABC        599 20     UR4IZA        599 16      
QSO:  7000 CW 2002-11-23 1912 LZ1ABC        599 20     DF9OX         599 14      
QSO:  7000 CW 2002-11-23 1912 LZ1ABC        599 20     OP1A          599 14      
QSO:  7000 CW 2002-11-23 1913 LZ1ABC        599 20     JA2CUS        599 25      
QSO:  7000 CW 2002-11-23 1913 LZ1ABC        599 20     TM5SIA        599 14      
QSO:  7000 CW 2002-11-23 1913 LZ1ABC        599 20     DL2ABH        599 14      
QSO:  7000 CW 2002-11-23 1914 LZ1ABC        599 20     JH2BCN        599 25      
QSO:  7000 CW 2002-11-23 1915 LZ1ABC        599 20     JR1DNH        599 25      
QSO:  7000 CW 2002-11-23 1916 LZ1ABC        599 20     G3XOV         599 14      
QSO:  7000 CW 2002-11-23 1916 LZ1ABC        599 20     DL9FAW        599 14      
QSO:  7000 CW 2002-11-23 1916 LZ1ABC        599 20     M7M           599 14      
QSO:  7000 CW 2002-11-23 1917 LZ1ABC        599 20     JG3LGD        599 25      
QSO:  7000 CW 2002-11-23 1917 LZ1ABC        599 20     DL9GMC        599 14      
QSO:  7000 CW 2002-11-23 1918 LZ1ABC        599 20     G0HZG         599 14      
QSO:  7000 CW 2002-11-23 1918 LZ1ABC        599 20     ON4XG         599 14      
QSO:  7000 CW 2002-11-23 1919 LZ1ABC        599 20     JF1FEV        599 25      
QSO:  7000 CW 2002-11-23 1919 LZ1ABC        599 20     G3KKQ         599 14      
QSO:  7000 CW 2002-11-23 1920 LZ1ABC        599 20     VK2IA         599 30      
QSO:  7000 CW 2002-11-23 1921 LZ1ABC        599 20     F5ASO         599 14      
QSO:  7000 CW 2002-11-23 1922 LZ1ABC        599 20     G4AFU         599 14      
QSO:  7000 CW 2002-11-23 1923 LZ1ABC        599 20     JH1GNU        599 25      
QSO:  7000 CW 2002-11-23 1924 LZ1ABC        599 20     UX1HW         599 16      
QSO:  7000 CW 2002-11-23 1925 LZ1ABC        599 20     RN6AL         599 16      
QSO:  7000 CW 2002-11-23 1925 LZ1ABC        599 20     ON6QS         599 14      
QSO:  7000 CW 2002-11-23 1926 LZ1ABC        599 20     G0DCK         599 14      
QSO:  7000 CW 2002-11-23 1927 LZ1ABC        599 20     ON4CCG        599 14      
QSO:  7000 CW 2002-11-23 1927 LZ1ABC        599 20     RZ6HWA        599 16      
QSO:  7000 CW 2002-11-23 1928 LZ1ABC        599 20     RI4C          599 16      
QSO:  7000 CW 2002-11-23 1929 LZ1ABC        599 20     T92A          599 15      
QSO:  7000 CW 2002-11-23 1929 LZ1ABC        599 20     G3KKP         599 14      
QSO:  7000 CW 2002-11-23 1932 LZ1ABC        599 20     DJ1UV/P       599 14      
QSO:  7000 CW 2002-11-23 1932 LZ1ABC        599 20     OK2PTS        599 15      
QSO:  7000 CW 2002-11-23 1934 LZ1ABC        599 20     UA4HJ         599 16      
QSO:  7000 CW 2002-11-23 1935 LZ1ABC        599 20     JH1AEP        599 25      
QSO:  7000 CW 2002-11-23 1935 LZ1ABC        599 20     JH1RGG        599 25      
QSO:  7000 CW 2002-11-23 1936 LZ1ABC        599 20     RA0FU         599 19      
QSO:  7000 CW 2002-11-23 1937 LZ1ABC        599 20     UT5UN         599 16      
QSO:  7000 CW 2002-11-23 1938 LZ1ABC        599 20     PA1MW         599 14      
QSO:  7000 CW 2002-11-23 1939 LZ1ABC        599 20     PA0LSK        599 14      
QSO:  7000 CW 2002-11-23 1939 LZ1ABC        599 20     G3VYI         599 14      
QSO:  7000 CW 2002-11-23 1940 LZ1ABC        599 20     EA1CS         599 14      
QSO:  7000 CW 2002-11-23 1940 LZ1ABC        599 20     GM7V          599 14      
QSO:  7000 CW 2002-11-23 1941 LZ1ABC        599 20     JH1SBE        599 25      
QSO:  7000 CW 2002-11-23 1944 LZ1ABC        599 20     JA2RJE        599 25      
QSO:  7000 CW 2002-11-23 1946 LZ1ABC        599 20     OK1TA         599 15      
QSO:  7000 CW 2002-11-23 1946 LZ1ABC        599 20     JH1SVO        599 25      
QSO:  7000 CW 2002-11-23 1947 LZ1ABC        599 20     S53DT         599 15      
QSO:  7000 CW 2002-11-23 1947 LZ1ABC        599 20     OE6VIE        599 15      
QSO:  7000 CW 2002-11-23 1948 LZ1ABC        599 20     9A2HW         599 15      
QSO:  7000 CW 2002-11-23 1950 LZ1ABC        599 20     PA4DO         599 14      
QSO:  7000 CW 2002-11-23 1951 LZ1ABC        599 20     PA3GNO        599 14      
QSO:  7000 CW 2002-11-23 1951 LZ1ABC        599 20     F5UMP         599 14      
QSO:  7000 CW 2002-11-23 1951 LZ1ABC        599 20     G4WFQ         599 14      
QSO:  7000 CW 2002-11-23 1952 LZ1ABC        599 20     UA4RF         599 16      
QSO:  7000 CW 2002-11-23 1952 LZ1ABC        599 20     EA1FR         599 14      
QSO:  7000 CW 2002-11-23 1953 LZ1ABC        599 20     OK1AXB        599 15      
QSO:  7000 CW 2002-11-23 1955 LZ1ABC        599 20     UA9CKN        599 17      
QSO:  7000 CW 2002-11-23 1955 LZ1ABC        599 20     G4IIY         599 14      
QSO:  7000 CW 2002-11-23 1955 LZ1ABC        599 20     G3BFP         599 14      
QSO:  7000 CW 2002-11-23 1956 LZ1ABC        599 20     G4FTC         599 14      
QSO:  7000 CW 2002-11-23 1957 LZ1ABC        599 20     JA1ZKZ        599 25      
QSO:  7000 CW 2002-11-23 1957 LZ1ABC        599 20     G0DAY         599 14      
QSO:  7000 CW 2002-11-23 1958 LZ1ABC        599 20     UA9CM         599 17      
QSO:  7000 CW 2002-11-23 2000 LZ1ABC        599 20     RN6FA         599 16      
QSO:  7000 CW 2002-11-23 2000 LZ1ABC        599 20     UR5FAI        599 16      
QSO:  7000 CW 2002-11-23 2001 LZ1ABC        599 20     UA9AFO        599 17      
QSO:  7000 CW 2002-11-23 2002 LZ1ABC        599 20     PA3AFF        599 14      
QSO:  7000 CW 2002-11-23 2003 LZ1ABC        599 20     GM3JKS        599 14      
QSO:  7000 CW 2002-11-23 2004 LZ1ABC        599 20     DL9CE         599 14      
QSO:  7000 CW 2002-11-23 2004 LZ1ABC        599 20     UA9FEG        599 17      
QSO:  7000 CW 2002-11-23 2004 LZ1ABC        599 20     F5OIH         599 14      
QSO:  7000 CW 2002-11-23 2006 LZ1ABC        599 20     PA3AAV        599 14      
QSO:  7000 CW 2002-11-23 2007 LZ1ABC        599 20     4X4ARC        599 20      
QSO:  7000 CW 2002-11-23 2007 LZ1ABC        599 20     EA5YN         599 14      
QSO:  7000 CW 2002-11-23 2008 LZ1ABC        599 20     JG2OUK        599 25      
QSO:  7000 CW 2002-11-23 2009 LZ1ABC        599 20     RA4AI         599 16      
QSO:  7000 CW 2002-11-23 2009 LZ1ABC        599 20     G3JXC         599 14      
QSO:  7000 CW 2002-11-23 2012 LZ1ABC        599 20     DL9ABM        599 14      
QSO:  7000 CW 2002-11-23 2012 LZ1ABC        599 20     DL9DBZ        599 14      
QSO:  7000 CW 2002-11-23 2012 LZ1ABC        599 20     G4BUO         599 14      
QSO:  7000 CW 2002-11-23 2013 LZ1ABC        599 20     HG1S          599 15      
QSO:  7000 CW 2002-11-23 2014 LZ1ABC        599 20     SP9VEG        599 15      
QSO:  7000 CW 2002-11-23 2015 LZ1ABC        599 20     9A6C          599 15      
QSO:  7000 CW 2002-11-23 2016 LZ1ABC        599 20     RX3RB         599 16      
QSO:  7000 CW 2002-11-23 2018 LZ1ABC        599 20     HA3OU         599 15      
QSO:  7000 CW 2002-11-23 2019 LZ1ABC        599 20     RN6FO         599 16      
QSO:  7000 CW 2002-11-23 2020 LZ1ABC        599 20     JE3WVA/3      599 25      
QSO:  7000 CW 2002-11-23 2021 LZ1ABC        599 20     PA0CYW        599 14      
QSO:  7000 CW 2002-11-23 2022 LZ1ABC        599 20     SM7CQY        599 14      
QSO:  7000 CW 2002-11-23 2022 LZ1ABC        599 20     SK6HD         599 14      
QSO:  7000 CW 2002-11-23 2023 LZ1ABC        599 20     SO6Y          599 15      
QSO:  7000 CW 2002-11-23 2023 LZ1ABC        599 20     DF5LW         599 14      
QSO:  7000 CW 2002-11-23 2024 LZ1ABC        599 20     RA9XF         599 17      
QSO:  7000 CW 2002-11-23 2024 LZ1ABC        599 20     DL3YBM        599 14      
QSO:  7000 CW 2002-11-23 2024 LZ1ABC        599 20     DJ7YT         599 14      
QSO:  7000 CW 2002-11-23 2025 LZ1ABC        599 20     DJ3JD         599 14      
QSO:  7000 CW 2002-11-23 2025 LZ1ABC        599 20     UN7JX         599 17      
QSO:  7000 CW 2002-11-23 2025 LZ1ABC        599 20     F2HE          599 14      
QSO:  7000 CW 2002-11-23 2026 LZ1ABC        599 20     OM8ZZ         599 15      
QSO:  7000 CW 2002-11-23 2027 LZ1ABC        599 20     UT1FA         599 16      
QSO:  7000 CW 2002-11-23 2027 LZ1ABC        599 20     DL9XY         599 14      
QSO:  7000 CW 2002-11-23 2027 LZ1ABC        599 20     DL9SXX        599 14      
QSO:  7000 CW 2002-11-23 2028 LZ1ABC        599 20     G3SEK         599 14      
QSO:  7000 CW 2002-11-23 2029 LZ1ABC        599 20     EA6/DL8NBY    599 14      
QSO:  7000 CW 2002-11-23 2030 LZ1ABC        599 20     DL2OBF        599 14      
QSO:  7000 CW 2002-11-23 2030 LZ1ABC        599 20     DJ4PT         599 14      
QSO:  7000 CW 2002-11-23 2030 LZ1ABC        599 20     UA3UAT        599 16      
QSO:  7000 CW 2002-11-23 2032 LZ1ABC        599 20     UX5UO         599 16      
QSO:  7000 CW 2002-11-23 2032 LZ1ABC        599 20     UA9BS         599 17      
QSO:  7000 CW 2002-11-23 2033 LZ1ABC        599 20     JE2HVC        599 25      
QSO:  7000 CW 2002-11-23 2034 LZ1ABC        599 20     UA9OA         599 18      
QSO:  7000 CW 2002-11-23 2034 LZ1ABC        599 20     OM7VF         599 15      
QSO:  7000 CW 2002-11-23 2035 LZ1ABC        599 20     SM6BZE        599 14      
QSO:  7000 CW 2002-11-23 2036 LZ1ABC        599 20     RX3QAM        599 16      
QSO:  7000 CW 2002-11-23 2036 LZ1ABC        599 20     OK8ANM        599 15      
QSO:  7000 CW 2002-11-23 2037 LZ1ABC        599 20     OH2LU         599 15      
QSO:  7000 CW 2002-11-23 2037 LZ1ABC        599 20     OK2HBR        599 15      
QSO:  7000 CW 2002-11-23 2038 LZ1ABC        599 20     JA1CWZ        599 25      
QSO:  7000 CW 2002-11-23 2039 LZ1ABC        599 20     VU2PAI        599 22      
QSO:  7000 CW 2002-11-23 2039 LZ1ABC        599 20     DL1DTC        599 14      
QSO:  7000 CW 2002-11-23 2039 LZ1ABC        599 20     SM7CWI        599 14      
QSO:  7000 CW 2002-11-23 2040 LZ1ABC        599 20     RZ3VA         599 16      
QSO:  7000 CW 2002-11-23 2040 LZ1ABC        599 20     OK2SGY        599 15      
QSO:  7000 CW 2002-11-23 2041 LZ1ABC        599 20     9A2UA         599 15      
QSO:  7000 CW 2002-11-23 2041 LZ1ABC        599 20     EX2A          599 17      
QSO:  7000 CW 2002-11-23 2042 LZ1ABC        599 20     UA6HON        599 16      
QSO:  7000 CW 2002-11-23 2042 LZ1ABC        599 20     RZ3OT         599 16      
QSO:  7000 CW 2002-11-23 2043 LZ1ABC        599 20     SM5BAX        599 14      
QSO:  7000 CW 2002-11-23 2044 LZ1ABC        599 20     RX3DOR        599 16      
QSO:  7000 CW 2002-11-23 2045 LZ1ABC        599 20     DJ2YE         599 14      
QSO:  7000 CW 2002-11-23 2045 LZ1ABC        599 20     OM8AA         599 15      
QSO:  7000 CW 2002-11-23 2046 LZ1ABC        599 20     DJ7GL         599 14      
QSO:  7000 CW 2002-11-23 2046 LZ1ABC        599 20     DL6YRM        599 14      
QSO:  7000 CW 2002-11-23 2047 LZ1ABC        599 20     DL0AO         599 14      
QSO:  7000 CW 2002-11-23 2047 LZ1ABC        599 20     F5SGI         599 14      
QSO:  7000 CW 2002-11-23 2048 LZ1ABC        599 20     OL3A          599 15      
QSO:  7000 CW 2002-11-23 2048 LZ1ABC        599 20     DL5KUD        599 14      
QSO:  7000 CW 2002-11-23 2049 LZ1ABC        599 20     S52AU         599 15      
QSO:  7000 CW 2002-11-23 2050 LZ1ABC        599 20     SM6NET        599 14      
QSO:  7000 CW 2002-11-23 2050 LZ1ABC        599 20     ON4CAS        599 14      
QSO:  7000 CW 2002-11-23 2051 LZ1ABC        599 20     LA8XM         599 14      
QSO:  7000 CW 2002-11-23 2051 LZ1ABC        599 20     UA6BAE        599 16      
QSO:  7000 CW 2002-11-23 2051 LZ1ABC        599 20     DL3ZAI        599 14      
QSO:  7000 CW 2002-11-23 2052 LZ1ABC        599 20     DL2ANM        599 14      
QSO:  7000 CW 2002-11-23 2053 LZ1ABC        599 20     RK9JWV        599 18      
QSO:  7000 CW 2002-11-23 2053 LZ1ABC        599 20     DK7ZH         599 14      
QSO:  7000 CW 2002-11-23 2054 LZ1ABC        599 20     DL5ANS        599 14      
QSO:  7000 CW 2002-11-23 2054 LZ1ABC        599 20     PB6X          599 14      
QSO:  7000 CW 2002-11-23 2054 LZ1ABC        599 20     UA4FEN        599 16      
QSO:  7000 CW 2002-11-23 2055 LZ1ABC        599 20     EA3CKX        599 14      
QSO:  7000 CW 2002-11-23 2055 LZ1ABC        599 20     RV6ASU        599 16      
QSO:  7000 CW 2002-11-23 2056 LZ1ABC        599 20     OK2XA         599 15      
QSO:  7000 CW 2002-11-23 2056 LZ1ABC        599 20     DF3FS         599 14      
QSO:  7000 CW 2002-11-23 2057 LZ1ABC        599 20     F6IUX/P       599 14      
QSO:  7000 CW 2002-11-23 2058 LZ1ABC        599 20     DJ2YA         599 14      
QSO:  7000 CW 2002-11-23 2058 LZ1ABC        599 20     DL1EMH        599 14      
QSO:  7000 CW 2002-11-23 2058 LZ1ABC        599 20     SM6XKB        599 14      
QSO:  7000 CW 2002-11-23 2059 LZ1ABC        599 20     DL6AG         599 14      
QSO:  7000 CW 2002-11-23 2100 LZ1ABC        599 20     LY3MR         599 15      
QSO:  7000 CW 2002-11-23 2100 LZ1ABC        599 20     DH3MG         599 14      
QSO:  7000 CW 2002-11-23 2102 LZ1ABC        599 20     LY6A          599 15      
QSO:  7000 CW 2002-11-23 2102 LZ1ABC        599 20     ON4JM         599 14      
QSO:  7000 CW 2002-11-23 2103 LZ1ABC        599 20     S59D          599 15      
QSO:  7000 CW 2002-11-23 2105 LZ1ABC        599 20     SM5Q          599 14      
QSO:  7000 CW 2002-11-23 2106 LZ1ABC        599 20     K4VX          599 04      
QSO:  7000 CW 2002-11-23 2107 LZ1ABC        599 20     JK1OPL        599 25      
QSO:  7000 CW 2002-11-23 2107 LZ1ABC        599 20     RU3FF         599 16      
QSO:  7000 CW 2002-11-23 2108 LZ1ABC        599 20     PA0COR        599 14      
QSO:  7000 CW 2002-11-23 2108 LZ1ABC        599 20     G4DHF         599 14      
QSO:  7000 CW 2002-11-23 2109 LZ1ABC        599 20     F6DZD         599 14      
QSO:  7000 CW 2002-11-23 2110 LZ1ABC        599 20     OK2BND        599 15      
QSO:  7000 CW 2002-11-23 2110 LZ1ABC        599 20     SK0X          599 14      
QSO:  7000 CW 2002-11-23 2123 LZ1ABC        599 20     G3KCJ         599 14      
QSO:  7000 CW 2002-11-23 2125 LZ1ABC        599 20     SM5E          599 14      
QSO:  7000 CW 2002-11-23 2125 LZ1ABC        599 20     SM3AVW        599 14      
QSO:  7000 CW 2002-11-23 2126 LZ1ABC        599 20     OZ5UR         599 14      
QSO:  7000 CW 2002-11-23 2128 LZ1ABC        599 20     K3NZ          599 05      
QSO:  7000 CW 2002-11-23 2128 LZ1ABC        599 20     G3VPS         599 14      
QSO:  7000 CW 2002-11-23 2130 LZ1ABC        599 20     G0UAP         599 14      
QSO:  7000 CW 2002-11-23 2131 LZ1ABC        599 20     DJ4IC         599 14      
QSO:  7000 CW 2002-11-23 2131 LZ1ABC        599 20     RA3OS         599 16      
QSO:  7000 CW 2002-11-23 2133 LZ1ABC        599 20     DJ2XC         599 14      
QSO:  7000 CW 2002-11-23 2137 LZ1ABC        599 20     SM7BJW        599 14      
QSO:  7000 CW 2002-11-23 2138 LZ1ABC        599 20     RW1ZZ         599 16      
QSO:  7000 CW 2002-11-23 2138 LZ1ABC        599 20     EA2BNU        599 14      
QSO:  7000 CW 2002-11-23 2140 LZ1ABC        599 20     UA3GE         599 16      
QSO:  7000 CW 2002-11-23 2140 LZ1ABC        599 20     LN3R          599 14      
QSO:  7000 CW 2002-11-23 2141 LZ1ABC        599 20     RW3DOX        599 16      
QSO:  7000 CW 2002-11-23 2141 LZ1ABC        599 20     UN4L          599 17      
QSO:  7000 CW 2002-11-23 2141 LZ1ABC        599 20     OK1JOC        599 15      
QSO:  7000 CW 2002-11-23 2144 LZ1ABC        599 20     RV3DHQ        599 16      
QSO:  7000 CW 2002-11-23 2146 LZ1ABC        599 20     N2LT          599 05      
QSO:  7000 CW 2002-11-23 2147 LZ1ABC        599 20     EI4II         599 14      
QSO:  7000 CW 2002-11-23 2151 LZ1ABC        599 20     T88JA         599 27      
QSO:  7000 CW 2002-11-23 2152 LZ1ABC        599 20     EA6IB         599 14      
QSO:  7000 CW 2002-11-23 2153 LZ1ABC        599 20     7S3A          599 14      
QSO:  7000 CW 2002-11-23 2154 LZ1ABC        599 20     HA/W0NA       599 15      
QSO:  7000 CW 2002-11-23 2157 LZ1ABC        599 20     K4EWG         599 05      
QSO:  7000 CW 2002-11-23 2201 LZ1ABC        599 20     RU4WE         599 16      
QSO:  7000 CW 2002-11-23 2201 LZ1ABC        599 20     RA3XP         599 16      
QSO:  7000 CW 2002-11-23 2203 LZ1ABC        599 20     RX9SX         599 17      
QSO:  7000 CW 2002-11-23 2204 LZ1ABC        599 20     KT3Y          599 05      
QSO:  7000 CW 2002-11-23 2204 LZ1ABC        599 20     OY1CT         599 14      
QSO:  7000 CW 2002-11-23 2211 LZ1ABC        599 20     UA9AB         599 17      
QSO:  7000 CW 2002-11-23 2212 LZ1ABC        599 20     DL6TQ         599 14      
QSO:  7000 CW 2002-11-23 2212 LZ1ABC        599 20     ON7CC         599 14      
QSO:  7000 CW 2002-11-23 2213 LZ1ABC        599 20     OZ4KD         599 14      
QSO:  7000 CW 2002-11-23 2216 LZ1ABC        599 20     JH7XGN        599 25      
QSO:  7000 CW 2002-11-23 2218 LZ1ABC        599 20     HL1EJT        599 25      
QSO:  7000 CW 2002-11-23 2219 LZ1ABC        599 20     N3RS          599 05      
QSO:  7000 CW 2002-11-23 2220 LZ1ABC        599 20     UZ8M          599 16      
QSO:  7000 CW 2002-11-23 2221 LZ1ABC        599 20     DA0FF         599 14      
QSO:  7000 CW 2002-11-23 2223 LZ1ABC        599 20     OE5OHO        599 15      
QSO:  7000 CW 2002-11-23 2226 LZ1ABC        599 20     UU7J          599 16      
QSO:  7000 CW 2002-11-23 2228 LZ1ABC        599 20     IK4ZHH        599 15      
QSO:  7000 CW 2002-11-23 2230 LZ1ABC        599 20     PA1AW         599 14      
QSO:  7000 CW 2002-11-23 2231 LZ1ABC        599 20     EN7Z          599 16      
QSO:  7000 CW 2002-11-23 2231 LZ1ABC        599 20     N2RM          599 05      
QSO:  7000 CW 2002-11-23 2232 LZ1ABC        599 20     IU2M          599 15      
QSO:  7000 CW 2002-11-23 2233 LZ1ABC        599 20     IQ3X          599 15      
QSO:  7000 CW 2002-11-23 2233 LZ1ABC        599 20     TM5C          599 14      
QSO:  7000 CW 2002-11-23 2234 LZ1ABC        599 20     ON4IA         599 14      
QSO:  7000 CW 2002-11-23 2237 LZ1ABC        599 20     YT7A          599 15      
QSO:  7000 CW 2002-11-23 2240 LZ1ABC        599 20     XT2DX         599 35      
QSO:  7000 CW 2002-11-23 2243 LZ1ABC        599 20     P40J          599 09      
QSO:  7000 CW 2002-11-23 2244 LZ1ABC        599 20     9A3IQ         599 15      
QSO:  7000 CW 2002-11-23 2245 LZ1ABC        599 20     RA9WW         599 17      
QSO:  7000 CW 2002-11-23 2247 LZ1ABC        599 20     IK2AOO        599 15      
QSO:  7000 CW 2002-11-23 2248 LZ1ABC        599 20     4Z5LA         599 20      
QSO:  7000 CW 2002-11-23 2250 LZ1ABC        599 20     RA3AUM        599 16      
QSO:  7000 CW 2002-11-23 2251 LZ1ABC        599 20     N4WW          599 05      
QSO:  7000 CW 2002-11-23 2252 LZ1ABC        599 20     RK6AXB        599 16      
QSO:  7000 CW 2002-11-23 2254 LZ1ABC        599 20     K5GN          599 04      
QSO:  7000 CW 2002-11-23 2255 LZ1ABC        599 20     CT9M          599 33      
QSO:  7000 CW 2002-11-23 2256 LZ1ABC        599 20     CT9L          599 33      
QSO:  7000 CW 2002-11-23 2257 LZ1ABC        599 20     UT3MA         599 16      
QSO:  7000 CW 2002-11-23 2257 LZ1ABC        599 20     OK1DG         599 15      
QSO:  7000 CW 2002-11-23 2259 LZ1ABC        599 20     IZ1DFI/QRP    599 15      
QSO:  7000 CW 2002-11-23 2301 LZ1ABC        599 20     P40W          599 09      
QSO:  7000 CW 2002-11-23 2304 LZ1ABC        599 20     DL1IAO        599 14      
QSO:  7000 CW 2002-11-23 2305 LZ1ABC        599 20     OK2DU         599 15      
QSO:  7000 CW 2002-11-23 2306 LZ1ABC        599 20     PA0JNH        599 14      
QSO:  7000 CW 2002-11-23 2307 LZ1ABC        599 20     CT3KN         599 33      
QSO:  7000 CW 2002-11-23 2308 LZ1ABC        599 20     SN4L          599 15      
QSO:  7000 CW 2002-11-23 2308 LZ1ABC        599 20     RW3AX         599 16      
QSO:  7000 CW 2002-11-23 2308 LZ1ABC        599 20     LY2FN         599 15      
QSO:  7000 CW 2002-11-23 2308 LZ1ABC        599 20     LY7A          599 15      
QSO:  7000 CW 2002-11-23 2309 LZ1ABC        599 20     RU6FA         599 16      
QSO:  7000 CW 2002-11-23 2309 LZ1ABC        599 20     OK2BU         599 15      
QSO:  7000 CW 2002-11-23 2310 LZ1ABC        599 20     RU6LWT        599 16      
QSO:  7000 CW 2002-11-23 2312 LZ1ABC        599 20     OH6RC         599 15      
QSO:  7000 CW 2002-11-23 2313 LZ1ABC        599 20     F6FFM         599 14      
QSO:  7000 CW 2002-11-23 2313 LZ1ABC        599 20     UA3AA         599 16      
QSO:  7000 CW 2002-11-23 2314 LZ1ABC        599 20     YO9WF         599 20      
QSO:  7000 CW 2002-11-23 2316 LZ1ABC        599 20     UU3JO         599 16      
QSO:  3500 CW 2002-11-23 2320 LZ1ABC        599 20     YT0A          599 15      
QSO:  3500 CW 2002-11-23 2321 LZ1ABC        599 20     9A7A          599 15      
QSO:  3500 CW 2002-11-23 2322 LZ1ABC        599 20     UA1OMS        599 16      
QSO:  3500 CW 2002-11-23 2323 LZ1ABC        599 20     RK3DZD        599 16      
QSO:  3500 CW 2002-11-23 2325 LZ1ABC        599 20     9K9X          599 21      
QSO:  3500 CW 2002-11-23 2325 LZ1ABC        599 20     TM2Y          599 14      
QSO:  3500 CW 2002-11-23 2325 LZ1ABC        599 20     HA3LI         599 15      
QSO:  3500 CW 2002-11-23 2327 LZ1ABC        599 20     RK4FF         599 16      
QSO:  3500 CW 2002-11-23 2328 LZ1ABC        599 20     OH2FT         599 15      
QSO:  3500 CW 2002-11-23 2328 LZ1ABC        599 20     UA4FER        599 16      
QSO:  3500 CW 2002-11-23 2330 LZ1ABC        599 20     SV5/SV1DKL    599 20      
QSO:  3500 CW 2002-11-23 2331 LZ1ABC        599 20     JY9QJ         599 20      
QSO:  3500 CW 2002-11-23 2333 LZ1ABC        599 20     US0KW         599 16      
QSO:  3500 CW 2002-11-23 2334 LZ1ABC        599 20     SN5N          599 15      
QSO:  3500 CW 2002-11-23 2334 LZ1ABC        599 20     DK3GI         599 14      
QSO:  3500 CW 2002-11-23 2335 LZ1ABC        599 20     OL5Q          599 15      
QSO:  3500 CW 2002-11-23 2336 LZ1ABC        599 20     US2WU         599 16      
QSO:  3500 CW 2002-11-23 2336 LZ1ABC        599 20     9A1A          599 15      
QSO:  3500 CW 2002-11-23 2337 LZ1ABC        599 20     YT7W          599 15      
QSO:  3500 CW 2002-11-23 2339 LZ1ABC        599 20     RZ1AWO        599 16      
QSO:  3500 CW 2002-11-23 2341 LZ1ABC        599 20     LX7I          599 14      
QSO:  3500 CW 2002-11-23 2350 LZ1ABC        599 20     US9PA         599 16      
QSO:  3500 CW 2002-11-23 2352 LZ1ABC        599 20     UT0YW         599 16      
QSO:  3500 CW 2002-11-23 2353 LZ1ABC        599 20     ON6NR         599 14      
QSO:  3500 CW 2002-11-23 2355 LZ1ABC        599 20     SP6MQO        599 15      
QSO:  3500 CW 2002-11-23 2357 LZ1ABC        599 20     EA3RE         599 14      
QSO:  3500 CW 2002-11-23 2358 LZ1ABC        599 20     SN4L          599 15      
QSO:  3500 CW 2002-11-23 2358 LZ1ABC        599 20     HA8SU         599 15      
QSO:  3500 CW 2002-11-23 2359 LZ1ABC        599 20     SM5CEU        599 14      
QSO:  3500 CW 2002-11-24 0000 LZ1ABC        599 20     R5CC          599 16      
QSO:  3500 CW 2002-11-24 0000 LZ1ABC        599 20     EA4TX         599 14      
QSO:  3500 CW 2002-11-24 0001 LZ1ABC        599 20     DL1LH         599 14      
QSO:  3500 CW 2002-11-24 0001 LZ1ABC        599 20     SK0X          599 14      
QSO:  3500 CW 2002-11-24 0001 LZ1ABC        599 20     UR7EQ         599 16      
QSO:  3500 CW 2002-11-24 0002 LZ1ABC        599 20     RK9TWA        599 17      
QSO:  3500 CW 2002-11-24 0002 LZ1ABC        599 20     DF8QB         599 14      
QSO:  3500 CW 2002-11-24 0003 LZ1ABC        599 20     RZ1QZZ        599 16      
QSO:  3500 CW 2002-11-24 0003 LZ1ABC        599 20     SP9XCN        599 15      
QSO:  3500 CW 2002-11-24 0004 LZ1ABC        599 20     G3WGV         599 14      
QSO:  3500 CW 2002-11-24 0005 LZ1ABC        599 20     DL5YYM        599 14      
QSO:  3500 CW 2002-11-24 0005 LZ1ABC        599 20     OE3I          599 15      
QSO:  3500 CW 2002-11-24 0006 LZ1ABC        599 20     DL7BQ         599 14      
QSO:  3500 CW 2002-11-24 0008 LZ1ABC        599 20     DL0IT         599 14      
QSO:  3500 CW 2002-11-24 0009 LZ1ABC        599 20     EA1WX         599 14      
QSO:  3500 CW 2002-11-24 0009 LZ1ABC        599 20     UY2RO         599 16      
QSO:  3500 CW 2002-11-24 0010 LZ1ABC        599 20     EU7SD         599 16      
QSO:  3500 CW 2002-11-24 0010 LZ1ABC        599 20     OK2SWD        599 15      
QSO:  3500 CW 2002-11-24 0010 LZ1ABC        599 20     YT7TY         599 15      
QSO:  3500 CW 2002-11-24 0011 LZ1ABC        599 20     SO6Y          599 15      
QSO:  3500 CW 2002-11-24 0011 LZ1ABC        599 20     OM4ANJ        599 15      
QSO:  3500 CW 2002-11-24 0012 LZ1ABC        599 20     OK2PBG        599 15      
QSO:  3500 CW 2002-11-24 0012 LZ1ABC        599 20     UR5XCW        599 16      
QSO:  3500 CW 2002-11-24 0013 LZ1ABC        599 20     S57NRO        599 15      
QSO:  3500 CW 2002-11-24 0014 LZ1ABC        599 20     HA2MV         599 15      
QSO:  3500 CW 2002-11-24 0018 LZ1ABC        599 20     RW9QA         599 17      
QSO:  3500 CW 2002-11-24 0018 LZ1ABC        599 20     S52W          599 15      
QSO:  3500 CW 2002-11-24 0021 LZ1ABC        599 20     PI4ZLD        599 14      
QSO:  3500 CW 2002-11-24 0021 LZ1ABC        599 20     OK2BUZ        599 15      
QSO:  3500 CW 2002-11-24 0022 LZ1ABC        599 20     ON7GB         599 14      
QSO:  3500 CW 2002-11-24 0023 LZ1ABC        599 20     UY6IM         599 16      
QSO:  3500 CW 2002-11-24 0023 LZ1ABC        599 20     OL2A          599 15      
QSO:  3500 CW 2002-11-24 0024 LZ1ABC        599 20     EU6DX         599 16      
QSO:  3500 CW 2002-11-24 0025 LZ1ABC        599 20     RN1NA         599 16      
QSO:  3500 CW 2002-11-24 0026 LZ1ABC        599 20     US0Q          599 16      
QSO:  3500 CW 2002-11-24 0027 LZ1ABC        599 20     T94YT         599 15      
QSO:  3500 CW 2002-11-24 0028 LZ1ABC        599 20     TM5SIA        599 14      
QSO:  3500 CW 2002-11-24 0029 LZ1ABC        599 20     OM5AR         599 15      
QSO:  3500 CW 2002-11-24 0031 LZ1ABC        599 20     EW7DK         599 16      
QSO:  1800 CW 2002-11-24 0035 LZ1ABC        599 20     UX5NQ         599 16      
QSO:  1800 CW 2002-11-24 0035 LZ1ABC        599 20     RN6BN         599 16      
QSO:  1800 CW 2002-11-24 0036 LZ1ABC        599 20     S57M          599 15      
QSO:  1800 CW 2002-11-24 0038 LZ1ABC        599 20     SV1NA         599 20      
QSO:  1800 CW 2002-11-24 0041 LZ1ABC        599 20     EU6EU         599 16      
QSO:  1800 CW 2002-11-24 0042 LZ1ABC        599 20     Z33F          599 15      
QSO:  1800 CW 2002-11-24 0043 LZ1ABC        599 20     YL2PQ         599 15      
QSO:  1800 CW 2002-11-24 0043 LZ1ABC        599 20     OL2U          599 15      
QSO:  1800 CW 2002-11-24 0044 LZ1ABC        599 20     UR5IDP        599 16      
QSO:  1800 CW 2002-11-24 0045 LZ1ABC        599 20     OK2ZV         599 15      
QSO:  1800 CW 2002-11-24 0046 LZ1ABC        599 20     9A1A          599 15      
QSO:  1800 CW 2002-11-24 0046 LZ1ABC        599 20     DJ8RS         599 14      
QSO:  1800 CW 2002-11-24 0047 LZ1ABC        599 20     SM7DLK        599 14      
QSO:  1800 CW 2002-11-24 0048 LZ1ABC        599 20     S50N          599 15      
QSO:  1800 CW 2002-11-24 0048 LZ1ABC        599 20     OZ4O          599 14      
QSO:  1800 CW 2002-11-24 0049 LZ1ABC        599 20     UX1UX         599 16      
QSO:  1800 CW 2002-11-24 0049 LZ1ABC        599 20     ER1OO         599 16      
QSO:  1800 CW 2002-11-24 0050 LZ1ABC        599 20     UT7L          599 16      
QSO:  1800 CW 2002-11-24 0050 LZ1ABC        599 20     OK1TP         599 15      
QSO:  1800 CW 2002-11-24 0053 LZ1ABC        599 20     S52ZW         599 15      
QSO:  1800 CW 2002-11-24 0055 LZ1ABC        599 20     OM5JA         599 15      
QSO:  1800 CW 2002-11-24 0055 LZ1ABC        599 20     S57L          599 15      
QSO:  1800 CW 2002-11-24 0056 LZ1ABC        599 20     YO2BEH        599 20      
QSO:  1800 CW 2002-11-24 0100 LZ1ABC        599 20     C4W           599 20      
QSO:  1800 CW 2002-11-24 0101 LZ1ABC        599 20     SN4L          599 15      
QSO:  1800 CW 2002-11-24 0102 LZ1ABC        599 20     IT9ZGY        599 15      
QSO:  1800 CW 2002-11-24 0104 LZ1ABC        599 20     YZ7A          599 15      
QSO:  1800 CW 2002-11-24 0106 LZ1ABC        599 20     ER6A          599 16      
QSO:  1800 CW 2002-11-24 0109 LZ1ABC        599 20     LA5HE         599 14      
QSO:  1800 CW 2002-11-24 0109 LZ1ABC        599 20     SP6IHE        599 15      
QSO:  1800 CW 2002-11-24 0110 LZ1ABC        599 20     YU1RA         599 15      
QSO:  1800 CW 2002-11-24 0110 LZ1ABC        599 20     OK1YO         599 15      
QSO:  1800 CW 2002-11-24 0111 LZ1ABC        599 20     S55A          599 15      
QSO:  1800 CW 2002-11-24 0111 LZ1ABC        599 20     OK2HI         599 15      
QSO:  1800 CW 2002-11-24 0114 LZ1ABC        599 20     LY3UM         599 15      
QSO:  1800 CW 2002-11-24 0115 LZ1ABC        599 20     RA3DOX        599 16      
QSO:  1800 CW 2002-11-24 0117 LZ1ABC        599 20     9A4X          599 15      
QSO:  1800 CW 2002-11-24 0119 LZ1ABC        599 20     UY3QW         599 16      
QSO:  1800 CW 2002-11-24 0120 LZ1ABC        599 20     LY1YK         599 15      
QSO:  1800 CW 2002-11-24 0121 LZ1ABC        599 20     RZ3QU         599 16      
QSO:  1800 CW 2002-11-24 0124 LZ1ABC        599 20     DK2GZ         599 14      
QSO:  1800 CW 2002-11-24 0127 LZ1ABC        599 20     UA2BD         599 15      
QSO:  1800 CW 2002-11-24 0129 LZ1ABC        599 20     LX7I          599 14      
QSO:  1800 CW 2002-11-24 0133 LZ1ABC        599 20     9A7A          599 15      
QSO:  3500 CW 2002-11-24 0135 LZ1ABC        599 20     RU3FF         599 16      
QSO:  3500 CW 2002-11-24 0136 LZ1ABC        599 20     KC1XX         599 05      
QSO:  3500 CW 2002-11-24 0139 LZ1ABC        599 20     GW8K          599 14      
QSO:  3500 CW 2002-11-24 0141 LZ1ABC        599 20     OK1HX         599 15      
QSO:  3500 CW 2002-11-24 0142 LZ1ABC        599 20     HG5A          599 15      
QSO:  3500 CW 2002-11-24 0143 LZ1ABC        599 20     IK2ULV        599 15      
QSO:  3500 CW 2002-11-24 0144 LZ1ABC        599 20     DL0KF         599 14      
QSO:  3500 CW 2002-11-24 0145 LZ1ABC        599 20     OK2FPS        599 15      
QSO:  3500 CW 2002-11-24 0145 LZ1ABC        599 20     YT1P          599 15      
QSO:  3500 CW 2002-11-24 0146 LZ1ABC        599 20     EN7Z          599 16      
QSO:  3500 CW 2002-11-24 0149 LZ1ABC        599 20     4L2M          599 21      
QSO:  3500 CW 2002-11-24 0150 LZ1ABC        599 20     DK0MN         599 14      
QSO:  3500 CW 2002-11-24 0153 LZ1ABC        599 20     RZ3DX         599 16      
QSO:  3500 CW 2002-11-24 0154 LZ1ABC        599 20     YO9HP         599 20      
QSO:  3500 CW 2002-11-24 0154 LZ1ABC        599 20     DA0ED         599 14      
QSO:  3500 CW 2002-11-24 0156 LZ1ABC        599 20     GM7V          599 14      
QSO:  3500 CW 2002-11-24 0156 LZ1ABC        599 20     OZ1LO         599 14      
QSO:  3500 CW 2002-11-24 0158 LZ1ABC        599 20     G6PZ          599 14      
QSO:  3500 CW 2002-11-24 0200 LZ1ABC        599 20     OK1AVY        599 15      
QSO:  3500 CW 2002-11-24 0202 LZ1ABC        599 20     OM4DN         599 15      
QSO:  3500 CW 2002-11-24 0203 LZ1ABC        599 20     DL6RAI        599 14      
QSO:  3500 CW 2002-11-24 0206 LZ1ABC        599 20     OK1DSX        599 15      
QSO:  3500 CW 2002-11-24 0206 LZ1ABC        599 20     OK2YZ         599 15      
QSO:  3500 CW 2002-11-24 0207 LZ1ABC        599 20     EI4BZ         599 14      
QSO:  3500 CW 2002-11-24 0207 LZ1ABC        599 20     OK2EC         599 15      
QSO:  3500 CW 2002-11-24 0208 LZ1ABC        599 20     SP8EDD        599 15      
QSO:  3500 CW 2002-11-24 0210 LZ1ABC        599 20     SM6D          599 14      
QSO:  3500 CW 2002-11-24 0210 LZ1ABC        599 20     DL3YBM        599 14      
QSO:  3500 CW 2002-11-24 0210 LZ1ABC        599 20     OL5T          599 15      
QSO:  3500 CW 2002-11-24 0212 LZ1ABC        599 20     S55A          599 15      
QSO:  3500 CW 2002-11-24 0212 LZ1ABC        599 20     F6FFM         599 14      
QSO:  3500 CW 2002-11-24 0214 LZ1ABC        599 20     OM3QQ         599 15      
QSO:  3500 CW 2002-11-24 0215 LZ1ABC        599 20     OM3GB         599 15      
QSO:  3500 CW 2002-11-24 0218 LZ1ABC        599 20     IU2M          599 15      
QSO:  3500 CW 2002-11-24 0219 LZ1ABC        599 20     IV3TQE        599 15      
QSO:  3500 CW 2002-11-24 0220 LZ1ABC        599 20     OK1MKI        599 15      
QSO:  3500 CW 2002-11-24 0220 LZ1ABC        599 20     S57LO         599 15      
QSO:  3500 CW 2002-11-24 0221 LZ1ABC        599 20     UW7M          599 16      
QSO:  3500 CW 2002-11-24 0225 LZ1ABC        599 20     HA0HW         599 15      
QSO:  7000 CW 2002-11-24 0228 LZ1ABC        599 20     UY1M          599 16      
QSO:  7000 CW 2002-11-24 0232 LZ1ABC        599 20     J3A           599 08      
QSO:  7000 CW 2002-11-24 0233 LZ1ABC        599 20     OE2BZL        599 15      
QSO:  7000 CW 2002-11-24 0234 LZ1ABC        599 20     RA4HW         599 16      
QSO:  7000 CW 2002-11-24 0235 LZ1ABC        599 20     UY3QW         599 16      
QSO:  7000 CW 2002-11-24 0236 LZ1ABC        599 20     UA3RF         599 16      
QSO:  7000 CW 2002-11-24 0236 LZ1ABC        599 20     DJ5AZ         599 14      
QSO:  7000 CW 2002-11-24 0237 LZ1ABC        599 20     LY2OU         599 15      
QSO:  7000 CW 2002-11-24 0237 LZ1ABC        599 20     EU1FY         599 16      
QSO:  7000 CW 2002-11-24 0239 LZ1ABC        599 20     UU2JA         599 16      
QSO:  7000 CW 2002-11-24 0240 LZ1ABC        599 20     UA6NZ         599 16      
QSO:  7000 CW 2002-11-24 0241 LZ1ABC        599 20     OK2BDF        599 15      
QSO:  7000 CW 2002-11-24 0241 LZ1ABC        599 20     OE3I          599 15      
QSO:  7000 CW 2002-11-24 0241 LZ1ABC        599 20     W2FU          599 05      
QSO:  7000 CW 2002-11-24 0243 LZ1ABC        599 20     OK1JST        599 15      
QSO:  7000 CW 2002-11-24 0244 LZ1ABC        599 20     UT4XU         599 16      
QSO:  7000 CW 2002-11-24 0246 LZ1ABC        599 20     RZ4AG         599 16      
QSO:  7000 CW 2002-11-24 0247 LZ1ABC        599 20     OK1DSX        599 15      
QSO:  7000 CW 2002-11-24 0248 LZ1ABC        599 20     OK1XC         599 15      
QSO:  7000 CW 2002-11-24 0250 LZ1ABC        599 20     VE3FU         599 04      
QSO:  7000 CW 2002-11-24 0251 LZ1ABC        599 20     ES4RD         599 15      
QSO:  7000 CW 2002-11-24 0251 LZ1ABC        599 20     OL5T          599 15      
QSO:  7000 CW 2002-11-24 0252 LZ1ABC        599 20     OK2PDT        599 15      
QSO:  7000 CW 2002-11-24 0253 LZ1ABC        599 20     UA3GM         599 16      
QSO:  7000 CW 2002-11-24 0255 LZ1ABC        599 20     DH0GHU        599 14      
QSO:  7000 CW 2002-11-24 0256 LZ1ABC        599 20     OH1F          599 15      
QSO:  7000 CW 2002-11-24 0259 LZ1ABC        599 20     W2VJN         599 03      
QSO:  7000 CW 2002-11-24 0300 LZ1ABC        599 20     N4NO          599 04      
QSO:  7000 CW 2002-11-24 0301 LZ1ABC        599 20     N3AM          599 05      
QSO:  7000 CW 2002-11-24 0301 LZ1ABC        599 20     OM4DN         599 15      
QSO:  7000 CW 2002-11-24 0301 LZ1ABC        599 20     YO9AGI        599 20      
QSO:  7000 CW 2002-11-24 0302 LZ1ABC        599 20     W1KM          599 05      
QSO:  7000 CW 2002-11-24 0302 LZ1ABC        599 20     DL8HCO        599 14      
QSO:  7000 CW 2002-11-24 0303 LZ1ABC        599 20     N4AA          599 05      
QSO:  7000 CW 2002-11-24 0304 LZ1ABC        599 20     MJ0ASP        599 14      
QSO:  7000 CW 2002-11-24 0305 LZ1ABC        599 20     RV3LO         599 16      
QSO:  7000 CW 2002-11-24 0306 LZ1ABC        599 20     RK6AYN        599 16      
QSO:  7000 CW 2002-11-24 0307 LZ1ABC        599 20     OK1EP         599 15      
QSO:  7000 CW 2002-11-24 0308 LZ1ABC        599 20     OL2U          599 15      
QSO:  7000 CW 2002-11-24 0309 LZ1ABC        599 20     SN8F          599 15      
QSO:  7000 CW 2002-11-24 0310 LZ1ABC        599 20     K2UOP         599 05      
QSO:  7000 CW 2002-11-24 0312 LZ1ABC        599 20     IV3TQE        599 15      
QSO:  7000 CW 2002-11-24 0312 LZ1ABC        599 20     AA4NU         599 04      
QSO:  7000 CW 2002-11-24 0313 LZ1ABC        599 20     OK1HX         599 15      
QSO:  7000 CW 2002-11-24 0313 LZ1ABC        599 20     RZ1ZZZ        599 16      
QSO:  7000 CW 2002-11-24 0313 LZ1ABC        599 20     ER6A          599 16      
QSO:  7000 CW 2002-11-24 0314 LZ1ABC        599 20     US7IM         599 16      
QSO:  7000 CW 2002-11-24 0314 LZ1ABC        599 20     9A2RD         599 15      
QSO:  7000 CW 2002-11-24 0316 LZ1ABC        599 20     LZ1BJ         599 20      
QSO:  7000 CW 2002-11-24 0319 LZ1ABC        599 20     W3CF          599 05      
QSO:  7000 CW 2002-11-24 0319 LZ1ABC        599 20     K9NS          599 04      
QSO:  7000 CW 2002-11-24 0320 LZ1ABC        599 20     DJ3DQ         599 14      
QSO:  7000 CW 2002-11-24 0321 LZ1ABC        599 20     RZ9SWP        599 17      
QSO:  7000 CW 2002-11-24 0321 LZ1ABC        599 20     S57LO         599 15      
QSO:  7000 CW 2002-11-24 0322 LZ1ABC        599 20     K3GO          599 05      
QSO:  7000 CW 2002-11-24 0323 LZ1ABC        599 20     WN9O          599 04      
QSO:  7000 CW 2002-11-24 0323 LZ1ABC        599 20     W2UP          599 05      
QSO:  7000 CW 2002-11-24 0323 LZ1ABC        599 20     N3ZA          599 05      
QSO:  7000 CW 2002-11-24 0323 LZ1ABC        599 20     ER3R          599 16      
QSO:  7000 CW 2002-11-24 0324 LZ1ABC        599 20     K0KX          599 04      
QSO:  7000 CW 2002-11-24 0325 LZ1ABC        599 20     W0AIH         599 04      
QSO:  7000 CW 2002-11-24 0325 LZ1ABC        599 20     OH6SC         599 15      
QSO:  7000 CW 2002-11-24 0327 LZ1ABC        599 20     VE3YDX/R4     599 16      
QSO:  7000 CW 2002-11-24 0330 LZ1ABC        599 20     4X6FR         599 20      
QSO:  7000 CW 2002-11-24 0333 LZ1ABC        599 20     K3WW          599 05      
QSO:  7000 CW 2002-11-24 0338 LZ1ABC        599 20     PJ2T          599 09      
QSO:  7000 CW 2002-11-24 0339 LZ1ABC        599 20     K5GO          599 04      
QSO:  7000 CW 2002-11-24 0340 LZ1ABC        599 20     C53M          599 35      
QSO:  7000 CW 2002-11-24 0342 LZ1ABC        599 20     OL5Q          599 15      
QSO:  7000 CW 2002-11-24 0344 LZ1ABC        599 20     OH9DX         599 15      
QSO:  7000 CW 2002-11-24 0346 LZ1ABC        599 20     UA4LA         599 16      
QSO:  7000 CW 2002-11-24 0346 LZ1ABC        599 20     OK1AVY        599 15      
QSO:  7000 CW 2002-11-24 0347 LZ1ABC        599 20     YL2SM         599 15      
QSO:  7000 CW 2002-11-24 0348 LZ1ABC        599 20     W0SD          599 04      
QSO:  7000 CW 2002-11-24 0349 LZ1ABC        599 20     DK0DO         599 14      
QSO:  7000 CW 2002-11-24 0350 LZ1ABC        599 20     K4ZW          599 05      
QSO:  7000 CW 2002-11-24 0351 LZ1ABC        599 20     IU2X          599 15      
QSO:  7000 CW 2002-11-24 0356 LZ1ABC        599 20     UR7QM         599 16      
QSO:  3500 CW 2002-11-24 0359 LZ1ABC        599 20     RA4AI         599 16      
QSO:  3500 CW 2002-11-24 0359 LZ1ABC        599 20     9A2KL         599 15      
QSO:  3500 CW 2002-11-24 0400 LZ1ABC        599 20     OK2BZM        599 15      
QSO:  3500 CW 2002-11-24 0401 LZ1ABC        599 20     HA7ML         599 15      
QSO:  3500 CW 2002-11-24 0401 LZ1ABC        599 20     RV3DB         599 16      
QSO:  3500 CW 2002-11-24 0402 LZ1ABC        599 20     UT4XX         599 16      
QSO:  3500 CW 2002-11-24 0402 LZ1ABC        599 20     OM8HG         599 15      
QSO:  3500 CW 2002-11-24 0402 LZ1ABC        599 20     DF4RD         599 14      
QSO:  3500 CW 2002-11-24 0403 LZ1ABC        599 20     US7IM         599 16      
QSO:  3500 CW 2002-11-24 0404 LZ1ABC        599 20     YO9WF         599 20      
QSO:  3500 CW 2002-11-24 0404 LZ1ABC        599 20     RW4FO         599 16      
QSO:  3500 CW 2002-11-24 0407 LZ1ABC        599 20     OK2HWP        599 15      
QSO:  3500 CW 2002-11-24 0411 LZ1ABC        599 20     S59D          599 15      
QSO:  3500 CW 2002-11-24 0412 LZ1ABC        599 20     DL2ANM        599 14      
QSO:  3500 CW 2002-11-24 0416 LZ1ABC        599 20     RZ4AA/QRP     599 16      
QSO:  3500 CW 2002-11-24 0417 LZ1ABC        599 20     8S5A          599 14      
QSO:  3500 CW 2002-11-24 0418 LZ1ABC        599 20     DL3JGN        599 14      
QSO:  3500 CW 2002-11-24 0419 LZ1ABC        599 20     RA4HX         599 16      
QSO:  3500 CW 2002-11-24 0421 LZ1ABC        599 20     ES6Q          599 15      
QSO:  3500 CW 2002-11-24 0422 LZ1ABC        599 20     OK1AOV        599 15      
QSO:  3500 CW 2002-11-24 0423 LZ1ABC        599 20     S52P          599 15      
QSO:  3500 CW 2002-11-24 0423 LZ1ABC        599 20     SP1AEN        599 15      
QSO:  3500 CW 2002-11-24 0426 LZ1ABC        599 20     LA7MFA        599 14      
QSO:  3500 CW 2002-11-24 0426 LZ1ABC        599 20     RA3UT         599 16      
QSO:  3500 CW 2002-11-24 0427 LZ1ABC        599 20     S52RA         599 15      
QSO:  3500 CW 2002-11-24 0429 LZ1ABC        599 20     OZ5UR         599 14      
QSO:  7000 CW 2002-11-24 0434 LZ1ABC        599 20     W4MYA         599 05      
QSO:  7000 CW 2002-11-24 0436 LZ1ABC        599 20     DF4RD         599 14      
QSO:  7000 CW 2002-11-24 0438 LZ1ABC        599 20     N4RV          599 05      
QSO:  7000 CW 2002-11-24 0439 LZ1ABC        599 20     K4GMH         599 05      
QSO:  7000 CW 2002-11-24 0440 LZ1ABC        599 20     RZ1QZZ        599 16      
QSO:  7000 CW 2002-11-24 0440 LZ1ABC        599 20     UV5U          599 16      
QSO:  7000 CW 2002-11-24 0441 LZ1ABC        599 20     W1AO          599 05      
QSO:  7000 CW 2002-11-24 0442 LZ1ABC        599 20     8S0F          599 14      
QSO:  7000 CW 2002-11-24 0443 LZ1ABC        599 20     RA3LO         599 16      
QSO:  7000 CW 2002-11-24 0444 LZ1ABC        599 20     K4XR          599 04      
QSO:  7000 CW 2002-11-24 0445 LZ1ABC        599 20     K4EA          599 05      
QSO:  7000 CW 2002-11-24 0445 LZ1ABC        599 20     K2LE          599 05      
QSO:  7000 CW 2002-11-24 0446 LZ1ABC        599 20     YT1NP         599 15      
QSO:  7000 CW 2002-11-24 0447 LZ1ABC        599 20     RA3UT         599 16      
QSO:  7000 CW 2002-11-24 0448 LZ1ABC        599 20     UR6QS         599 16      
QSO:  7000 CW 2002-11-24 0448 LZ1ABC        599 20     LY2OO         599 15      
QSO:  7000 CW 2002-11-24 0448 LZ1ABC        599 20     UY7C          599 16      
QSO:  7000 CW 2002-11-24 0449 LZ1ABC        599 20     RK3BX         599 16      
QSO:  7000 CW 2002-11-24 0450 LZ1ABC        599 20     UT5EH         599 16      
QSO:  7000 CW 2002-11-24 0450 LZ1ABC        599 20     UW2F          599 16      
QSO:  7000 CW 2002-11-24 0451 LZ1ABC        599 20     UW5U          599 16      
QSO:  7000 CW 2002-11-24 0452 LZ1ABC        599 20     UR7IYI        599 16      
QSO:  7000 CW 2002-11-24 0453 LZ1ABC        599 20     RK9AX         599 17      
QSO:  7000 CW 2002-11-24 0455 LZ1ABC        599 20     TI5N          599 07      
QSO:  7000 CW 2002-11-24 0456 LZ1ABC        599 20     N4CC          599 05      
QSO:  7000 CW 2002-11-24 0457 LZ1ABC        599 20     K4TX          599 05      
QSO:  7000 CW 2002-11-24 0457 LZ1ABC        599 20     OH6MBQ        599 15      
QSO:  7000 CW 2002-11-24 0459 LZ1ABC        599 20     OK1NR         599 15      
QSO:  7000 CW 2002-11-24 0500 LZ1ABC        599 20     SP5ASY        599 15      
QSO:  7000 CW 2002-11-24 0501 LZ1ABC        599 20     UW5Q          599 16      
QSO:  7000 CW 2002-11-24 0501 LZ1ABC        599 20     RN4ZT         599 16      
QSO:  7000 CW 2002-11-24 0502 LZ1ABC        599 20     N4OGW         599 04      
QSO:  7000 CW 2002-11-24 0502 LZ1ABC        599 20     OK2BQ         599 15      
QSO:  7000 CW 2002-11-24 0503 LZ1ABC        599 20     DL3KWF        599 14      
QSO:  7000 CW 2002-11-24 0505 LZ1ABC        599 20     OK2HIJ        599 15      
QSO:  7000 CW 2002-11-24 0508 LZ1ABC        599 20     UT2UB         599 16      
QSO:  7000 CW 2002-11-24 0511 LZ1ABC        599 20     OM6TX         599 15      
QSO:  7000 CW 2002-11-24 0512 LZ1ABC        599 20     UT4PZ         599 16      
QSO:  7000 CW 2002-11-24 0513 LZ1ABC        599 20     RW4FO         599 16      
QSO:  7000 CW 2002-11-24 0514 LZ1ABC        599 20     DL2AMA        599 14      
QSO:  7000 CW 2002-11-24 0515 LZ1ABC        599 20     YO8BPY        599 20      
QSO:  7000 CW 2002-11-24 0515 LZ1ABC        599 20     LA5HE         599 14      
QSO:  7000 CW 2002-11-24 0516 LZ1ABC        599 20     UR3QX         599 16      
QSO:  7000 CW 2002-11-24 0516 LZ1ABC        599 20     RA3AF         599 16      
QSO:  7000 CW 2002-11-24 0517 LZ1ABC        599 20     RN1NW         599 16      
QSO:  7000 CW 2002-11-24 0517 LZ1ABC        599 20     HA8DU         599 15      
QSO:  7000 CW 2002-11-24 0517 LZ1ABC        599 20     UA9XQT        599 17      
QSO:  7000 CW 2002-11-24 0518 LZ1ABC        599 20     F2AR          599 14      
QSO:  7000 CW 2002-11-24 0518 LZ1ABC        599 20     UA1OMZ        599 16      
QSO:  7000 CW 2002-11-24 0519 LZ1ABC        599 20     DL1SDN        599 14      
QSO:  7000 CW 2002-11-24 0519 LZ1ABC        599 20     OK1DOL        599 15      
QSO:  7000 CW 2002-11-24 0520 LZ1ABC        599 20     IT9GAC        599 15      
QSO: 14174 CW 2002-11-24 0525 LZ1ABC        599 20     LZ2TU         599 20      
QSO: 14174 CW 2002-11-24 0526 LZ1ABC        599 20     RK9CZO        599 17      
QSO: 14174 CW 2002-11-24 0527 LZ1ABC        599 20     YI9OM         599 21      
QSO: 14174 CW 2002-11-24 0527 LZ1ABC        599 20     UU7J          599 16      
QSO: 14174 CW 2002-11-24 0529 LZ1ABC        599 20     4X4ARC        599 20      
QSO: 14174 CW 2002-11-24 0531 LZ1ABC        599 20     RU6LWZ        599 16      
QSO: 14174 CW 2002-11-24 0532 LZ1ABC        599 20     OL5T          599 15      
QSO: 14174 CW 2002-11-24 0532 LZ1ABC        599 20     P3A           599 20      
QSO: 14174 CW 2002-11-24 0533 LZ1ABC        599 20     RT3A          599 16      
QSO: 14174 CW 2002-11-24 0533 LZ1ABC        599 20     RW9SW         599 17      
QSO: 14174 CW 2002-11-24 0535 LZ1ABC        599 20     LY7Z          599 15      
QSO: 14174 CW 2002-11-24 0535 LZ1ABC        599 20     SN2A          599 15      
QSO: 14174 CW 2002-11-24 0539 LZ1ABC        599 20     9A1A          599 15      
QSO: 14174 CW 2002-11-24 0540 LZ1ABC        599 20     RN6BY         599 16      
QSO: 14174 CW 2002-11-24 0542 LZ1ABC        599 20     RK9TWA        599 17      
QSO: 14174 CW 2002-11-24 0543 LZ1ABC        599 20     UA9AYA        599 17      
QSO: 14174 CW 2002-11-24 0545 LZ1ABC        599 20     UT0AZA        599 16      
QSO: 14174 CW 2002-11-24 0547 LZ1ABC        599 20     RW9QA         599 17      
QSO: 14174 CW 2002-11-24 0547 LZ1ABC        599 20     H2E           599 20      
QSO: 14174 CW 2002-11-24 0548 LZ1ABC        599 20     UY7C          599 16      
QSO: 14174 CW 2002-11-24 0548 LZ1ABC        599 20     RK3FY         599 16      
QSO: 14174 CW 2002-11-24 0551 LZ1ABC        599 20     UA9ADW        599 17      
QSO: 14174 CW 2002-11-24 0552 LZ1ABC        599 20     YL2GN         599 15      
QSO: 14174 CW 2002-11-24 0553 LZ1ABC        599 20     RW3ZA         599 16      
QSO: 14174 CW 2002-11-24 0553 LZ1ABC        599 20     RA3AF         599 16      
QSO: 14174 CW 2002-11-24 0555 LZ1ABC        599 20     UX0ZX         599 16      
QSO: 14174 CW 2002-11-24 0556 LZ1ABC        599 20     RZ3AV         599 16      
QSO: 14174 CW 2002-11-24 0556 LZ1ABC        599 20     UA9HN         599 18      
QSO: 14174 CW 2002-11-24 0559 LZ1ABC        599 20     UA9CGL        599 17      
QSO: 14174 CW 2002-11-24 0600 LZ1ABC        599 20     EU2MM         599 16      
QSO: 14174 CW 2002-11-24 0600 LZ1ABC        599 20     US1ITU        599 16      
QSO: 14174 CW 2002-11-24 0601 LZ1ABC        599 20     US0Q          599 16      
QSO: 14174 CW 2002-11-24 0602 LZ1ABC        599 20     UX8IX         599 16      
QSO: 14174 CW 2002-11-24 0602 LZ1ABC        599 20     N4TO          599 05      
QSO: 14174 CW 2002-11-24 0603 LZ1ABC        599 20     RA6AAW        599 16      
QSO: 14174 CW 2002-11-24 0603 LZ1ABC        599 20     IV3TQE        599 15      
QSO: 14174 CW 2002-11-24 0606 LZ1ABC        599 20     PY2NY         599 11      
QSO: 14174 CW 2002-11-24 0609 LZ1ABC        599 20     4X6FR         599 20      
QSO: 14174 CW 2002-11-24 0611 LZ1ABC        599 20     RW9UW         599 18      
QSO: 14174 CW 2002-11-24 0612 LZ1ABC        599 20     C4W           599 20      
QSO: 14174 CW 2002-11-24 0615 LZ1ABC        599 20     UA9AX         599 17      
QSO: 14174 CW 2002-11-24 0618 LZ1ABC        599 20     PA3EWP        599 14      
QSO: 14174 CW 2002-11-24 0620 LZ1ABC        599 20     UA6JD         599 16      
QSO: 28000 CW 2002-11-24 0622 LZ1ABC        599 20     JH7PKU        599 25      
QSO: 28000 CW 2002-11-24 0624 LZ1ABC        599 20     UA9AM         599 17      
QSO: 28000 CW 2002-11-24 0625 LZ1ABC        599 20     HL2FDW        599 25      
QSO: 28000 CW 2002-11-24 0628 LZ1ABC        599 20     RA9WW         599 17      
QSO: 28000 CW 2002-11-24 0628 LZ1ABC        599 20     JS1OYN        599 25      
QSO: 28000 CW 2002-11-24 0629 LZ1ABC        599 20     JA1NLX        599 25      
QSO: 28000 CW 2002-11-24 0631 LZ1ABC        599 20     JA2KVB        599 25      
QSO: 28000 CW 2002-11-24 0631 LZ1ABC        599 20     UA4PQB        599 16      
QSO: 28000 CW 2002-11-24 0632 LZ1ABC        599 20     JH2NWP        599 25      
QSO: 28000 CW 2002-11-24 0632 LZ1ABC        599 20     RU0LL         599 19      
QSO: 28000 CW 2002-11-24 0633 LZ1ABC        599 20     JG1EIQ        599 25      
QSO: 28000 CW 2002-11-24 0634 LZ1ABC        599 20     UA9AMF        599 17      
QSO: 28000 CW 2002-11-24 0635 LZ1ABC        599 20     JK1AFI        599 25      
QSO: 28000 CW 2002-11-24 0635 LZ1ABC        599 20     JA1LSP        599 25      
QSO: 28000 CW 2002-11-24 0636 LZ1ABC        599 20     RU3XB         599 16      
QSO: 28000 CW 2002-11-24 0637 LZ1ABC        599 20     UA9YE         599 18      
QSO: 21000 CW 2002-11-24 0639 LZ1ABC        599 20     JK3GWT        599 25      
QSO: 21000 CW 2002-11-24 0641 LZ1ABC        599 20     JA4KTE        599 25      
QSO: 21000 CW 2002-11-24 0642 LZ1ABC        599 20     S53AK         599 15      
QSO: 21000 CW 2002-11-24 0642 LZ1ABC        599 20     JA1CWZ        599 25      
QSO: 21000 CW 2002-11-24 0643 LZ1ABC        599 20     JF7PHE        599 25      
QSO: 21000 CW 2002-11-24 0644 LZ1ABC        599 20     JS1OYN        599 25      
QSO: 21000 CW 2002-11-24 0645 LZ1ABC        599 20     RW0AJ         599 18      
QSO: 21000 CW 2002-11-24 0647 LZ1ABC        599 20     UA4ANZ        599 16      
QSO: 21000 CW 2002-11-24 0647 LZ1ABC        599 20     UA3DK         599 16      
QSO: 21000 CW 2002-11-24 0648 LZ1ABC        599 20     JA6BVB        599 25      
QSO: 21000 CW 2002-11-24 0649 LZ1ABC        599 20     UA4AON        599 16      
QSO: 21000 CW 2002-11-24 0650 LZ1ABC        599 20     RN1CW         599 16      
QSO: 21000 CW 2002-11-24 0650 LZ1ABC        599 20     OK1GT         599 15      
QSO: 21000 CW 2002-11-24 0651 LZ1ABC        599 20     RZ4AO         599 16      
QSO: 21000 CW 2002-11-24 0654 LZ1ABC        599 20     OH6AC         599 15      
QSO: 21000 CW 2002-11-24 0655 LZ1ABC        599 20     JI7NUF        599 25      
QSO: 21000 CW 2002-11-24 0657 LZ1ABC        599 20     JR3EOI        599 25      
QSO: 21000 CW 2002-11-24 0657 LZ1ABC        599 20     JH5FXP        599 25      
QSO: 21000 CW 2002-11-24 0658 LZ1ABC        599 20     RG9O          599 18      
QSO: 21000 CW 2002-11-24 0659 LZ1ABC        599 20     OE5CWL/5      599 15      
QSO: 21000 CW 2002-11-24 0700 LZ1ABC        599 20     7K4XNN        599 25      
QSO: 21000 CW 2002-11-24 0700 LZ1ABC        599 20     ES6Q          599 15      
QSO: 21000 CW 2002-11-24 0702 LZ1ABC        599 20     HA3NU         599 15      
QSO: 21000 CW 2002-11-24 0703 LZ1ABC        599 20     XT2DX         599 35      
QSO: 21000 CW 2002-11-24 0704 LZ1ABC        599 20     JG8NKJ        599 25      
QSO: 21000 CW 2002-11-24 0705 LZ1ABC        599 20     JR3NZC        599 25      
QSO: 21000 CW 2002-11-24 0706 LZ1ABC        599 20     4K7Z          599 21      
QSO: 21000 CW 2002-11-24 0708 LZ1ABC        599 20     VU2WAP        599 22      
QSO: 21000 CW 2002-11-24 0711 LZ1ABC        599 20     UN7QX         599 17      
QSO: 21000 CW 2002-11-24 0711 LZ1ABC        599 20     JJ3YBB        599 25      
QSO: 21000 CW 2002-11-24 0712 LZ1ABC        599 20     8S5A          599 14      
QSO: 21000 CW 2002-11-24 0712 LZ1ABC        599 20     HZ1AB         599 21      
QSO: 21000 CW 2002-11-24 0713 LZ1ABC        599 20     JA7SSB        599 25      
QSO: 21000 CW 2002-11-24 0713 LZ1ABC        599 20     UA9CLB        599 17      
QSO: 21000 CW 2002-11-24 0714 LZ1ABC        599 20     JH2BCN        599 25      
QSO: 21000 CW 2002-11-24 0715 LZ1ABC        599 20     RU0LL         599 19      
QSO: 21000 CW 2002-11-24 0716 LZ1ABC        599 20     5H3RK         599 37      
QSO: 21000 CW 2002-11-24 0719 LZ1ABC        599 20     SM4F          599 14      
QSO: 21000 CW 2002-11-24 0720 LZ1ABC        599 20     JH0NEC        599 25      
QSO: 21000 CW 2002-11-24 0722 LZ1ABC        599 20     JK1OLT        599 25      
QSO: 21000 CW 2002-11-24 0722 LZ1ABC        599 20     YL6W          599 15      
QSO: 21000 CW 2002-11-24 0723 LZ1ABC        599 20     OK1DTP        599 15      
QSO: 21000 CW 2002-11-24 0725 LZ1ABC        599 20     OL7R          599 15      
QSO: 21000 CW 2002-11-24 0727 LZ1ABC        599 20     EY7AB         599 17      
QSO: 21000 CW 2002-11-24 0730 LZ1ABC        599 20     M0BJL         599 14      
QSO: 21000 CW 2002-11-24 0732 LZ1ABC        599 20     9V1YC         599 28      
QSO: 21000 CW 2002-11-24 0734 LZ1ABC        599 20     UA4AN         599 16      
QSO: 21000 CW 2002-11-24 0734 LZ1ABC        599 20     RA3AN         599 16      
QSO: 21000 CW 2002-11-24 0736 LZ1ABC        599 20     RU1A          599 16      
QSO: 21000 CW 2002-11-24 0738 LZ1ABC        599 20     RK9JWV        599 18      
QSO: 21000 CW 2002-11-24 0743 LZ1ABC        599 20     RW4WN         599 16      
QSO: 21000 CW 2002-11-24 0743 LZ1ABC        599 20     UA9CKN        599 17      
QSO: 21000 CW 2002-11-24 0746 LZ1ABC        599 20     LY3BX         599 15      
QSO: 21000 CW 2002-11-24 0747 LZ1ABC        599 20     JQ1NGT        599 25      
QSO: 28000 CW 2002-11-24 0747 LZ1ABC        599 20     DL4WA         599 14      
QSO: 28000 CW 2002-11-24 0748 LZ1ABC        599 20     7K4XNN        599 25      
QSO: 28000 CW 2002-11-24 0801 LZ1ABC        599 20     JA1LZR        599 25      
QSO: 28000 CW 2002-11-24 0818 LZ1ABC        599 20     OK1DZR        599 15      
QSO: 28000 CW 2002-11-24 0821 LZ1ABC        599 20     DL6RAI        599 14      
QSO: 28000 CW 2002-11-24 0822 LZ1ABC        599 20     9A7A          599 15      
QSO: 28000 CW 2002-11-24 0823 LZ1ABC        599 20     RT9W          599 17      
QSO: 28000 CW 2002-11-24 0825 LZ1ABC        599 20     SQ6Z          599 15      
QSO: 28000 CW 2002-11-24 0826 LZ1ABC        599 20     RA1OZ         599 16      
QSO: 28000 CW 2002-11-24 0829 LZ1ABC        599 20     OH2LU         599 15      
QSO: 28000 CW 2002-11-24 0830 LZ1ABC        599 20     OH6RE         599 15      
QSO: 28000 CW 2002-11-24 0830 LZ1ABC        599 20     OH2XF         599 15      
QSO: 28000 CW 2002-11-24 0830 LZ1ABC        599 20     OH4R          599 15      
QSO: 28000 CW 2002-11-24 0831 LZ1ABC        599 20     OH5BA         599 15      
QSO: 28000 CW 2002-11-24 0832 LZ1ABC        599 20     OK1DUG        599 15      
QSO: 28000 CW 2002-11-24 0833 LZ1ABC        599 20     RV1CC         599 16      
QSO: 28000 CW 2002-11-24 0833 LZ1ABC        599 20     RA4UN         599 16      
QSO: 28000 CW 2002-11-24 0837 LZ1ABC        599 20     9S1X          599 36      
QSO: 21224 CW 2002-11-24 0845 LZ1ABC        599 20     D4B           599 35      
QSO: 21224 CW 2002-11-24 0846 LZ1ABC        599 20     RU6CQ         599 16      
QSO: 21224 CW 2002-11-24 0847 LZ1ABC        599 20     RK9CZO        599 17      
QSO: 21224 CW 2002-11-24 0848 LZ1ABC        599 20     AH2R          599 27      
QSO: 21224 CW 2002-11-24 0850 LZ1ABC        599 20     CT3EE         599 33      
QSO: 21224 CW 2002-11-24 0851 LZ1ABC        599 20     JA2ZJW        599 25      
QSO: 21224 CW 2002-11-24 0851 LZ1ABC        599 20     JA5BJC        599 25      
QSO: 21224 CW 2002-11-24 0852 LZ1ABC        599 20     UA3AGW        599 16      
QSO: 21224 CW 2002-11-24 0853 LZ1ABC        599 20     JR6EZE        599 25      
QSO: 21224 CW 2002-11-24 0855 LZ1ABC        599 20     EA5FV         599 14      
QSO: 21224 CW 2002-11-24 0856 LZ1ABC        599 20     UT0AZA        599 16      
QSO: 21224 CW 2002-11-24 0857 LZ1ABC        599 20     RL3A          599 16      
QSO: 21224 CW 2002-11-24 0858 LZ1ABC        599 20     DL2FDL        599 14      
QSO: 21224 CW 2002-11-24 0859 LZ1ABC        599 20     F8UFT         599 14      
QSO: 21224 CW 2002-11-24 0859 LZ1ABC        599 20     LY2IJ         599 15      
QSO: 21224 CW 2002-11-24 0900 LZ1ABC        599 20     SK0X          599 14      
QSO: 21224 CW 2002-11-24 0901 LZ1ABC        599 20     EA6IB         599 14      
QSO: 21224 CW 2002-11-24 0902 LZ1ABC        599 20     DL0KF         599 14      
QSO: 21224 CW 2002-11-24 0902 LZ1ABC        599 20     UN6T          599 17      
QSO: 21224 CW 2002-11-24 0904 LZ1ABC        599 20     P3A           599 20      
QSO: 21224 CW 2002-11-24 0905 LZ1ABC        599 20     RA3XO         599 16      
QSO: 21224 CW 2002-11-24 0907 LZ1ABC        599 20     ZC4VG         599 20      
QSO: 21224 CW 2002-11-24 0908 LZ1ABC        599 20     JF1SEK        599 25      
QSO: 21224 CW 2002-11-24 0909 LZ1ABC        599 20     UA9KJ         599 17      
QSO: 21224 CW 2002-11-24 0911 LZ1ABC        599 20     ES1BH         599 15      
QSO: 21224 CW 2002-11-24 0912 LZ1ABC        599 20     EW6AF         599 16      
QSO: 21224 CW 2002-11-24 0913 LZ1ABC        599 20     RW3ZC         599 16      
QSO: 21224 CW 2002-11-24 0914 LZ1ABC        599 20     ON7CB         599 14      
QSO: 21224 CW 2002-11-24 0914 LZ1ABC        599 20     RV6AJ         599 16      
QSO: 21224 CW 2002-11-24 0914 LZ1ABC        599 20     UR6IJ         599 16      
QSO: 21224 CW 2002-11-24 0916 LZ1ABC        599 20     F6EMA         599 14      
QSO: 21224 CW 2002-11-24 0917 LZ1ABC        599 20     SP2QG         599 15      
QSO: 21224 CW 2002-11-24 0917 LZ1ABC        599 20     LA3BO         599 14      
QSO: 14000 CW 2002-11-24 0922 LZ1ABC        599 20     OE5CYL        599 15      
QSO: 14000 CW 2002-11-24 0922 LZ1ABC        599 20     JA9CWJ        599 25      
QSO: 14000 CW 2002-11-24 0924 LZ1ABC        599 20     UR4EWV        599 16      
QSO: 14000 CW 2002-11-24 0925 LZ1ABC        599 20     JT9QJ         599 23      
QSO: 14000 CW 2002-11-24 0926 LZ1ABC        599 20     RA3AUM        599 16      
QSO: 14000 CW 2002-11-24 0927 LZ1ABC        599 20     SP6CES        599 15      
QSO: 14000 CW 2002-11-24 0928 LZ1ABC        599 20     JA7YAA        599 25      
QSO: 14000 CW 2002-11-24 0930 LZ1ABC        599 20     8P5A          599 08      
QSO: 14000 CW 2002-11-24 0931 LZ1ABC        599 20     RK9JWV        599 18      
QSO: 14000 CW 2002-11-24 0932 LZ1ABC        599 20     MW5A          599 14      
QSO: 14000 CW 2002-11-24 0932 LZ1ABC        599 20     UV5U          599 16      
QSO: 14000 CW 2002-11-24 0934 LZ1ABC        599 20     CN2R          599 33      
QSO: 14000 CW 2002-11-24 0935 LZ1ABC        599 20     HA8MT         599 15      
QSO: 14000 CW 2002-11-24 0935 LZ1ABC        599 20     JH7PKU        599 25      
QSO: 14000 CW 2002-11-24 0936 LZ1ABC        599 20     DA0MF         599 14      
QSO: 14000 CW 2002-11-24 0937 LZ1ABC        599 20     HG1S          599 15      
QSO: 14000 CW 2002-11-24 0937 LZ1ABC        599 20     RV3YR         599 16      
QSO: 14000 CW 2002-11-24 0939 LZ1ABC        599 20     RA3AJ         599 16      
QSO: 14000 CW 2002-11-24 0940 LZ1ABC        599 20     OK2TBC        599 15      
QSO: 14000 CW 2002-11-24 0941 LZ1ABC        599 20     DL6YFG        599 14      
QSO: 14000 CW 2002-11-24 0942 LZ1ABC        599 20     DL0IT         599 14      
QSO: 14000 CW 2002-11-24 0942 LZ1ABC        599 20     OK2BOV        599 15      
QSO: 14000 CW 2002-11-24 0943 LZ1ABC        599 20     I5CQL         599 15      
QSO: 14000 CW 2002-11-24 0944 LZ1ABC        599 20     OK2EQ         599 15      
QSO: 14000 CW 2002-11-24 0944 LZ1ABC        599 20     G5LP          599 14      
QSO: 14000 CW 2002-11-24 0946 LZ1ABC        599 20     OK2PDT        599 15      
QSO: 14000 CW 2002-11-24 0947 LZ1ABC        599 20     EA4WD         599 14      
QSO: 14000 CW 2002-11-24 0949 LZ1ABC        599 20     CT1ILT        599 14      
QSO: 14000 CW 2002-11-24 0951 LZ1ABC        599 20     OP0GS         599 14      
QSO: 14000 CW 2002-11-24 0952 LZ1ABC        599 20     EA5AIH        599 14      
QSO: 14000 CW 2002-11-24 0952 LZ1ABC        599 20     LY9A          599 15      
QSO: 14000 CW 2002-11-24 0953 LZ1ABC        599 20     S52ZW         599 15      
QSO: 14000 CW 2002-11-24 0953 LZ1ABC        599 20     SM5D          599 14      
QSO: 14000 CW 2002-11-24 0954 LZ1ABC        599 20     LY1CX         599 15      
QSO: 14000 CW 2002-11-24 0954 LZ1ABC        599 20     HA8TP         599 15      
QSO: 14000 CW 2002-11-24 0955 LZ1ABC        599 20     ON4IA         599 14      
QSO: 14000 CW 2002-11-24 0956 LZ1ABC        599 20     GI5W          599 14      
QSO: 14000 CW 2002-11-24 0958 LZ1ABC        599 20     EA6/DL1GGT    599 14      
QSO: 14000 CW 2002-11-24 0958 LZ1ABC        599 20     OM5M          599 15      
QSO: 14000 CW 2002-11-24 0959 LZ1ABC        599 20     DJ9DZ         599 14      
QSO: 14000 CW 2002-11-24 1000 LZ1ABC        599 20     DL0KF         599 14      
QSO: 14000 CW 2002-11-24 1000 LZ1ABC        599 20     OM7M          599 15      
QSO: 14000 CW 2002-11-24 1001 LZ1ABC        599 20     4X6PO         599 20      
QSO: 14000 CW 2002-11-24 1003 LZ1ABC        599 20     IK2AOO        599 15      
QSO: 14000 CW 2002-11-24 1003 LZ1ABC        599 20     OK1EP         599 15      
QSO: 14000 CW 2002-11-24 1004 LZ1ABC        599 20     OK1DSA        599 15      
QSO: 14000 CW 2002-11-24 1005 LZ1ABC        599 20     F8AWQ         599 14      
QSO: 14000 CW 2002-11-24 1005 LZ1ABC        599 20     N4DU          599 05      
QSO: 14000 CW 2002-11-24 1005 LZ1ABC        599 20     OM4TX         599 15      
QSO: 14000 CW 2002-11-24 1005 LZ1ABC        599 20     G3OWO         599 14      
QSO: 14000 CW 2002-11-24 1006 LZ1ABC        599 20     F5SGI         599 14      
QSO: 14000 CW 2002-11-24 1006 LZ1ABC        599 20     RA2FBC        599 15      
QSO: 14000 CW 2002-11-24 1006 LZ1ABC        599 20     HB9CBR        599 14      
QSO: 14000 CW 2002-11-24 1007 LZ1ABC        599 20     HA8AL         599 15      
QSO: 14000 CW 2002-11-24 1008 LZ1ABC        599 20     G0KDZ         599 14      
QSO: 14000 CW 2002-11-24 1009 LZ1ABC        599 20     F5VBT         599 14      
QSO: 14000 CW 2002-11-24 1009 LZ1ABC        599 20     S52P          599 15      
QSO: 14000 CW 2002-11-24 1010 LZ1ABC        599 20     IK5ZQB        599 15      
QSO: 14000 CW 2002-11-24 1011 LZ1ABC        599 20     G0LZL         599 14      
QSO: 14000 CW 2002-11-24 1011 LZ1ABC        599 20     OK2VX         599 15      
QSO: 14000 CW 2002-11-24 1012 LZ1ABC        599 20     ON7SS         599 14      
QSO: 14000 CW 2002-11-24 1012 LZ1ABC        599 20     I0SKK         599 15      
QSO: 14000 CW 2002-11-24 1013 LZ1ABC        599 20     DF4EU         599 14      
QSO: 14000 CW 2002-11-24 1013 LZ1ABC        599 20     IK4UNH        599 15      
QSO: 14000 CW 2002-11-24 1014 LZ1ABC        599 20     YL2BJ         599 15      
QSO: 14000 CW 2002-11-24 1014 LZ1ABC        599 20     F5CBQ         599 14      
QSO: 14000 CW 2002-11-24 1015 LZ1ABC        599 20     OM6TX         599 15      
QSO: 14000 CW 2002-11-24 1016 LZ1ABC        599 20     DK7NCX        599 14      
QSO: 14000 CW 2002-11-24 1017 LZ1ABC        599 20     F5JLV         599 14      
QSO: 14000 CW 2002-11-24 1018 LZ1ABC        599 20     SM6D          599 14      
QSO: 14000 CW 2002-11-24 1018 LZ1ABC        599 20     RZ1AWO        599 16      
QSO: 14000 CW 2002-11-24 1019 LZ1ABC        599 20     SQ9ZM         599 15      
QSO: 14000 CW 2002-11-24 1020 LZ1ABC        599 20     OK1FRO        599 15      
QSO: 14000 CW 2002-11-24 1020 LZ1ABC        599 20     LY7A          599 15      
QSO: 14000 CW 2002-11-24 1020 LZ1ABC        599 20     DL0GL         599 14      
QSO: 14000 CW 2002-11-24 1021 LZ1ABC        599 20     YT7TY         599 15      
QSO: 28000 CW 2002-11-24 1025 LZ1ABC        599 20     LX5A          599 14      
QSO: 28000 CW 2002-11-24 1028 LZ1ABC        599 20     PI4ZLD        599 14      
QSO: 28000 CW 2002-11-24 1029 LZ1ABC        599 20     LA8OM         599 14      
QSO: 28000 CW 2002-11-24 1030 LZ1ABC        599 20     ES2X          599 15      
QSO: 28000 CW 2002-11-24 1032 LZ1ABC        599 20     ES1CW         599 15      
QSO: 28000 CW 2002-11-24 1032 LZ1ABC        599 20     UA3DPM        599 16      
QSO: 28000 CW 2002-11-24 1032 LZ1ABC        599 20     UA0KCL/3      599 16      
QSO: 28000 CW 2002-11-24 1033 LZ1ABC        599 20     LA9TJA        599 14      
QSO: 28000 CW 2002-11-24 1033 LZ1ABC        599 20     UA3PW         599 16      
QSO: 28000 CW 2002-11-24 1034 LZ1ABC        599 20     ES6PZ         599 15      
QSO: 28000 CW 2002-11-24 1035 LZ1ABC        599 20     G4DDX         599 14      
QSO: 28000 CW 2002-11-24 1036 LZ1ABC        599 20     UA9SG         599 17      
QSO: 28000 CW 2002-11-24 1037 LZ1ABC        599 20     OH2JXA        599 15      
QSO: 28000 CW 2002-11-24 1039 LZ1ABC        599 20     ES6Q          599 15      
QSO: 28000 CW 2002-11-24 1040 LZ1ABC        599 20     T94NO         599 15      
QSO: 28000 CW 2002-11-24 1045 LZ1ABC        599 20     RZ1AWO        599 16      
QSO: 28000 CW 2002-11-24 1046 LZ1ABC        599 20     RN9WWW        599 17      
QSO: 28000 CW 2002-11-24 1049 LZ1ABC        599 20     OH1HD         599 15      
QSO: 28000 CW 2002-11-24 1050 LZ1ABC        599 20     RK9AX         599 17      
QSO: 28000 CW 2002-11-24 1051 LZ1ABC        599 20     LY1YK         599 15      
QSO: 28000 CW 2002-11-24 1052 LZ1ABC        599 20     RU9CZD        599 17      
QSO: 28000 CW 2002-11-24 1057 LZ1ABC        599 20     YO3FRI        599 20      
QSO: 28000 CW 2002-11-24 1103 LZ1ABC        599 20     8P5A          599 08      
QSO: 28000 CW 2002-11-24 1105 LZ1ABC        599 20     3V8BB         599 33      
QSO: 28000 CW 2002-11-24 1106 LZ1ABC        599 20     GW0GEI        599 14      
QSO: 28000 CW 2002-11-24 1108 LZ1ABC        599 20     9L1AB         599 35      
QSO: 28000 CW 2002-11-24 1114 LZ1ABC        599 20     C53M          599 35      
QSO: 28000 CW 2002-11-24 1115 LZ1ABC        599 20     EA1CXH        599 14      
QSO: 28000 CW 2002-11-24 1117 LZ1ABC        599 20     RN4SS         599 16      
QSO: 28000 CW 2002-11-24 1121 LZ1ABC        599 20     3C3MV         599 36      
QSO: 28000 CW 2002-11-24 1122 LZ1ABC        599 20     EA5GX         599 14      
QSO: 28000 CW 2002-11-24 1124 LZ1ABC        599 20     VK4TT         599 30      
QSO: 28000 CW 2002-11-24 1125 LZ1ABC        599 20     G6PZ          599 14      
QSO: 28000 CW 2002-11-24 1126 LZ1ABC        599 20     GI5W          599 14      
QSO: 28000 CW 2002-11-24 1127 LZ1ABC        599 20     LX7I          599 14      
QSO: 28000 CW 2002-11-24 1134 LZ1ABC        599 20     EA4NP         599 14      
QSO: 28000 CW 2002-11-24 1135 LZ1ABC        599 20     RI4C          599 16      
QSO: 28000 CW 2002-11-24 1137 LZ1ABC        599 20     CT3KN         599 33      
QSO: 21224 CW 2002-11-24 1144 LZ1ABC        599 20     V26K          599 08      
QSO: 21224 CW 2002-11-24 1145 LZ1ABC        599 20     G3WUX         599 14      
QSO: 21224 CW 2002-11-24 1146 LZ1ABC        599 20     D44TD         599 35      
QSO: 21224 CW 2002-11-24 1146 LZ1ABC        599 20     DF0HQ         599 14      
QSO: 21224 CW 2002-11-24 1147 LZ1ABC        599 20     4Z5QQ         599 20      
QSO: 21224 CW 2002-11-24 1149 LZ1ABC        599 20     S51FB         599 15      
QSO: 21224 CW 2002-11-24 1150 LZ1ABC        599 20     PB6X          599 14      
QSO: 21224 CW 2002-11-24 1151 LZ1ABC        599 20     RA0BA         599 18      
QSO: 21224 CW 2002-11-24 1153 LZ1ABC        599 20     4X6FR         599 20      
QSO: 21224 CW 2002-11-24 1154 LZ1ABC        599 20     GM0F          599 14      
QSO: 21224 CW 2002-11-24 1154 LZ1ABC        599 20     G8D           599 14      
QSO: 21224 CW 2002-11-24 1156 LZ1ABC        599 20     GI5W          599 14      
QSO: 21224 CW 2002-11-24 1201 LZ1ABC        599 20     YD2USR        599 28      
QSO: 21224 CW 2002-11-24 1203 LZ1ABC        599 20     RD3R          599 16      
QSO: 21224 CW 2002-11-24 1211 LZ1ABC        599 20     SP9KTL        599 15      
QSO: 21224 CW 2002-11-24 1212 LZ1ABC        599 20     UN2E          599 17      
QSO: 14000 CW 2002-11-24 1213 LZ1ABC        599 20     OK5W          599 15      
QSO: 14000 CW 2002-11-24 1215 LZ1ABC        599 20     DA0ED         599 14      
QSO: 14000 CW 2002-11-24 1217 LZ1ABC        599 20     T95A          599 15      
QSO: 14000 CW 2002-11-24 1218 LZ1ABC        599 20     YT1BB         599 15      
QSO: 14000 CW 2002-11-24 1219 LZ1ABC        599 20     S53EO         599 15      
QSO: 14000 CW 2002-11-24 1220 LZ1ABC        599 20     UT2FA         599 16      
QSO: 14000 CW 2002-11-24 1222 LZ1ABC        599 20     VE3AT         599 04      
QSO: 14000 CW 2002-11-24 1224 LZ1ABC        599 20     TM5C          599 14      
QSO: 14000 CW 2002-11-24 1224 LZ1ABC        599 20     ES1AJ         599 15      
QSO: 14000 CW 2002-11-24 1225 LZ1ABC        599 20     W4RX          599 05      
QSO: 14000 CW 2002-11-24 1228 LZ1ABC        599 20     DL3IAO        599 14      
QSO: 14000 CW 2002-11-24 1228 LZ1ABC        599 20     W9RE          599 04      
QSO: 14000 CW 2002-11-24 1229 LZ1ABC        599 20     K8AZ          599 04      
QSO: 14000 CW 2002-11-24 1230 LZ1ABC        599 20     EA7WA         599 14      
QSO: 14000 CW 2002-11-24 1231 LZ1ABC        599 20     OM6RM         599 15      
QSO: 14000 CW 2002-11-24 1233 LZ1ABC        599 20     K5ZD          599 05      
QSO: 14000 CW 2002-11-24 1235 LZ1ABC        599 20     DJ2YE         599 14      
QSO: 14000 CW 2002-11-24 1235 LZ1ABC        599 20     S51F          599 15      
QSO: 14000 CW 2002-11-24 1237 LZ1ABC        599 20     SP6RGC        599 15      
QSO: 14000 CW 2002-11-24 1238 LZ1ABC        599 20     PA0JNH        599 14      
QSO: 14000 CW 2002-11-24 1241 LZ1ABC        599 20     VE2AYU        599 05      
QSO: 14000 CW 2002-11-24 1242 LZ1ABC        599 20     VE3EJ         599 04      
QSO: 14000 CW 2002-11-24 1243 LZ1ABC        599 20     WN9O          599 04      
QSO: 14000 CW 2002-11-24 1243 LZ1ABC        599 20     EA1CXH        599 14      
QSO: 14000 CW 2002-11-24 1244 LZ1ABC        599 20     K2LE          599 05      
QSO: 14000 CW 2002-11-24 1245 LZ1ABC        599 20     K4EA          599 05      
QSO: 14000 CW 2002-11-24 1247 LZ1ABC        599 20     N2BA          599 05      
QSO: 14000 CW 2002-11-24 1249 LZ1ABC        599 20     OK2ZC         599 15      
QSO: 14000 CW 2002-11-24 1250 LZ1ABC        599 20     DL6FBL        599 14      
QSO: 14000 CW 2002-11-24 1251 LZ1ABC        599 20     W8AV          599 04      
QSO: 14000 CW 2002-11-24 1252 LZ1ABC        599 20     G4BUO         599 14      
QSO: 14000 CW 2002-11-24 1252 LZ1ABC        599 20     G3RXP         599 14      
QSO: 14000 CW 2002-11-24 1253 LZ1ABC        599 20     N1IX          599 05      
QSO: 14000 CW 2002-11-24 1259 LZ1ABC        599 20     VK6LW         599 29      
QSO: 14000 CW 2002-11-24 1301 LZ1ABC        599 20     SN7Q          599 15      
QSO: 14000 CW 2002-11-24 1303 LZ1ABC        599 20     DL5YM         599 14      
QSO: 14000 CW 2002-11-24 1304 LZ1ABC        599 20     RW2F          599 15      
QSO: 14000 CW 2002-11-24 1304 LZ1ABC        599 20     EX2X          599 17      
QSO: 14000 CW 2002-11-24 1305 LZ1ABC        599 20     S57Z          599 15      
QSO: 14000 CW 2002-11-24 1305 LZ1ABC        599 20     LY1DT         599 15      
QSO: 14000 CW 2002-11-24 1306 LZ1ABC        599 20     UA3DNR        599 16      
QSO: 14000 CW 2002-11-24 1308 LZ1ABC        599 20     UN7JX         599 17      
QSO: 28000 CW 2002-11-24 1309 LZ1ABC        599 20     W1FJ          599 05      
QSO: 28000 CW 2002-11-24 1309 LZ1ABC        599 20     WC1M          599 05      
QSO: 28000 CW 2002-11-24 1311 LZ1ABC        599 20     K8JQ          599 05      
QSO: 28000 CW 2002-11-24 1313 LZ1ABC        599 20     K1TH          599 05      
QSO: 28000 CW 2002-11-24 1314 LZ1ABC        599 20     M0O           599 14      
QSO: 28000 CW 2002-11-24 1315 LZ1ABC        599 20     K4GHS         599 05      
QSO: 28000 CW 2002-11-24 1317 LZ1ABC        599 20     OH5NE         599 15      
QSO: 28000 CW 2002-11-24 1318 LZ1ABC        599 20     K2NJ          599 05      
QSO: 28000 CW 2002-11-24 1319 LZ1ABC        599 20     N1WR          599 05      
QSO: 28000 CW 2002-11-24 1319 LZ1ABC        599 20     N4RV          599 05      
QSO: 28000 CW 2002-11-24 1320 LZ1ABC        599 20     N2NI          599 05      
QSO: 28000 CW 2002-11-24 1322 LZ1ABC        599 20     TM2Y          599 14      
QSO: 28000 CW 2002-11-24 1324 LZ1ABC        599 20     N3AD          599 05      
QSO: 28000 CW 2002-11-24 1326 LZ1ABC        599 20     V26K          599 08      
QSO: 28000 CW 2002-11-24 1327 LZ1ABC        599 20     KC1XX         599 05      
QSO: 28000 CW 2002-11-24 1327 LZ1ABC        599 20     EA7WA         599 14      
QSO: 28000 CW 2002-11-24 1331 LZ1ABC        599 20     9K9X          599 21      
QSO: 28000 CW 2002-11-24 1332 LZ1ABC        599 20     OH6RX         599 15      
QSO: 28000 CW 2002-11-24 1332 LZ1ABC        599 20     N4OX          599 05      
QSO: 28000 CW 2002-11-24 1333 LZ1ABC        599 20     K4WI          599 04      
QSO: 28000 CW 2002-11-24 1334 LZ1ABC        599 20     WD4AHZ        599 05      
QSO: 28000 CW 2002-11-24 1335 LZ1ABC        599 20     OH3JF         599 15      
QSO: 28000 CW 2002-11-24 1338 LZ1ABC        599 20     J3A           599 08      
QSO: 28000 CW 2002-11-24 1339 LZ1ABC        599 20     K2TE          599 05      
QSO: 28000 CW 2002-11-24 1340 LZ1ABC        599 20     W2XL          599 05      
QSO: 28000 CW 2002-11-24 1344 LZ1ABC        599 20     KP4US         599 08      
QSO: 28000 CW 2002-11-24 1344 LZ1ABC        599 20     W3DA          599 05      
QSO: 28000 CW 2002-11-24 1345 LZ1ABC        599 20     K1RC          599 05      
QSO: 28000 CW 2002-11-24 1345 LZ1ABC        599 20     K2YWE         599 05      
QSO: 28000 CW 2002-11-24 1346 LZ1ABC        599 20     G0NIG         599 14      
QSO: 28000 CW 2002-11-24 1348 LZ1ABC        599 20     AA8OY         599 04      
QSO: 28000 CW 2002-11-24 1348 LZ1ABC        599 20     W1TE          599 05      
QSO: 28000 CW 2002-11-24 1349 LZ1ABC        599 20     HA5PT         599 15      
QSO: 28000 CW 2002-11-24 1350 LZ1ABC        599 20     NU4Y          599 05      
QSO: 28000 CW 2002-11-24 1351 LZ1ABC        599 20     K4GKD         599 05      
QSO: 28000 CW 2002-11-24 1352 LZ1ABC        599 20     W0JLC         599 04      
QSO: 28000 CW 2002-11-24 1352 LZ1ABC        599 20     W2YK          599 05      
QSO: 21224 CW 2002-11-24 1352 LZ1ABC        599 20     8P5A          599 08      
QSO: 28000 CW 2002-11-24 1352 LZ1ABC        599 20     G0LZL         599 14      
QSO: 28000 CW 2002-11-24 1353 LZ1ABC        599 20     W4JKC         599 05      
QSO: 28000 CW 2002-11-24 1353 LZ1ABC        599 20     W4GBU         599 05      
QSO: 28000 CW 2002-11-24 1354 LZ1ABC        599 20     WA8CDU        599 04      
QSO: 28000 CW 2002-11-24 1354 LZ1ABC        599 20     WW1V          599 05      
QSO: 28000 CW 2002-11-24 1355 LZ1ABC        599 20     W2YC          599 05      
QSO: 28000 CW 2002-11-24 1356 LZ1ABC        599 20     N4IJ          599 05      
QSO: 28000 CW 2002-11-24 1357 LZ1ABC        599 20     4N7N          599 15      
QSO: 28000 CW 2002-11-24 1358 LZ1ABC        599 20     LA6PB         599 14      
QSO: 28000 CW 2002-11-24 1358 LZ1ABC        599 20     WA1Z          599 05      
QSO: 28000 CW 2002-11-24 1402 LZ1ABC        599 20     W3EP          599 05      
QSO: 28000 CW 2002-11-24 1402 LZ1ABC        599 20     W3FV          599 05      
QSO: 28000 CW 2002-11-24 1402 LZ1ABC        599 20     K2FU          599 05      
QSO: 28000 CW 2002-11-24 1403 LZ1ABC        599 20     W4PM          599 05      
QSO: 28000 CW 2002-11-24 1404 LZ1ABC        599 20     W4YE          599 05      
QSO: 28000 CW 2002-11-24 1404 LZ1ABC        599 20     W3BP          599 05      
QSO: 28000 CW 2002-11-24 1405 LZ1ABC        599 20     SM6NET        599 14      
QSO: 28000 CW 2002-11-24 1405 LZ1ABC        599 20     W3LPL         599 05      
QSO: 28000 CW 2002-11-24 1405 LZ1ABC        599 20     OM0R          599 15      
QSO: 28000 CW 2002-11-24 1406 LZ1ABC        599 20     EA2BDS        599 14      
QSO: 28000 CW 2002-11-24 1406 LZ1ABC        599 20     W5FL          599 04      
QSO: 28000 CW 2002-11-24 1407 LZ1ABC        599 20     KV8Q          599 04      
QSO: 28000 CW 2002-11-24 1407 LZ1ABC        599 20     AJ1E          599 05      
QSO: 28000 CW 2002-11-24 1408 LZ1ABC        599 20     W4AU          599 05      
QSO: 28000 CW 2002-11-24 1410 LZ1ABC        599 20     W1AA          599 05      
QSO: 28000 CW 2002-11-24 1410 LZ1ABC        599 20     AA4S          599 05      
QSO: 28000 CW 2002-11-24 1410 LZ1ABC        599 20     HA3LI         599 15      
QSO: 28000 CW 2002-11-24 1411 LZ1ABC        599 20     LA2QM         599 14      
QSO: 28000 CW 2002-11-24 1414 LZ1ABC        599 20     N2AB          599 05      
QSO: 28000 CW 2002-11-24 1415 LZ1ABC        599 20     OM7M          599 15      
QSO: 14000 CW 2002-11-24 1416 LZ1ABC        599 20     TF3GB         599 40      
QSO: 28000 CW 2002-11-24 1416 LZ1ABC        599 20     ED2JJ         599 14      
QSO: 28000 CW 2002-11-24 1418 LZ1ABC        599 20     WK2G          599 05      
QSO: 28000 CW 2002-11-24 1418 LZ1ABC        599 20     N1RR          599 05      
QSO: 28000 CW 2002-11-24 1418 LZ1ABC        599 20     CT8T          599 14      
QSO: 28000 CW 2002-11-24 1419 LZ1ABC        599 20     US0Q          599 16      
QSO: 28000 CW 2002-11-24 1420 LZ1ABC        599 20     NY3A          599 05      
QSO: 28000 CW 2002-11-24 1420 LZ1ABC        599 20     RW2F          599 15      
QSO: 28000 CW 2002-11-24 1421 LZ1ABC        599 20     OZ1AA         599 14      
QSO: 28000 CW 2002-11-24 1423 LZ1ABC        599 20     NS0Z          599 04      
QSO: 28000 CW 2002-11-24 1423 LZ1ABC        599 20     VE3XB         599 04      
QSO: 28000 CW 2002-11-24 1424 LZ1ABC        599 20     N2MG          599 05      
QSO: 14000 CW 2002-11-24 1424 LZ1ABC        599 20     J41YM         599 20      
QSO: 28000 CW 2002-11-24 1426 LZ1ABC        599 20     RZ1ZZZ        599 16      
QSO: 28000 CW 2002-11-24 1428 LZ1ABC        599 20     W1EBI         599 05      
QSO: 28000 CW 2002-11-24 1428 LZ1ABC        599 20     N3RJ          599 05      
QSO: 28000 CW 2002-11-24 1428 LZ1ABC        599 20     W8NL          599 04      
QSO: 28000 CW 2002-11-24 1429 LZ1ABC        599 20     KT4U          599 05      
QSO: 28000 CW 2002-11-24 1429 LZ1ABC        599 20     K9IG          599 04      
QSO: 28000 CW 2002-11-24 1429 LZ1ABC        599 20     K0RF          599 04      
QSO: 28000 CW 2002-11-24 1431 LZ1ABC        599 20     N8ET          599 04      
QSO: 28000 CW 2002-11-24 1432 LZ1ABC        599 20     K3ND          599 05      
QSO: 28000 CW 2002-11-24 1432 LZ1ABC        599 20     N4PSE         599 05      
QSO: 28000 CW 2002-11-24 1433 LZ1ABC        599 20     NY3C          599 05      
QSO: 28000 CW 2002-11-24 1433 LZ1ABC        599 20     N8XP          599 04      
QSO: 28000 CW 2002-11-24 1434 LZ1ABC        599 20     VE3FWA        599 04      
QSO: 28000 CW 2002-11-24 1434 LZ1ABC        599 20     WR3L          599 05      
QSO: 28000 CW 2002-11-24 1435 LZ1ABC        599 20     EX2M          599 17      
QSO: 14000 CW 2002-11-24 1435 LZ1ABC        599 20     ZL6QH         599 32      
QSO: 28000 CW 2002-11-24 1436 LZ1ABC        599 20     WT3W          599 05      
QSO: 28000 CW 2002-11-24 1437 LZ1ABC        599 20     N8BJQ         599 04      
QSO: 28000 CW 2002-11-24 1438 LZ1ABC        599 20     AB5C          599 04      
QSO: 28000 CW 2002-11-24 1438 LZ1ABC        599 20     W1RZF         599 05      
QSO: 28000 CW 2002-11-24 1439 LZ1ABC        599 20     G3YMC         599 14      
QSO: 28000 CW 2002-11-24 1439 LZ1ABC        599 20     UT0AZA        599 16      
QSO: 28000 CW 2002-11-24 1440 LZ1ABC        599 20     K1GU          599 05      
QSO: 28000 CW 2002-11-24 1441 LZ1ABC        599 20     WB2ABD        599 05      
QSO: 28000 CW 2002-11-24 1442 LZ1ABC        599 20     KE2SD         599 05      
QSO: 28000 CW 2002-11-24 1442 LZ1ABC        599 20     EA1FBJ        599 14      
QSO: 28000 CW 2002-11-24 1443 LZ1ABC        599 20     W1NT          599 05      
QSO: 28000 CW 2002-11-24 1444 LZ1ABC        599 20     N4NO          599 04      
QSO: 28000 CW 2002-11-24 1445 LZ1ABC        599 20     K2SZ          599 05      
QSO: 28000 CW 2002-11-24 1445 LZ1ABC        599 20     K4HA          599 05      
QSO: 28000 CW 2002-11-24 1446 LZ1ABC        599 20     K3PP          599 05      
QSO: 28000 CW 2002-11-24 1446 LZ1ABC        599 20     G3ZGC         599 14      
QSO: 28000 CW 2002-11-24 1446 LZ1ABC        599 20     G0KDZ         599 14      
QSO: 28000 CW 2002-11-24 1447 LZ1ABC        599 20     NO2R          599 05      
QSO: 28000 CW 2002-11-24 1447 LZ1ABC        599 20     GW4ALG        599 14      
QSO: 28000 CW 2002-11-24 1447 LZ1ABC        599 20     WA8ZBT        599 04      
QSO: 14000 CW 2002-11-24 1448 LZ1ABC        599 20     OY3QN         599 14      
QSO: 28000 CW 2002-11-24 1449 LZ1ABC        599 20     PP7ZZ         599 11      
QSO: 28000 CW 2002-11-24 1449 LZ1ABC        599 20     W0AIH         599 04      
QSO: 14000 CW 2002-11-24 1450 LZ1ABC        599 20     IT9BLB        599 15      
QSO: 28000 CW 2002-11-24 1450 LZ1ABC        599 20     N1DC          599 05      
QSO: 28000 CW 2002-11-24 1452 LZ1ABC        599 20     K9UQN         599 04      
QSO: 28000 CW 2002-11-24 1453 LZ1ABC        599 20     W8IQ          599 04      
QSO: 28000 CW 2002-11-24 1454 LZ1ABC        599 20     KB3MM         599 05      
QSO: 28000 CW 2002-11-24 1456 LZ1ABC        599 20     WI1S          599 05      
QSO: 28000 CW 2002-11-24 1458 LZ1ABC        599 20     K3OO          599 05      
QSO: 14000 CW 2002-11-24 1458 LZ1ABC        599 20     T88JA         599 27      
QSO: 28000 CW 2002-11-24 1459 LZ1ABC        599 20     HI8RV         599 08      
QSO: 14000 CW 2002-11-24 1501 LZ1ABC        599 20     9K9X          599 21      
QSO: 28000 CW 2002-11-24 1501 LZ1ABC        599 20     EI4CF         599 14      
QSO: 28000 CW 2002-11-24 1502 LZ1ABC        599 20     W3LJ          599 05      
QSO: 28000 CW 2002-11-24 1504 LZ1ABC        599 20     KC2KEU        599 05      
QSO: 28000 CW 2002-11-24 1504 LZ1ABC        599 20     K2MFY         599 05      
QSO: 14000 CW 2002-11-24 1505 LZ1ABC        599 20     5N0W          599 35      
QSO: 28000 CW 2002-11-24 1505 LZ1ABC        599 20     K2KIR         599 05      
QSO: 28000 CW 2002-11-24 1506 LZ1ABC        599 20     W9YYG         599 04      
QSO: 28000 CW 2002-11-24 1507 LZ1ABC        599 20     N4DT          599 05      
QSO: 28000 CW 2002-11-24 1508 LZ1ABC        599 20     N6AR          599 05      
QSO: 28000 CW 2002-11-24 1509 LZ1ABC        599 20     EI4GD         599 14      
QSO: 28000 CW 2002-11-24 1512 LZ1ABC        599 20     W3EF          599 05      
QSO: 28000 CW 2002-11-24 1513 LZ1ABC        599 20     K1IB          599 05      
QSO: 28000 CW 2002-11-24 1513 LZ1ABC        599 20     WD4K          599 04      
QSO: 28000 CW 2002-11-24 1513 LZ1ABC        599 20     K3PH          599 05      
QSO: 28000 CW 2002-11-24 1514 LZ1ABC        599 20     W2WB          599 05      
QSO: 28000 CW 2002-11-24 1515 LZ1ABC        599 20     N8RA          599 05      
QSO: 28000 CW 2002-11-24 1515 LZ1ABC        599 20     KC1F          599 05      
QSO: 28000 CW 2002-11-24 1516 LZ1ABC        599 20     W1NG          599 05      
QSO: 28000 CW 2002-11-24 1517 LZ1ABC        599 20     K1OA          599 05      
QSO: 28000 CW 2002-11-24 1520 LZ1ABC        599 20     K3IE          599 04      
QSO:  7000 CW 2002-11-24 1520 LZ1ABC        599 20     Z39Z          599 15      
QSO: 28000 CW 2002-11-24 1521 LZ1ABC        599 20     D4B           599 35      
QSO: 28000 CW 2002-11-24 1522 LZ1ABC        599 20     VE3EJ         599 04      
QSO: 28000 CW 2002-11-24 1523 LZ1ABC        599 20     VE3PN         599 04      
QSO: 28000 CW 2002-11-24 1523 LZ1ABC        599 20     N4IG          599 05      
QSO: 28000 CW 2002-11-24 1524 LZ1ABC        599 20     WE3C          599 05      
QSO: 28000 CW 2002-11-24 1526 LZ1ABC        599 20     KI9A          599 04      
QSO: 28000 CW 2002-11-24 1527 LZ1ABC        599 20     N1UR          599 05      
QSO: 28000 CW 2002-11-24 1528 LZ1ABC        599 20     N2GC          599 05      
QSO:  7000 CW 2002-11-24 1529 LZ1ABC        599 20     VE7SV         599 03      
QSO:  7000 CW 2002-11-24 1532 LZ1ABC        599 20     SM6E          599 14      
QSO:  7000 CW 2002-11-24 1533 LZ1ABC        599 20     JT1CO         599 23      
QSO:  7000 CW 2002-11-24 1536 LZ1ABC        599 20     RN3ZZ         599 16      
QSO:  7000 CW 2002-11-24 1539 LZ1ABC        599 20     UP5G          599 17      
QSO:  7000 CW 2002-11-24 1539 LZ1ABC        599 20     4Z8EE         599 20      
QSO: 28000 CW 2002-11-24 1540 LZ1ABC        599 20     N4VV          599 04      
QSO: 28000 CW 2002-11-24 1540 LZ1ABC        599 20     WA2VYA        599 05      
QSO: 28000 CW 2002-11-24 1541 LZ1ABC        599 20     EA7TG         599 14      
QSO: 28000 CW 2002-11-24 1541 LZ1ABC        599 20     VE3KP         599 04      
QSO: 28000 CW 2002-11-24 1543 LZ1ABC        599 20     K6EID         599 05      
QSO: 28000 CW 2002-11-24 1545 LZ1ABC        599 20     K3ZM          599 05      
QSO: 28000 CW 2002-11-24 1546 LZ1ABC        599 20     VE1AOE        599 05      
QSO: 28000 CW 2002-11-24 1546 LZ1ABC        599 20     N5JR          599 04      
QSO: 21224 CW 2002-11-24 1551 LZ1ABC        599 20     W1ECT         599 05      
QSO: 21224 CW 2002-11-24 1551 LZ1ABC        599 20     K1KI          599 05      
QSO: 21224 CW 2002-11-24 1553 LZ1ABC        599 20     EA8/DL6QW     599 33      
QSO: 21224 CW 2002-11-24 1554 LZ1ABC        599 20     W2WCT         599 05      
QSO: 21224 CW 2002-11-24 1555 LZ1ABC        599 20     N0RA          599 04      
QSO: 21224 CW 2002-11-24 1556 LZ1ABC        599 20     EI4II         599 14      
QSO: 21224 CW 2002-11-24 1558 LZ1ABC        599 20     N7DD          599 03      
QSO: 21224 CW 2002-11-24 1600 LZ1ABC        599 20     ZF2NT         599 08      
QSO: 21224 CW 2002-11-24 1602 LZ1ABC        599 20     N1RR          599 05      
QSO: 21224 CW 2002-11-24 1602 LZ1ABC        599 20     K3II          599 05      
QSO: 21224 CW 2002-11-24 1603 LZ1ABC        599 20     CT3KN         599 33      
QSO: 21224 CW 2002-11-24 1604 LZ1ABC        599 20     K1AR          599 05      
QSO: 21224 CW 2002-11-24 1604 LZ1ABC        599 20     VE6JY         599 04      
QSO: 21224 CW 2002-11-24 1606 LZ1ABC        599 20     W2WB          599 05      
QSO: 21224 CW 2002-11-24 1610 LZ1ABC        599 20     VE3EJ         599 04      
QSO: 21224 CW 2002-11-24 1620 LZ1ABC        599 20     EA4TX         599 14      
QSO: 21224 CW 2002-11-24 1621 LZ1ABC        599 20     P40E          599 09      
QSO: 21224 CW 2002-11-24 1622 LZ1ABC        599 20     EA5HT         599 14      
QSO: 21224 CW 2002-11-24 1633 LZ1ABC        599 20     W1NG          599 05      
QSO: 21224 CW 2002-11-24 1633 LZ1ABC        599 20     W5UE          599 04      
QSO: 21224 CW 2002-11-24 1634 LZ1ABC        599 20     K1OA          599 05      
QSO: 21224 CW 2002-11-24 1634 LZ1ABC        599 20     N8SM          599 04      
QSO: 21224 CW 2002-11-24 1635 LZ1ABC        599 20     PY2NDX        599 11      
QSO: 21224 CW 2002-11-24 1636 LZ1ABC        599 20     K2BA          599 05      
QSO: 21224 CW 2002-11-24 1637 LZ1ABC        599 20     WK2G          599 05      
QSO: 21224 CW 2002-11-24 1642 LZ1ABC        599 20     W0CP          599 04      
QSO: 21224 CW 2002-11-24 1642 LZ1ABC        599 20     VE4VV         599 04      
QSO: 21224 CW 2002-11-24 1643 LZ1ABC        599 20     VE2AYU        599 05      
QSO: 21224 CW 2002-11-24 1645 LZ1ABC        599 20     WE3C          599 05      
QSO: 21224 CW 2002-11-24 1645 LZ1ABC        599 20     K1GU          599 05      
QSO: 21224 CW 2002-11-24 1646 LZ1ABC        599 20     EA7KJ         599 14      
QSO: 21224 CW 2002-11-24 1650 LZ1ABC        599 20     K5MA          599 05      
QSO: 21224 CW 2002-11-24 1650 LZ1ABC        599 20     N4MO          599 05      
QSO: 21224 CW 2002-11-24 1652 LZ1ABC        599 20     K4RO          599 04      
QSO: 21224 CW 2002-11-24 1653 LZ1ABC        599 20     W3EF          599 05      
QSO: 21224 CW 2002-11-24 1654 LZ1ABC        599 20     NE3F          599 05      
QSO: 21224 CW 2002-11-24 1657 LZ1ABC        599 20     W1GD          599 05      
QSO: 21224 CW 2002-11-24 1659 LZ1ABC        599 20     K2UO          599 05      
QSO: 21224 CW 2002-11-24 1701 LZ1ABC        599 20     N2MM          599 05      
QSO: 21224 CW 2002-11-24 1702 LZ1ABC        599 20     W2UP          599 05      
QSO: 14000 CW 2002-11-24 1704 LZ1ABC        599 20     VE7GL         599 03      
QSO: 14000 CW 2002-11-24 1707 LZ1ABC        599 20     N7UA          599 03      
QSO: 14000 CW 2002-11-24 1709 LZ1ABC        599 20     K4XU          599 03      
QSO: 14000 CW 2002-11-24 1710 LZ1ABC        599 20     W3FV          599 05      
QSO: 14000 CW 2002-11-24 1711 LZ1ABC        599 20     YT9M          599 15      
QSO: 14000 CW 2002-11-24 1713 LZ1ABC        599 20     TM5HV         599 14      
QSO: 14000 CW 2002-11-24 1715 LZ1ABC        599 20     N7WA          599 03      
QSO: 14000 CW 2002-11-24 1716 LZ1ABC        599 20     VE7FO         599 03      
QSO: 14000 CW 2002-11-24 1716 LZ1ABC        599 20     HG8U          599 15      
QSO: 14000 CW 2002-11-24 1718 LZ1ABC        599 20     N6AW          599 03      
QSO:  7000 CW 2002-11-24 1719 LZ1ABC        599 20     ZA1B          599 15      
QSO: 14000 CW 2002-11-24 1721 LZ1ABC        599 20     VE7VR         599 03      
QSO: 14000 CW 2002-11-24 1722 LZ1ABC        599 20     K7ZZ          599 03      
QSO: 14000 CW 2002-11-24 1723 LZ1ABC        599 20     M2W           599 14      
QSO: 14000 CW 2002-11-24 1724 LZ1ABC        599 20     N6NF          599 03      
QSO: 14000 CW 2002-11-24 1725 LZ1ABC        599 20     EN7Z          599 16      
QSO: 14000 CW 2002-11-24 1726 LZ1ABC        599 20     N0IJ          599 04      
QSO: 14000 CW 2002-11-24 1727 LZ1ABC        599 20     NT6K          599 03      
QSO: 14000 CW 2002-11-24 1729 LZ1ABC        599 20     K7ZA          599 03      
QSO: 14000 CW 2002-11-24 1730 LZ1ABC        599 20     SM2KAL        599 14      
QSO: 14000 CW 2002-11-24 1730 LZ1ABC        599 20     G8D           599 14      
QSO: 14000 CW 2002-11-24 1732 LZ1ABC        599 20     W7GG          599 03      
QSO: 14000 CW 2002-11-24 1742 LZ1ABC        599 20     K7KU          599 04      
QSO: 14000 CW 2002-11-24 1743 LZ1ABC        599 20     W6OAT         599 03      
QSO: 14000 CW 2002-11-24 1744 LZ1ABC        599 20     M4T           599 14      
QSO: 14000 CW 2002-11-24 1746 LZ1ABC        599 20     VE7SV         599 03      
QSO: 14000 CW 2002-11-24 1748 LZ1ABC        599 20     W7VJ          599 03      
QSO: 14000 CW 2002-11-24 1749 LZ1ABC        599 20     N3RS          599 05      
QSO: 14000 CW 2002-11-24 1750 LZ1ABC        599 20     K3WW          599 05      
QSO: 14000 CW 2002-11-24 1755 LZ1ABC        599 20     K7OX          599 03      
QSO: 14000 CW 2002-11-24 1757 LZ1ABC        599 20     WF3J          599 05      
QSO:  1800 CW 2002-11-24 1807 LZ1ABC        599 20     LY7A          599 15      
QSO:  1800 CW 2002-11-24 1809 LZ1ABC        599 20     HA8IB         599 15      
QSO:  1800 CW 2002-11-24 1812 LZ1ABC        599 20     IR4B          599 15      
QSO:  1800 CW 2002-11-24 1813 LZ1ABC        599 20     HG6N          599 15      
QSO:  1800 CW 2002-11-24 1814 LZ1ABC        599 20     9A2TN         599 15      
QSO:  1800 CW 2002-11-24 1815 LZ1ABC        599 20     DF0HQ         599 14      
QSO:  1800 CW 2002-11-24 1816 LZ1ABC        599 20     IK4MGP        599 15      
QSO:  1800 CW 2002-11-24 1824 LZ1ABC        599 20     RW2F          599 15      
QSO:  1800 CW 2002-11-24 1825 LZ1ABC        599 20     ON4UN         599 14      
QSO:  1800 CW 2002-11-24 1826 LZ1ABC        599 20     HA8BE         599 15      
QSO:  1800 CW 2002-11-24 1829 LZ1ABC        599 20     4X3A          599 20      
QSO:  1800 CW 2002-11-24 1832 LZ1ABC        599 20     OZ0XX         599 14      
QSO:  1800 CW 2002-11-24 1834 LZ1ABC        599 20     UA9AT         599 17      
QSO: 14000 CW 2002-11-24 1836 LZ1ABC        599 20     P40W          599 09      
QSO:  1800 CW 2002-11-24 1840 LZ1ABC        599 20     9H1ZA         599 15      
QSO:  1800 CW 2002-11-24 1845 LZ1ABC        599 20     DK7ZT         559 14      
QSO: 14000 CW 2002-11-24 1846 LZ1ABC        599 20     D4B           599 35      
QSO:  3500 CW 2002-11-24 1853 LZ1ABC        599 20     JT1CO         599 23      
QSO:  3500 CW 2002-11-24 1855 LZ1ABC        599 20     EW6GF         599 16      
QSO:  3500 CW 2002-11-24 1856 LZ1ABC        599 20     RK3DK         599 16      
QSO:  3500 CW 2002-11-24 1859 LZ1ABC        599 20     OH0RJ         599 15      
QSO:  3500 CW 2002-11-24 1904 LZ1ABC        599 20     SP2FGO        599 15      
QSO:  3500 CW 2002-11-24 1904 LZ1ABC        599 20     SP9NSV/7      599 15      
QSO:  3500 CW 2002-11-24 1905 LZ1ABC        599 20     YO7BGA        599 20      
QSO:  3500 CW 2002-11-24 1906 LZ1ABC        599 20     LZ1RW         599 20      
QSO:  3500 CW 2002-11-24 1906 LZ1ABC        599 20     HA2ME         599 15      
QSO:  3500 CW 2002-11-24 1907 LZ1ABC        599 20     OH2LU         599 15      
QSO:  3500 CW 2002-11-24 1907 LZ1ABC        599 20     UR5AV         599 16      
QSO:  3500 CW 2002-11-24 1908 LZ1ABC        599 20     OK2PZ         599 15      
QSO:  3500 CW 2002-11-24 1908 LZ1ABC        599 20     RV6AB         599 16      
QSO:  3500 CW 2002-11-24 1911 LZ1ABC        599 20     RN6FO         599 16      
QSO:  3500 CW 2002-11-24 1921 LZ1ABC        599 20     A61AR         599 21      
QSO:  3500 CW 2002-11-24 1924 LZ1ABC        599 20     RA3AF         599 16      
QSO:  3500 CW 2002-11-24 1934 LZ1ABC        599 20     RX3RB         599 16      
QSO:  3500 CW 2002-11-24 1935 LZ1ABC        599 20     HB9DOT        599 14      
QSO:  7000 CW 2002-11-24 1942 LZ1ABC        599 20     RU0LL         599 19      
QSO:  7000 CW 2002-11-24 1944 LZ1ABC        599 20     PA7RA         599 14      
QSO:  7000 CW 2002-11-24 1946 LZ1ABC        599 20     HA6IAM        599 15      
QSO:  7000 CW 2002-11-24 1947 LZ1ABC        599 20     OH1BOI        599 15      
QSO:  7000 CW 2002-11-24 1947 LZ1ABC        599 20     G3VZT         599 14      
QSO:  7000 CW 2002-11-24 1949 LZ1ABC        599 20     RA3XM         599 16      
QSO:  7000 CW 2002-11-24 1950 LZ1ABC        599 20     RX4HZ         599 16      
QSO:  7000 CW 2002-11-24 1951 LZ1ABC        599 20     GW7X          599 14      
QSO:  7000 CW 2002-11-24 1955 LZ1ABC        599 20     TA3D          599 20      
QSO:  7000 CW 2002-11-24 2003 LZ1ABC        599 20     4U1ITU        599 14      
QSO:  7000 CW 2002-11-24 2005 LZ1ABC        599 20     YT7W          599 15      
QSO:  7000 CW 2002-11-24 2007 LZ1ABC        599 20     VU2WAP        599 22      
QSO:  7000 CW 2002-11-24 2007 LZ1ABC        599 20     RW9C          599 17      
QSO:  7000 CW 2002-11-24 2010 LZ1ABC        599 20     HS4BPQ/9      599 26      
QSO:  7000 CW 2002-11-24 2012 LZ1ABC        599 20     JH5FXP        599 25      
QSO:  7000 CW 2002-11-24 2016 LZ1ABC        599 20     UK80M         599 17      
QSO:  7000 CW 2002-11-24 2017 LZ1ABC        599 20     C4W           599 20      
QSO:  7000 CW 2002-11-24 2018 LZ1ABC        599 20     F5VBU         599 14      
QSO:  7000 CW 2002-11-24 2022 LZ1ABC        599 20     8N1OGA        599 27      
QSO:  7000 CW 2002-11-24 2039 LZ1ABC        599 20     AH2R          599 27      
QSO:  7000 CW 2002-11-24 2117 LZ1ABC        599 20     EA1JO         599 14      
QSO:  7000 CW 2002-11-24 2119 LZ1ABC        599 20     JA6GCE/QRP    599 25      
QSO:  7000 CW 2002-11-24 2120 LZ1ABC        599 20     SM0WRA        599 14      
QSO:  7000 CW 2002-11-24 2121 LZ1ABC        599 20     RX3AGQ        599 16      
QSO:  7000 CW 2002-11-24 2123 LZ1ABC        599 20     SP8ONZ        599 15      
QSO:  7000 CW 2002-11-24 2124 LZ1ABC        599 20     SP5CNA        599 15      
QSO:  7000 CW 2002-11-24 2126 LZ1ABC        599 20     G2FRY         599 14      
QSO:  7000 CW 2002-11-24 2129 LZ1ABC        599 20     UT4EK         599 16      
QSO:  7000 CW 2002-11-24 2130 LZ1ABC        599 20     SP2EFU        599 15      
QSO:  7000 CW 2002-11-24 2131 LZ1ABC        599 20     SQ9BZ         599 15      
QSO:  7000 CW 2002-11-24 2132 LZ1ABC        599 20     UT4MF         599 16      
QSO:  7000 CW 2002-11-24 2135 LZ1ABC        599 20     RV1AT         599 16      
QSO:  7000 CW 2002-11-24 2135 LZ1ABC        599 20     DL8KAW        599 14      
QSO:  7000 CW 2002-11-24 2137 LZ1ABC        599 20     RZ3DX         599 16      
QSO:  7000 CW 2002-11-24 2137 LZ1ABC        599 20     F6FTB         599 14      
QSO:  3500 CW 2002-11-24 2145 LZ1ABC        599 20     RU3WR         599 16      
QSO:  3500 CW 2002-11-24 2145 LZ1ABC        599 20     F8PDR         599 14      
QSO:  3500 CW 2002-11-24 2146 LZ1ABC        599 20     LA6IHA        599 14      
QSO:  3500 CW 2002-11-24 2147 LZ1ABC        599 20     UA9AMF        599 17      
QSO:  3500 CW 2002-11-24 2148 LZ1ABC        599 20     SP6NIC        599 15      
QSO:  3500 CW 2002-11-24 2148 LZ1ABC        599 20     YT1NP         599 15      
QSO:  3500 CW 2002-11-24 2152 LZ1ABC        599 20     T94MZ/QRP     599 15      
QSO:  3500 CW 2002-11-24 2152 LZ1ABC        599 20     YL2KF         599 15      
QSO:  3500 CW 2002-11-24 2153 LZ1ABC        599 20     SP8FHJ        599 15      
QSO:  3500 CW 2002-11-24 2153 LZ1ABC        599 20     OK2BGK        599 15      
QSO:  3500 CW 2002-11-24 2154 LZ1ABC        599 20     RZ3VA         599 16      
QSO:  3500 CW 2002-11-24 2154 LZ1ABC        599 20     SM6BSK        599 14      
QSO:  3500 CW 2002-11-24 2155 LZ1ABC        599 20     HA7MB         599 15      
QSO:  3500 CW 2002-11-24 2156 LZ1ABC        599 20     RA6AAW        599 16      
QSO:  3500 CW 2002-11-24 2156 LZ1ABC        599 20     I0ZUT         599 15      
QSO:  3500 CW 2002-11-24 2156 LZ1ABC        599 20     RN4ZT         599 16      
QSO:  3500 CW 2002-11-24 2156 LZ1ABC        599 20     RU4WE         599 16      
QSO:  3500 CW 2002-11-24 2158 LZ1ABC        599 20     I3BBK         599 15      
QSO:  3500 CW 2002-11-24 2159 LZ1ABC        599 20     IK4EWX        599 15      
QSO:  3500 CW 2002-11-24 2200 LZ1ABC        599 20     DL8NFU        599 14      
QSO:  3500 CW 2002-11-24 2200 LZ1ABC        599 20     SM7ATL        599 14      
QSO:  3500 CW 2002-11-24 2201 LZ1ABC        599 20     OK2PDT        599 15      
QSO:  3500 CW 2002-11-24 2201 LZ1ABC        599 20     YO5DAS        599 20      
QSO:  3500 CW 2002-11-24 2203 LZ1ABC        599 20     EA7GTG        599 14      
QSO:  3500 CW 2002-11-24 2204 LZ1ABC        599 20     UA4FEN        599 16      
QSO:  3500 CW 2002-11-24 2204 LZ1ABC        599 20     UX4LT         599 16      
QSO:  3500 CW 2002-11-24 2205 LZ1ABC        599 20     PA0MBD        599 14      
QSO:  3500 CW 2002-11-24 2205 LZ1ABC        599 20     F2JD          599 14      
QSO:  3500 CW 2002-11-24 2206 LZ1ABC        599 20     F6AUS         599 14      
QSO:  3500 CW 2002-11-24 2211 LZ1ABC        599 20     DL8HCO        599 14      
QSO:  3500 CW 2002-11-24 2211 LZ1ABC        599 20     SP6GNO        599 15      
QSO:  3500 CW 2002-11-24 2212 LZ1ABC        599 20     SM7EH         599 14      
QSO:  3500 CW 2002-11-24 2212 LZ1ABC        599 20     YU1ATL        599 15      
QSO:  3500 CW 2002-11-24 2212 LZ1ABC        599 20     UN7JX         599 17      
QSO:  3500 CW 2002-11-24 2213 LZ1ABC        599 20     HB9ADF        599 14      
QSO:  3500 CW 2002-11-24 2214 LZ1ABC        599 20     DL8UGF        599 14      
QSO:  3500 CW 2002-11-24 2214 LZ1ABC        599 20     OK7AZ         599 15      
QSO:  3500 CW 2002-11-24 2215 LZ1ABC        599 20     EA1JO         599 14      
QSO:  3500 CW 2002-11-24 2216 LZ1ABC        599 20     YU1LM/QRP     599 15      
QSO:  3500 CW 2002-11-24 2216 LZ1ABC        599 20     SP9GKM        599 15      
QSO:  3500 CW 2002-11-24 2217 LZ1ABC        599 20     HA4YG         599 15      
QSO:  3500 CW 2002-11-24 2219 LZ1ABC        599 20     UA1OMZ        599 16      
QSO:  3500 CW 2002-11-24 2225 LZ1ABC        599 20     4N1N          599 15      
QSO:  3500 CW 2002-11-24 2227 LZ1ABC        599 20     HA8EU         599 15      
QSO:  3500 CW 2002-11-24 2227 LZ1ABC        599 20     IG9A          599 33      
QSO:  3500 CW 2002-11-24 2228 LZ1ABC        599 20     OK1FM         599 15      
QSO:  3500 CW 2002-11-24 2229 LZ1ABC        599 20     UU7J          599 16      
QSO:  3500 CW 2002-11-24 2231 LZ1ABC        599 20     OK2FD         599 15      
QSO:  3500 CW 2002-11-24 2231 LZ1ABC        599 20     M2A           599 14      
QSO:  3500 CW 2002-11-24 2231 LZ1ABC        599 20     EA6IB         599 14      
QSO:  3500 CW 2002-11-24 2232 LZ1ABC        599 20     IU2X          599 15      
QSO:  3500 CW 2002-11-24 2233 LZ1ABC        599 20     ON4IA         599 14      
QSO:  3500 CW 2002-11-24 2234 LZ1ABC        599 20     G3WUX         599 14      
QSO:  3500 CW 2002-11-24 2236 LZ1ABC        599 20     GM3YOR        599 14      
QSO:  3500 CW 2002-11-24 2237 LZ1ABC        599 20     HG1S          599 15      
QSO:  3500 CW 2002-11-24 2238 LZ1ABC        599 20     RI4C          599 16      
QSO:  3500 CW 2002-11-24 2238 LZ1ABC        599 20     OM0C          599 15      
QSO:  3500 CW 2002-11-24 2239 LZ1ABC        599 20     OE2BZL        599 15      
QSO:  3500 CW 2002-11-24 2239 LZ1ABC        599 20     UV5U          599 16      
QSO:  3500 CW 2002-11-24 2239 LZ1ABC        599 20     S52GO         599 15      
QSO:  3500 CW 2002-11-24 2241 LZ1ABC        599 20     LZ2RF         599 20      
QSO:  3500 CW 2002-11-24 2241 LZ1ABC        599 20     UW5Q          599 16      
QSO:  3500 CW 2002-11-24 2242 LZ1ABC        599 20     YL0A          599 15      
QSO:  3500 CW 2002-11-24 2242 LZ1ABC        599 20     OM8AA         599 15      
QSO:  3500 CW 2002-11-24 2243 LZ1ABC        599 20     T95A          599 15      
QSO:  3500 CW 2002-11-24 2245 LZ1ABC        599 20     DL5JS         599 14      
QSO:  3500 CW 2002-11-24 2247 LZ1ABC        599 20     I5MXX         599 15      
QSO:  3500 CW 2002-11-24 2248 LZ1ABC        599 20     PB6X          599 14      
QSO:  3500 CW 2002-11-24 2249 LZ1ABC        599 20     DA0FF         599 14      
QSO:  3500 CW 2002-11-24 2250 LZ1ABC        599 20     ON4ATW        599 14      
QSO:  3500 CW 2002-11-24 2251 LZ1ABC        599 20     CT8T          599 14      
QSO:  3500 CW 2002-11-24 2251 LZ1ABC        599 20     4U1ITU        599 14      
QSO:  3500 CW 2002-11-24 2252 LZ1ABC        599 20     UX5UO         599 16      
QSO:  3500 CW 2002-11-24 2253 LZ1ABC        599 20     RZ6HN         599 16      
QSO:  3500 CW 2002-11-24 2254 LZ1ABC        599 20     HB9CRV        599 14      
QSO:  3500 CW 2002-11-24 2254 LZ1ABC        599 20     DL7ON         599 14      
QSO:  3500 CW 2002-11-24 2255 LZ1ABC        599 20     G8D           599 14      
QSO:  3500 CW 2002-11-24 2257 LZ1ABC        599 20     HB9FAE        599 14      
QSO:  3500 CW 2002-11-24 2258 LZ1ABC        599 20     G3TXF         599 14      
QSO:  3500 CW 2002-11-24 2300 LZ1ABC        599 20     EI4II         599 14      
QSO:  3500 CW 2002-11-24 2300 LZ1ABC        599 20     LY7Z          599 15      
QSO:  3500 CW 2002-11-24 2303 LZ1ABC        599 20     OK1DG         599 15      
QSO:  3500 CW 2002-11-24 2303 LZ1ABC        599 20     RA3ET         599 16      
QSO:  3500 CW 2002-11-24 2304 LZ1ABC        599 20     UX1VT         599 16      
QSO:  3500 CW 2002-11-24 2304 LZ1ABC        599 20     9A2UU         599 15      
QSO:  3500 CW 2002-11-24 2306 LZ1ABC        599 20     UR5IHQ        599 16      
QSO:  3500 CW 2002-11-24 2306 LZ1ABC        599 20     SW1W          599 20      
QSO:  3500 CW 2002-11-24 2307 LZ1ABC        599 20     YU4EU         599 15      
QSO:  3500 CW 2002-11-24 2308 LZ1ABC        599 20     OZ5DX         599 14      
QSO:  3500 CW 2002-11-24 2309 LZ1ABC        599 20     T91W          599 15      
QSO:  3500 CW 2002-11-24 2310 LZ1ABC        599 20     DL5DXF        599 14      
QSO:  1800 CW 2002-11-24 2314 LZ1ABC        599 20     OM3IAG        599 15      
QSO:  1800 CW 2002-11-24 2315 LZ1ABC        599 20     ZA1B          599 15      
QSO:  1800 CW 2002-11-24 2315 LZ1ABC        599 20     9A2AJ         599 15      
QSO:  1800 CW 2002-11-24 2317 LZ1ABC        599 20     ES6Q          599 15      
QSO:  1800 CW 2002-11-24 2318 LZ1ABC        599 20     P3A           599 20      
QSO:  1800 CW 2002-11-24 2320 LZ1ABC        599 20     SP9NSV/7      599 15      
QSO:  1800 CW 2002-11-24 2320 LZ1ABC        599 20     YO9HP         599 20      
QSO:  1800 CW 2002-11-24 2321 LZ1ABC        599 20     SN8F          599 15      
QSO:  1800 CW 2002-11-24 2322 LZ1ABC        599 20     3V8BB         599 33      
QSO:  1800 CW 2002-11-24 2323 LZ1ABC        599 20     ER3R          599 16      
QSO:  1800 CW 2002-11-24 2324 LZ1ABC        599 20     II1H          599 15      
QSO:  1800 CW 2002-11-24 2327 LZ1ABC        599 20     OM7M          599 15      
QSO:  1800 CW 2002-11-24 2328 LZ1ABC        599 20     RF3A          599 16      
QSO:  1800 CW 2002-11-24 2332 LZ1ABC        599 20     SN7Q          599 15      
QSO:  1800 CW 2002-11-24 2332 LZ1ABC        599 20     HB9AGA        599 14      
QSO:  1800 CW 2002-11-24 2333 LZ1ABC        599 20     LZ9R          599 20      
QSO:  1800 CW 2002-11-24 2335 LZ1ABC        599 20     SP5CTY        599 15      
QSO:  7000 CW 2002-11-24 2338 LZ1ABC        599 20     UA0ACG        599 18      
QSO:  7000 CW 2002-11-24 2339 LZ1ABC        599 20     K3II          599 05      
QSO:  7000 CW 2002-11-24 2342 LZ1ABC        599 20     EA5FV         599 14      
QSO:  7000 CW 2002-11-24 2343 LZ1ABC        599 20     HB9YC         599 14      
QSO:  7000 CW 2002-11-24 2344 LZ1ABC        599 20     DL6FBL        599 14      
QSO:  7000 CW 2002-11-24 2345 LZ1ABC        599 20     OM8A          599 15      
QSO:  7000 CW 2002-11-24 2346 LZ1ABC        599 20     HA8MD         599 15      
QSO:  7000 CW 2002-11-24 2349 LZ1ABC        599 20     FS/KM3T       599 08      
QSO:  7000 CW 2002-11-24 2350 LZ1ABC        599 20     KB1H          599 05      
QSO:  7000 CW 2002-11-24 2351 LZ1ABC        599 20     9A7T          599 15      
QSO:  7000 CW 2002-11-24 2351 LZ1ABC        599 20     RD3R          599 16      
QSO:  7000 CW 2002-11-24 2352 LZ1ABC        599 20     OM3KHO        599 15      
QSO:  7000 CW 2002-11-24 2353 LZ1ABC        599 20     OL3Y          599 15      
QSO:  7000 CW 2002-11-24 2353 LZ1ABC        599 20     N2GC          599 05      
QSO:  7000 CW 2002-11-24 2356 LZ1ABC        599 20     OZ4RT         599 14      
QSO:  7000 CW 2002-11-24 2356 LZ1ABC        599 20     DL2HRN        599 14      
QSO:  7000 CW 2002-11-24 2357 LZ1ABC        599 20     RW6CW         599 16      
QSO:  7000 CW 2002-11-24 2358 LZ1ABC        599 20     8S6A          599 14      
QSO:  7000 CW 2002-11-24 2359 LZ1ABC        599 20     RX3AEX        599 16      
QSO:  7000 CW 2002-11-24 2359 LZ1ABC        599 20     IP6GNO        599 15      
END-OF-LOG: